     2.11           OBSERVATION DATA    G (GPS)             RINEX VERSION / TYPE
teqc 2010Oct21 OPUS Account 20111028 15:37:18UTC            PGM / RUN BY / DATE
H 1527                                                      MARKER NAME
3068                                                        MARKER NUMBER
CSMIDDLETON NGS                                             OBSERVER / AGENCY
4619K01307 TRIMBLE NETR5 4.41                               REC # / TYPE / VERS
12668873 TRM41249.00 NONE                                   ANT # / TYPE
  -730969.7121 -5587696.7284  2977264.3769                  APPROX POSITION XYZ
        1.9990        0.0000        0.0000                  ANTENNA: DELTA H/E/N
     1     1                                                WAVELENGTH FACT L1/2
     5    L1    L2    C1    P1    P2                        # / TYPES OF OBSERV
    15                                                      LEAP SECONDS
  2011     8    23    15    36   30.0000000     GPS         TIME OF FIRST OBS
                                                            END OF HEADER
 11  8 23 15 36 30.0000000  0 10G20G08G07G16G10G03G19G06G13G23
 127612037.79616  99438192.22253  24283811.313                    24283823.035
 129497889.54616 100907500.14753  24642629.563                    24642642.711
 119012069.44017  92736716.60717  22647244.398                    22647253.688
 118500802.89217  92338326.30754  22549953.531                    22549962.488
 125558770.74616  97838047.16654  23893039.891                    23893051.742
 109517332.85318  85338217.74955  20840455.758                    20840465.617
 112449458.30518  87622986.14356  21398420.422                    21398428.328
 117628705.19217  91658770.90055  22383998.555                    22384008.988
 106016734.66217  82610479.40356  20174314.070                    20174322.730
 105514068.59318  82218781.56156  20078659.828                    20078666.809
 11  8 23 15 37  0.0000000  0 10G20G08G07G16G10G03G19G06G13G23
 127697656.10316  99504907.93153  24300103.820                    24300115.461
 129434227.55816 100857893.28953  24630515.820                    24630527.711
 118955703.20417  92692795.37316  22636517.609                    22636527.293
 118588226.46817  92406448.78455  22566589.906                    22566598.309
 125554204.34316  97834489.38953  23892170.188                    23892182.809
 109536325.54218  85353017.47355  20844069.680                    20844079.586
 112396907.00118  87582037.09856  21388420.406                    21388428.602
 117675823.30017  91695486.33055  22392964.422                    22392974.750
 105988010.58218  82588097.01256  20168848.359                    20168856.977
 105541519.53618  82240171.88756  20083883.648                    20083890.363
 11  8 23 15 37 30.0000000  0 10G20G08G07G16G10G03G19G06G13G23
 127783178.872 6  99571548.96843  24316378.477                    24316389.977
 129370506.819 6 100808240.91343  24618390.281                    24618402.578
 118899344.227 7  92648879.302 7  22625792.805                    22625802.328
 118675746.576 7  92474646.22845  22583244.523                    22583253.402
 125550128.627 6  97831313.47144  23891395.133                    23891406.969
 109555944.014 8  85368304.59145  20847802.555                    20847812.332
 112344847.290 8  87541471.10546  21378513.477                    21378521.285
 117723446.636 7  91732595.42044  22402026.945                    22402036.762
 105959806.283 8  82566119.64146  20163481.289                    20163489.719
 105569539.697 8  82262005.75946  20089215.688                    20089222.383
 11  8 23 15 38  0.0000000  0 10G20G08G07G16G10G03G19G06G13G23
 127868602.367 6  99638112.61643  24332633.008                    24332645.234
 129306723.405 6 100758539.61943  24606251.773                    24606264.570
 118842993.212 7  92604969.455 7  22615069.539                    22615079.094
 118763359.485 7  92542915.99745  22599916.578                    22599925.676
 125546542.168 6  97828518.81143  23890712.398                    23890724.375
 109576186.592 8  85384078.01746  20851654.766                    20851664.547
 112293279.072 8  87501288.11846  21368700.414                    21368708.574
 117771571.272 7  91770095.10544  22411185.047                    22411194.781
 105932121.140 7  82544546.79546  20158212.875                    20158221.676
 105598126.655 8  82284281.28246  20094655.938                    20094662.402
 11  8 23 15 38 30.0000000  0 10G20G08G07G16G10G03G19G06G13G23
 127953924.411 6  99704597.23243  24348870.102                    24348881.684
 129242877.792 6 100708789.90143  24594102.758                    24594115.137
 118786649.912 7  92561065.638 7  22604347.539                    22604357.449
 118851063.175 7  92611256.50244  22616605.906                    22616614.543
 125543445.002 6  97826105.43443  23890122.883                    23890135.051
 109597052.773 8  85400337.38145  20855625.773                    20855635.090
 112242205.645 8  87461490.66646  21358981.570                    21358989.316
 117820195.950 7  91807984.46545  22420437.883                    22420447.508
 105904957.370 8  82523380.22646  20153043.727                    20153052.410
 105627280.410 8  82306998.48446  20100203.711                    20100210.457
 11  8 23 15 39  0.0000000  0 10G20G08G07G16G10G03G19G06G13G23
 128039142.711 6  99771000.96742  24365086.406                    24365098.402
 129178968.991 6 100658990.96043  24581941.023                    24581953.500
 118730314.915 7  92517168.285 7  22593627.422                    22593636.969
 118938856.071 7  92679666.52245  22633312.836                    22633321.578
 125540836.180 6  97824072.59844  23889626.680                    23889638.266
 109618542.443 8  85417082.57646  20859715.172                    20859724.504
 112191629.168 8  87422080.44246  21349357.117                    21349365.160
 117869319.410 7  91846262.49344  22429785.531                    22429795.766
 105878316.524 8  82502621.12946  20147974.148                    20147982.594
 105657000.802 8  82330157.20346  20105859.008                    20105866.066
 11  8 23 15 39 30.0000000  0 10G20G08G07G16G10G03G19G06G13G23
 128124255.66416  99837323.56452  24381283.742                    24381294.395
 129115006.80916 100609150.29353  24569768.117                    24569781.379
 118673997.15517  92473285.01417  22582909.813                    22582919.750
 119026736.02317  92748138.26955  22650036.211                    22650045.199
 125538722.78516  97822425.22253  23889223.828                    23889235.922
 109640659.68518  85434316.54455  20863924.000                    20863933.695
 112141555.68718  87383047.72356  21339828.820                    21339837.078
 117918933.87317  91884906.47055  22439229.141                    22439239.289
 105852204.22618  82482274.44656  20143005.695                    20143014.016
 105687293.59618  82353761.94656  20111623.391                    20111630.477
 11  8 23 15 40  0.0000000  0 10G20G08G07G16G10G03G19G06G13G23
 128209259.725 6  99903560.45942  24397459.945                    24397470.547
 129050972.061 6 100559253.21443  24557583.141                    24557595.719
 118617680.114 7  92429401.656 7  22572192.984                    22572202.516
 119114700.225 7  92816681.75944  22666775.477                    22666784.309
 125537089.036 6  97821152.17043  23888912.766                    23888925.363
 109663394.608 8  85452032.06146  20868250.156                    20868259.746
 112091980.705 8  87344417.88446  21330395.258                    21330402.855
 117969050.686 7  91923958.49845  22448766.109                    22448776.492
 105826615.270 8  82462334.99146  20138135.930                    20138144.535
 105718147.208 8  82377803.69546  20117494.688                    20117501.711
 11  8 23 15 40 30.0000000  0 10G20G08G07G16G10G03G19G06G13G23
 128294152.485 6  99969710.58742  24413614.547                    24413626.137
 128986873.575 6 100509306.42743  24545385.555                    24545398.379
 118561372.322 7  92385525.493 7  22561478.211                    22561487.871
 119202746.597 7  92885289.28444  22683530.258                    22683539.297
 125535941.200 6  97820257.76543  23888694.133                    23888706.832
 109686750.705 8  85470231.60245  20872694.602                    20872703.926
 112042910.037 8  87306181.02346  21321057.305                    21321065.434
 118019661.666 7  91963395.61544  22458397.219                    22458407.199
 105801554.792 8  82442807.34346  20133366.984                    20133376.086
 105749566.540 8  82402286.26946  20123473.633                    20123480.543
 11  8 23 15 41  0.0000000  0 10G20G08G07G16G10G03G19G06G13G23
 128378931.107 6 100035771.77043  24429746.938                    24429759.508
 128922710.783 6 100459309.53043  24533175.438                    24533188.148
 118505073.621 7  92341656.424 7  22550764.352                    22550774.469
 119290872.750 7  92953958.99144  22700300.125                    22700308.637
 125535277.953 6  97819740.94943  23888568.539                    23888580.281
 109710726.859 8  85488914.30145  20877256.844                    20877266.816
 111994345.405 8  87268338.46846  21311815.656                    21311823.430
 118070764.622 7  92003216.10045  22468121.633                    22468131.559
 105777023.913 8  82423692.37546  20128699.008                    20128707.793
 105781550.753 8  82427209.00946  20129560.148                    20129567.129
 11  8 23 15 41 30.0000000  0 10G20G08G07G16G10G03G19G06G13G23
 128463593.503 6 100101742.35943  24445857.953                    24445870.582
 128858483.468 6 100409262.37643  24520953.594                    24520966.035
 118448784.578 7  92297794.868 7  22540052.859                    22540063.328
 119379076.938 7  93022689.49245  22717084.789                    22717093.969
 125535098.731 6  97819601.29843  23888534.086                    23888546.352
 109735322.739 7  85508079.90645  20881937.586                    20881946.965
 111946289.718 8  87230892.49846  21302670.914                    21302679.020
 118122358.393 7  92043419.03144  22477939.883                    22477950.316
 105753024.918 8  82404991.86246  20124132.102                    20124140.863
 105814100.082 8  82452572.09446  20135754.156                    20135760.727
 11  8 23 15 42  0.0000000  0 10G20G08G07G16G10G03G19G06G13G23
 128548137.369 6 100167620.60742  24461946.492                    24461958.625
 128794191.688 6 100359164.98443  24508718.906                    24508731.855
 118392505.581 7  92253941.132 7  22529343.641                    22529353.410
 119467356.843 7  93091479.00345  22733883.875                    22733893.070
 125535402.500 6  97819837.99443  23888591.945                    23888604.453
 109760537.507 7  85527727.76645  20886735.578                    20886745.582
 111898744.852 8  87193844.56346  21293623.578                    21293631.531
 118174441.509 7  92084003.28245  22487850.695                    22487860.625
 105729559.299 8  82386706.95946  20119666.477                    20119675.328
 105847214.013 8  82478375.13546  20142055.500                    20142062.492
 11  8 23 15 42 30.0000000  0 10G20G08G07G16G10G03G19G06G13G23
 128632560.435 6 100233404.71343  24478012.305                    24478023.301
 128729835.040 6 100309017.03943  24496472.680                    24496484.809
 118336237.420 7  92210095.848 7  22518635.813                    22518645.891
 119555710.747 7  93160326.16144  22750697.281                    22750706.086
 125536188.647 6  97820450.55943  23888741.508                    23888754.141
 109786370.594 8  85547857.44545  20891651.789                    20891661.219
 111851713.735 8  87157196.95346  21284674.078                    21284681.793
 118227012.384 7  92124967.58844  22497855.016                    22497864.785
 105706628.904 8  82368839.12946  20115303.453                    20115311.977
 105880892.671 8  82504618.22746  20148464.117                    20148471.434
 11  8 23 15 43  0.0000000  0 10G20G08G07G16G10G03G19G06G13G23
 128716859.972 6 100299092.60543  24494053.859                    24494065.230
 128665413.250 6 100258818.31443  24484212.938                    24484225.949
 118279980.226 7  92166259.104 7  22507930.688                    22507940.891
 119644136.386 7  93229229.22944  22767524.141                    22767532.867
 125537456.151 6  97821438.23743  23888982.695                    23888994.965
 109812821.220 7  85568468.32645  20896684.953                    20896694.598
 111805198.513 8  87120951.34046  21275822.156                    21275830.066
 118280069.357 7  92166310.67345  22507951.352                    22507961.254
 105684235.372 8  82351389.62646  20111042.078                    20111050.316
 105915135.247 8  82531300.73246  20154980.703                    20154987.406
 11  8 23 15 43 30.0000000  0 10G20G08G07G16G10G03G19G06G13G23
 128801033.551 6 100364682.32443  24510071.008                    24510083.152
 128600925.652 6 100208568.35843  24471941.531                    24471954.051
 118223734.139 7  92122431.008 7  22497227.188                    22497237.344
 119732631.362 7  93298186.31944  22784364.734                    22784372.852
 125539204.128 6  97822800.30443  23889315.023                    23889327.293
 109839888.164 7  85589559.45545  20901835.781                    20901845.453
 111759201.169 8  87085109.27046  21267069.234                    21267076.703
 118333610.495 7  92208031.03344  22518139.883                    22518149.547
 105662379.608 8  82334359.16546  20106882.766                    20106891.598
 105949940.598 8  82558421.76746  20161603.828                    20161610.875
 11  8 23 15 44  0.0000000  0 10G20G08G07G16G10G03G19G06G13G23
 128885079.021 6 100430172.23643  24526064.852                    24526076.383
 128536372.568 6 100158267.34743  24459657.445                    24459670.027
 118167499.778 7  92078612.057 7  22486526.297                    22486536.363
 119821193.964 7  93367196.10544  22801217.078                    22801226.480
 125541431.507 6  97824535.89143  23889739.133                    23889751.730
 109867571.189 7  85611130.63845  20907103.555                    20907113.582
 111713724.079 8  87049672.59346  21258415.227                    21258423.180
 118387634.554 7  92250127.68244  22528420.430                    22528430.344
 105641064.071 8  82317749.65246  20102826.750                    20102835.477
 105985309.021 8  82585981.54946  20168333.961                    20168340.809
 11  8 23 15 44 30.0000000  0 10G20G08G07G16G10G03G19G06G13G23
 128968993.900 6 100495560.34243  24542033.547                    24542044.945
 128471753.860 6 100107915.18943  24447360.867                    24447373.859
 118111277.413 7  92034802.447 7  22475827.469                    22475837.426
 119909821.925 7  93436256.80944  22818082.305                    22818091.469
 125544137.390 6  97826644.41543  23890254.211                    23890266.488
 109895869.198 7  85633181.02945  20912488.648                    20912498.281
 111668769.527 8  87014643.09346  21249860.367                    21249868.297
 118442139.596 7  92292599.14144  22538791.891                    22538802.332
 105620290.071 8  82301562.11546  20098873.820                    20098882.305
 106021239.774 8  82613979.51246  20175171.523                    20175178.402
 11  8 23 15 45  0.0000000  0 10G20G08G07G16G10G03G19G06G13G23
 129052775.836 6 100560844.87943  24557976.609                    24557988.930
 128407068.998 6 100057511.48943  24435052.023                    24435064.078
 118055067.550 7  91991002.588 7  22465131.281                    22465141.184
 119998513.423 7  93505367.03244  22834959.914                    22834968.887
 125547320.512 6  97829124.75643  23890860.023                    23890872.305
 109924780.954 8  85655709.66845  20917990.406                    20918000.449
 111624339.934 8  86980022.66346  21241405.758                    21241413.605
 118497124.109 7  92335444.19744  22549255.711                    22549265.664
 105600059.269 8  82285797.85346  20095023.922                    20095032.621
 106057732.500 8  82642415.36946  20182116.141                    20182123.160
 11  8 23 15 45 30.0000000  0 10G20G08G07G16G10G03G19G06G13G23
 129136422.551 6 100626024.05543  24573893.430                    24573906.102
 128342318.052 6 100007056.29243  24422730.328                    24422742.207
 117998870.638 7  91947212.829 7  22454437.398                    22454447.012
 120087266.424 7  93574525.18644  22851849.094                    22851858.406
 125550979.967 6  97831976.29243  23891556.367                    23891568.758
 109954305.744 7  85678715.99145  20923608.461                    20923618.461
 111580437.335 8  86945812.87546  21233051.391                    21233059.242
 118552586.420 7  92378661.56245  22559809.750                    22559819.891
 105580373.328 8  82270458.15346  20091277.766                    20091286.379
 106094786.671 8  82671288.72746  20189167.211                    20189174.555
 11  8 23 15 46  0.0000000  0 10G20G08G07G16G10G03G19G06G13G23
 129219931.522 6 100691095.85143  24589785.469                    24589797.418
 128277500.821 6  99956549.45143  24410394.875                    24410407.758
 117942687.163 7  91903433.544 7  22443745.797                    22443755.902
 120176078.804 7  93643729.60544  22868748.930                    22868758.707
 125555114.867 6  97835198.29043  23892343.219                    23892355.023
 109984442.695 8  85702199.33145  20929343.555                    20929353.438
 111537063.915 8  86912015.43646  21224797.266                    21224805.336
 118608524.955 7  92422250.00645  22570454.836                    22570464.453
 105561233.806 8  82255544.23546  20087635.703                    20087643.781
 106132401.684 8  82700599.10246  20196325.266                    20196331.922
 11  8 23 15 46 30.0000000  0 10G20G08G07G16G10G03G19G06G13G23
 129303300.700 6 100756058.73043  24605649.930                    24605662.410
 128212616.871 6  99905990.59743  24398049.328                    24398060.773
 117886517.664 7  91859665.149 7  22433057.180                    22433067.105
 120264948.729 7  93712978.86244  22885660.844                    22885670.375
 125559724.050 6  97838789.86543  23893219.680                    23893232.086
 110015190.870 7  85726158.95045  20935194.938                    20935204.121
 111494221.992 8  86878632.15246  21216644.852                    21216652.863
 118664937.662 7  92466207.93345  22581189.328                    22581199.910
 105542642.380 8  82241057.41346  20084097.648                    20084106.047
 106170576.968 8  82730346.05846  20203589.516                    20203596.848
 11  8 23 15 47  0.0000000  0 10G20G08G07G16G10G03G19G06G13G23
 129386527.435 6 100820910.62243  24621487.664                    24621499.785
 128147665.845 6  99855379.50043  24385688.617                    24385700.750
 117830362.219 7  91815907.698 7  22422370.914                    22422380.813
 120353873.943 7  93782271.19044  22902582.750                    22902592.129
 125564806.438 6  97842750.19443  23894186.891                    23894199.258
 110046548.816 7  85750593.72045  20941161.984                    20941171.805
 111451913.315 8  86845664.38646  21208594.516                    21208601.926
 118721822.640 7  92510533.87245  22592013.844                    22592024.250
 105524599.967 8  82226998.38946  20080664.563                    20080672.969
 106209311.641 8  82760528.88646  20210960.531                    20210967.465
 11  8 23 15 47 30.0000000  0 10G20G08G07G16G10G03G19G06G13G23
 129469609.439 6 100885649.73543  24637297.875                    24637309.793
 128082647.692 6  99804716.11043  24373316.180                    24373328.117
 117774221.679 7  91772161.873 7  22411687.797                    22411697.605
 120442852.342 7  93851604.96044  22919514.938                    22919524.262
 125570360.543 6  97847078.08143  23895244.227                    23895256.395
 110078515.581 7  85775502.87445  20947245.266                    20947255.211
 111410140.202 8  86813113.94146  21200644.852                    21200652.918
 118779178.280 7  92555226.54545  22602928.398                    22602938.633
 105507108.079 8  82213368.35246  20077335.930                    20077344.426
 106248605.035 8  82791147.08746  20218437.867                    20218445.109
 11  8 23 15 48  0.0000000  0 10G20G08G07G16G10G03G19G06G13G23
 129552544.310 6 100950274.20443  24653079.633                    24653091.922
 128017562.190 6  99754000.17543  24360930.781                    24360942.980
 117718095.963 7  91728427.590 7  22401007.406                    22401017.125
 120531882.118 7  93920978.78645  22936456.883                    22936465.879
 125576385.362 6  97851772.76443  23896391.102                    23896403.254
 110111090.231 7  85800885.71245  20953443.977                    20953453.676
 111368904.570 8  86780982.30846  21192798.016                    21192805.688
 118837002.700 7  92600284.51745  22613932.352                    22613942.848
 105490168.295 8  82200168.51946  20074112.461                    20074120.703
 106288456.387 8  82822200.07446  20226021.180                    20226028.035
 11  8 23 15 48 30.0000000  0 10G20G08G07G16G10G03G19G06G13G23
 129635329.863 6 101014782.33043  24668833.516                    24668845.352
 127952409.462 6  99703231.91643  24348532.086                    24348544.441
 117661985.932 7  91684705.536 7  22390329.586                    22390339.852
 120620961.213 7  93990391.02444  22953407.688                    22953416.945
 125582879.897 6  97856833.43643  23897626.219                    23897639.043
 110144271.579 8  85826741.29645  20959758.023                    20959767.762
 111328208.579 8  86749271.17646  21185053.961                    21185061.691
 118895294.264 7  92645706.48345  22625024.742                    22625035.465
 105473782.354 8  82187400.25946  20070993.945                    20071002.668
 106328865.278 8  82853687.49446  20233710.773                    20233718.027
 11  8 23 15 49  0.0000000  0 10G20G08G07G16G10G03G19G06G13G23
 129717963.885 6 101079172.39643  24684557.773                    24684570.469
 127887189.319 6  99652411.12043  24336120.656                    24336133.402
 117605892.140 7  91640996.134 7  22379655.703                    22379665.543
 120710087.928 7  94059840.37944  22970368.195                    22970377.262
 125589843.132 6  97862259.39243  23898951.523                    23898964.211
 110178058.521 7  85853068.78045  20966187.703                    20966197.266
 111288054.451 8  86717982.26646  21177412.578                    21177420.117
 118954051.257 7  92691491.13144  22636205.586                    22636216.504
 105457951.859 8  82175064.80746  20067981.891                    20067990.160
 106369830.978 8  82885608.79446  20241506.531                    20241513.652
 11  8 23 15 49 30.0000000  0 10G20G08G07G16G10G03G19G06G13G23
 129800443.940 6 101143442.41742  24700253.797                    24700265.695
 127821901.380 6  99601537.51643  24323697.875                    24323709.566
 117549815.003 7  91597299.703 7  22368984.594                    22368994.309
 120799260.222 7  94129325.23644  22987337.164                    22987346.461
 125597273.717 6  97868049.44043  23900365.633                    23900378.055
 110212449.995 8  85879867.31845  20972732.141                    20972741.277
 111248444.023 8  86687117.01646  21169874.859                    21169882.902
 119013271.573 7  92737636.81744  22647475.383                    22647485.516
 105442677.759 8  82163162.91146  20065075.203                    20065083.832
 106411352.774 8  82917963.40946  20249407.438                    20249414.992
 11  8 23 15 50  0.0000000  0 10G20G08G07G16G10G03G19G06G13G23
 129882767.661 6 101207590.68243  24715920.039                    24715931.676
 127756545.477 6  99550610.91843  24311260.242                    24311272.555
 117493754.655 7  91553616.349 7  22358316.703                    22358326.422
 120888475.829 7  94198843.85444  23004314.211                    23004323.027
 125605169.929 6  97874202.34943  23901867.914                    23901880.273
 110247444.328 7  85907135.62745  20979391.461                    20979401.242
 111209379.010 8  86656676.76646  21162441.078                    21162448.578
 119072953.192 7  92784141.97744  22658831.953                    22658842.465
 105427960.942 8  82151695.26246  20062274.828                    20062283.473
 106453429.371 8  82950750.34346  20257414.945                    20257421.914
 11  8 23 15 50 30.0000000  0 10G20G08G07G16G10G03G19G06G13G23
 129964932.949 6 101271615.47943  24731555.000                    24731567.617
 127691121.557 6  99499631.31643  24298810.461                    24298823.191
 117437711.679 7  91509946.532 7  22347651.703                    22347661.293
 120977733.055 7  94268394.90244  23021299.531                    23021308.352
 125613530.552 6  97880717.14743  23903459.258                    23903471.043
 110283040.669 7  85934873.03545  20986164.844                    20986174.734
 111170861.543 8  86626663.17446  21155111.508                    21155119.176
 119133094.433 7  92831005.23944  22670276.602                    22670286.902
 105413802.810 8  82140662.95446  20059580.414                    20059589.043
 106496060.716 8  82983969.54746  20265527.273                    20265534.332
 11  8 23 15 51  0.0000000  0 10G20G08G07G16G10G03G19G06G13G23
 130046937.417 6 101335514.96143  24747160.039                    24747172.516
 127625629.686 6  99448598.73043  24286348.070                    24286360.270
 117381687.063 7  91466291.022 7  22336990.727                    22337000.754
 121067030.010 7  94337976.89044  23038292.211                    23038301.355
 125622354.650 6  97887593.09843  23905138.602                    23905150.496
 110319237.965 8  85963078.72545  20993052.711                    20993062.258
 111132893.851 8  86597077.97846  21147886.578                    21147894.090
 119193693.502 7  92878225.27545  22681808.328                    22681818.793
 105400205.547 8  82130067.68846  20056993.070                    20057001.684
 106539245.526 8  83017620.01946  20273744.992                    20273752.176
 11  8 23 15 51 30.0000000  0 10G20G08G07G16G10G03G19G06G13G23
 130128779.187 6 101399287.64143  24762733.844                    24762746.961
 127560069.426 6  99397512.88343  24273872.414                    24273883.766
 117325681.324 7  91422650.209 7  22326333.180                    22326342.668
 121156364.812 7  94407588.39144  23055292.039                    23055301.121
 125631640.805 6  97894829.05743  23906905.500                    23906917.734
 110356034.785 8  85991751.56145  21000055.547                    21000065.129
 111095477.638 8  86567922.49846  21140766.477                    21140774.246
 119254748.495 7  92925800.57344  22693426.727                    22693437.301
 105387170.229 8  82119910.30246  20054512.688                    20054521.254
 106582983.056 8  83051701.18746  20282068.055                    20282075.305
 11  8 23 15 52  0.0000000  0 10G20G08G07G16G10G03G19G06G13G23
 130210455.678 6 101462931.57443  24778277.641                    24778289.133
 127494440.947 6  99346373.88643  24261383.508                    24261395.418
 117269694.827 7  91379024.401 7  22315678.977                    22315688.789
 121245735.679 7  94477227.97144  23072298.805                    23072307.883
 125641388.076 6  97902424.34743  23908760.672                    23908772.285
 110393430.070 8  86020890.73345  21007171.719                    21007181.441
 111058615.089 8  86539198.44946  21133751.977                    21133759.625
 119316257.690 7  92973729.79144  22705131.258                    22705142.008
 105374698.456 8  82110192.03746  20052139.359                    20052147.695
 106627272.560 8  83086212.46046  20290496.070                    20290503.137
 11  8 23 15 52 30.0000000  0  9G08G07G16G10G03G19G06G13G23
 127428743.799 7  99295181.37843  24248881.664                    24248894.238
 117213728.033 7  91335413.938 7  22305029.031                    22305038.668
 121335140.358 7  94546893.91644  23089311.773                    23089321.352
 125651594.866 6  97910377.70443  23910702.664                    23910714.809
 110431422.023 8  86050494.83345  21014400.875                    21014410.508
 111022307.768 8  86510907.05846  21126842.711                    21126850.469
 119378218.611 7  93022010.99344  22716922.656                    22716932.285
 105362790.325 8  82100912.97246  20049872.984                    20049881.262
 106672112.836 8  83121152.90546  20299028.898                    20299036.090
 11  8 23 15 53  0.0000000  0  9G08G07G16G10G03G19G06G13G23
 127362978.230 6  99243935.55043  24236367.234                    24236378.816
 117157781.682 7  91291819.411 7  22294382.766                    22294392.793
 121424577.188 7  94616584.88744  23106331.352                    23106340.629
 125662259.761 6  97918688.02543  23912731.398                    23912744.180
 110470009.357 8  86080562.86145  21021743.938                    21021753.754
 110986557.393 8  86483049.63846  21120039.578                    21120047.344
 119440629.702 7  93070643.00644  22728798.703                    22728808.680
 105351447.662 8  82092074.53246  20047714.781                    20047722.750
 106717503.329 8  83156522.09046  20307666.508                    20307673.414
 11  8 23 15 53 30.0000000  0  9G08G07G16G10G03G19G06G13G23
 127297143.883 7  99192636.16343  24223839.016                    24223850.988
 117101856.025 7  91248240.998 7  22283740.617                    22283749.848
 121514044.146 7  94686299.36744  23123356.125                    23123366.113
 125673381.413 6  97927354.21343  23914848.188                    23914860.531
 110509190.878 8  86111093.88545  21029199.820                    21029209.422
 110951366.165 8  86455627.92446  21113342.797                    21113350.879
 119503488.974 7  93119624.21844  22740761.031                    22740771.008
 105340671.871 8  82083677.80946  20045664.273                    20045672.449
 106763442.783 8  83192319.03746  20316408.211                    20316415.043
 11  8 23 15 54  0.0000000  0  9G08G07G16G10G03G19G06G13G23
 127231240.747 7  99141283.14543  24211297.594                    24211309.738
 117045951.938 7  91204679.411 7  22273102.258                    22273112.113
 121603539.607 7  94756036.04044  23140386.430                    23140395.695
 125684958.248 6  97936375.14843  23917051.266                    23917063.809
 110548965.118 8  86142086.78045  21036768.859                    21036778.266
 110916735.821 8  86428643.25746  21106752.648                    21106760.750
 119566794.334 7  93168953.03344  22752807.500                    22752817.180
 105330463.952 8  82075723.58646  20043721.727                    20043730.027
 106809930.409 8  83228543.12846  20325254.961                    20325261.609
 11  8 23 15 54 30.0000000  0  9G08G07G16G10G03G19G06G13G23
 127165268.911 6  99089876.61243  24198743.961                    24198756.086
 116990069.938 7  91161135.017 7  22262468.305                    22262477.629
 121693061.717 7  94825793.48144  23157422.008                    23157431.336
 125696988.884 6  97945749.68543  23919341.000                    23919352.914
 110589330.845 8  86173540.57045  21044450.094                    21044459.434
 110882668.145 8  86402097.03846  21100269.813                    21100277.957
 119630543.850 7  93218627.94044  22764938.992                    22764948.598
 105320825.177 8  82068212.84846  20041887.453                    20041895.969
 106856965.316 8  83265193.67746  20334205.422                    20334212.527
 11  8 23 15 55  0.0000000  0  9G08G07G16G10G03G19G06G13G23
 127099227.755 6  99038416.05543  24186176.594                    24186188.309
 116934210.365 7  91117608.103 7  22251838.602                    22251847.730
 121782608.345 7  94895570.02744  23174462.172                    23174472.305
 125709472.235 6  97955476.94943  23921715.930                    23921728.707
 110630286.520 8  86205454.05945  21052243.961                    21052253.270
 110849164.430 8  86375990.26446  21093894.352                    21093902.332
 119694735.293 7  93268647.19044  22777153.398                    22777163.707
 105311756.180 8  82061146.09146  20040161.617                    20040170.043
 106904545.863 8  83302269.39746  20343259.711                    20343266.785
 11  8 23 15 55 30.0000000  0  9G08G07G16G10G03G19G06G13G23
 127033117.861 6  98986901.95543  24173596.664                    24173608.242
 116878374.390 7  91074099.578 7  22241213.484                    22241222.898
 121872178.336 7  94965364.77444  23191507.133                    23191516.285
 125722407.009 6  97965556.03843  23924177.492                    23924190.145
 110671830.921 8  86237826.31045  21060149.656                    21060159.027
 110816227.038 8  86350324.79146  21087626.625                    21087634.207
 119759367.210 7  93319009.70044  22789453.000                    22789462.563
 105303259.111 8  82054524.99746  20038545.070                    20038553.281
 106952671.899 8  83339770.17346  20352417.727                    20352424.789
 11  8 23 15 56  0.0000000  0  9G08G07G16G10G03G19G06G13G23
 126966939.020 6  98935334.13344  24161003.031                    24161014.930
 116822562.411 7  91030609.751 7  22230592.469                    22230601.980
 121961769.189 7  95035175.79344  23208555.594                    23208565.387
 125735791.184 6  97975985.25243  23926724.945                    23926736.563
 110713962.260 8  86270655.91145  21068166.758                    21068175.879
 110783857.430 8  86325101.75146  21081466.797                    21081474.598
 119824437.247 7  93369713.59344  22801835.281                    22801845.387
 105295334.340 8  82048349.85946  20037036.891                    20037045.273
 107001341.862 8  83377694.78946  20361679.664                    20361686.160
 11  8 23 15 56 30.0000000  0 10G11G08G07G16G10G03G19G06G13G23
 130218087.99416 101468706.52453  24779681.820                    24779695.082
 126900690.857 7  98883712.26143  24148396.453                    24148408.391
 116766774.875 7  90987138.984 7  22219976.266                    22219985.957
 122051379.316 7  95105001.80544  23225608.008                    23225617.891
 125749623.430 6  97986763.61844  23929357.203                    23929369.359
 110756679.047 8  86303941.69945  21076295.414                    21076304.918
 110752057.335 8  86300322.48046  21075415.734                    21075423.332
 119889943.329 7  93420757.23844  22814300.336                    22814311.195
 105287983.065 8  82042621.59446  20035638.039                    20035646.406
 107050554.880 8  83416042.56146  20371044.109                    20371051.375
 11  8 23 15 57  0.0000000  0 10G11G08G07G16G10G03G19G06G13G23
 130145479.720 6 101412128.66943  24765864.648                    24765878.023
 126834374.162 7  98832037.00944  24135776.961                    24135787.957
 116711013.133 7  90943688.312 7  22209365.641                    22209374.941
 122141007.503 7  95174841.87844  23242663.813                    23242673.777
 125763902.805 6  97997890.41543  23932074.531                    23932086.215
 110799980.055 8  86337682.73745  21084535.203                    21084545.098
 110720828.800 8  86275988.57246  21069473.164                    21069480.543
 119955884.052 7  93472139.58144  22826848.391                    22826858.789
 105281207.070 8  82037341.59846  20034348.336                    20034356.762
 107100310.258 8  83454812.95646  20380512.594                    20380519.293
 11  8 23 15 57 30.0000000  0 10G11G08G07G16G10G03G19G06G13G23
 130072711.036 6 101355425.80343  24752017.664                    24752030.512
 126767988.339 6  98780307.89643  24123143.633                    24123155.234
 116655277.378 7  90900257.878 7  22198759.477                    22198768.648
 122230651.747 7  95244694.49944  23259722.750                    23259732.102
 125778627.607 6  98009364.28244  23934876.086                    23934888.031
 110843863.730 8  86371877.78245  21092886.367                    21092895.727
 110690173.063 8  86252101.00546  21063639.492                    21063647.270
 120022256.702 7  93523858.48544  22839478.734                    22839488.922
 105275006.555 8  82032510.02346  20033168.742                    20033176.992
 107150606.300 8  83494004.64446  20390083.594                    20390090.848
 11  8 23 15 58  0.0000000  0 11G11G28G08G07G16G10G03G19G06G13G23
 129999783.930 6 101298599.47443  24738140.219                    24738153.023
 129639620.77816 101017790.73053  24669566.023                    24669577.250
 126701533.319 6  98728524.84143  24110497.203                    24110509.371
 116599567.765 7  90856847.823 7  22188158.195                    22188167.297
 122320309.642 7  95314557.74244  23276783.758                    23276793.621
 125793795.878 6  98021183.70943  23937762.586                    23937774.930
 110888328.066 8  86406525.31345  21101347.711                    21101356.941
 110660091.610 8  86228660.92546  21057915.117                    21057922.422
 120089058.949 7  93575912.13944  22852191.297                    22852201.297
 105269382.351 8  82028127.53046  20032098.398                    20032107.043
 107201441.928 8  83533616.79646  20399757.180                    20399764.148
 11  8 23 15 58 30.0000000  0 11G11G28G08G07G16G10G03G19G06G13G23
 129926700.836 6 101241651.65743  24724232.484                    24724245.563
 129566752.614 6 100961010.41643  24655699.531                    24655711.422
 126635008.803 6  98676687.65043  24097838.359                    24097849.648
 116543885.436 7  90813459.025 7  22177561.945                    22177571.660
 122409979.835 7  95384430.56144  23293847.922                    23293857.195
 125809406.094 7  98033347.49343  23940734.008                    23940745.035
 110933371.382 8  86441623.99145  21109918.789                    21109928.445
 110630586.135 8  86205669.66246  21052300.547                    21052307.910
 120156289.050 7  93628299.17344  22864984.922                    22864994.766
 105264335.896 8  82024195.22246  20031138.203                    20031146.051
 107252815.854 8  83573648.38346  20409533.445                    20409540.637
 11  8 23 15 59  0.0000000  0 11G11G28G08G07G16G10G03G19G06G13G23
 129853463.952 6 101184583.99843  24710296.156                    24710309.078
 129494099.606 6 100904397.71042  24641874.117                    24641885.262
 126568414.910 6  98624796.41143  24085165.602                    24085177.738
 116488230.667 7  90770091.704 7  22166971.609                    22166980.266
 122499660.414 7  95454311.47144  23310913.000                    23310922.668
 125825456.167 7  98045854.03444  23943787.758                    23943799.563
 110978991.947 8  86477172.48245  21118600.641                    21118609.680
 110601657.820 8  86183128.13646  21046795.625                    21046803.348
 120223944.662 7  93681017.78644  22877859.344                    22877869.336
 105259867.653 7  82020713.46846  20030288.016                    20030295.781
 107304726.520 8  83614098.22546  20419411.875                    20419418.707
 11  8 23 15 59 30.0000000  0 11G11G28G08G07G16G10G03G19G06G13G23
 129780075.580 6 101127398.28543  24696330.609                    24696343.152
 129421662.113 6 100847952.97042  24628089.586                    24628101.203
 126501751.866 6  98572851.28643  24072480.258                    24072492.191
 116432604.445 7  90726746.624 7  22156385.922                    22156395.254
 122589349.663 6  95524199.16444  23327980.977                    23327990.234
 125841945.098 7  98058702.54844  23946925.125                    23946937.008
 111025188.456 8  86513169.76545  21127391.148                    21127400.922
 110573308.699 8  86161037.93046  21041400.922                    21041408.449
 120292023.862 7  93734066.50244  22890814.242                    22890824.246
 105255979.088 8  82017683.41746  20029547.953                    20029555.945
 107357173.203 8  83654965.74346  20429391.906                    20429399.168
 11  8 23 16  0  0.0000000  0 11G11G28G08G07G16G10G03G19G06G13G23
 129706537.678 6 101070096.03643  24682336.891                    24682349.379
 129349440.704 6 100791676.64142  24614346.547                    24614357.941
 126435019.285 6  98520851.95143  24059781.680                    24059793.066
 116377007.423 7  90683424.294 7  22145806.352                    22145815.805
 122679045.858 6  95594092.25044  23345048.656                    23345058.590
 125858871.370 7  98071891.85944  23950146.164                    23950158.219
 111071959.228 8  86549614.52645  21136291.578                    21136300.930
 110545539.928 8  86139399.94046  21036116.484                    21036124.145
 120360524.500 7  93787443.59144  22903849.570                    22903859.688
 105252670.614 8  82015105.38246  20028918.234                    20028926.523
 107410154.400 8  83696249.76146  20439474.547                    20439481.457
 11  8 23 16  0 30.0000000  0 11G11G28G08G07G16G10G03G19G06G13G23
 129632852.817 6 101012679.30143  24668314.922                    24668327.945
 129277436.058 6 100735569.16843  24600644.773                    24600656.074
 126368217.682 7  98468798.85543  24047069.539                    24047080.824
 116321440.864 7  90640125.713 7  22135232.156                    22135241.828
 122768747.567 6  95663989.63644  23362118.805                    23362128.500
 125876233.085 7  98085420.45144  23953450.711                    23953462.250
 111119302.538 8  86586505.40945  21145300.742                    21145309.965
 110518353.085 8  86118215.39846  21030943.477                    21030950.523
 120429444.388 7  93841147.36444  22916964.414                    22916974.738
 105249943.297 7  82012980.19946  20028399.227                    20028407.742
 107463669.086 8  83737949.48646  20449657.633                    20449664.832
 11  8 23 16  1  0.0000000  0 11G11G28G08G07G16G10G03G19G06G13G23
 129559023.412 6 100955149.91943  24654266.141                    24654278.969
 129205648.321 6 100679630.73243  24586983.766                    24586995.367
 126301347.260 6  98416692.11043  24034344.258                    24034355.488
 116265904.590 7  90596850.720 7  22124663.984                    22124673.465
 122858452.775 6  95733889.73544  23379188.953                    23379199.266
 125894028.608 7  98099287.08444  23956836.445                    23956848.379
 111167216.603 8  86623841.03145  21154418.352                    21154427.711
 110491749.654 8  86097485.47446  21025880.805                    21025888.125
 120498781.365 7  93895176.14344  22930158.641                    22930169.301
 105247798.239 8  82011308.72546  20027991.109                    20027999.508
 107517716.068 8  83780063.98746  20459942.594                    20459949.676
 11  8 23 16  1 30.0000000  0 11G11G28G08G07G16G10G03G19G06G13G23
 129485051.474 6 100897509.41542  24640189.836                    24640201.840
 129134078.004 6 100623861.69543  24573363.898                    24573375.828
 126234407.850 6  98364531.60543  24021606.227                    24021618.133
 116210399.708 7  90553600.181 7  22114101.992                    22114111.340
 122948160.044 7  95803791.45044  23396260.063                    23396269.637
 125912256.310 7  98113490.48944  23960304.938                    23960316.914
 111215699.896 8  86661620.21645  21163644.336                    21163653.723
 110465731.228 8  86077211.39246  21020929.633                    21020936.922
 120568533.335 7  93949528.30044  22943432.055                    22943442.793
 105246236.249 8  82010091.58946  20027693.773                    20027702.086
 107572293.975 8  83822592.19446  20470328.172                    20470335.512
 11  8 23 16  2  0.0000000  0 11G11G28G08G07G16G10G03G19G06G13G23
 129410939.017 6 100839759.46842  24626086.539                    24626098.465
 129062725.457 6 100568262.40643  24559786.008                    24559797.762
 126167399.331 6  98312317.29343  24008855.156                    24008866.438
 116154927.091 7  90510374.798 7  22103545.750                    22103555.000
 123037867.595 7  95873693.38443  23413331.094                    23413339.926
 125930914.492 7  98128029.30443  23963855.852                    23963867.305
 111264750.322 8  86699841.32045  21172978.344                    21172987.973
 110440298.932 8  86057394.02646  21016089.703                    21016097.516
 120638698.263 7  94004202.23344  22956784.328                    22956794.586
 105245257.834 8  82009329.18646  20027508.039                    20027516.234
 107627401.216 8  83865532.86746  20480814.648                    20480822.313
 11  8 23 16  2 30.0000000  0 11G11G28G08G07G16G10G03G19G06G13G23
 129336688.790 6 100781902.22243  24611957.086                    24611969.273
 128991591.156 6 100512833.12443  24546249.664                    24546261.313
 126100321.676 6  98260049.08943  23996089.703                    23996101.934
 116099487.254 7  90467174.955 7  22092995.820                    22093004.746
 123127573.779 7  95943594.26444  23430401.766                    23430410.480
 125950001.564 7  98142902.35643  23967488.094                    23967500.262
 111314366.415 8  86738503.19145  21182420.234                    21182429.535
 110415454.178 8  86038034.49846  21011362.313                    21011369.461
 120709273.594 7  94059195.95244  22970214.336                    22970224.906
 105244864.068 7  82009022.34046  20027432.961                    20027441.246
 107683036.425 8  83908884.94546  20491401.664                    20491409.023
 11  8 23 16  3  0.0000000  0 11G11G28G08G07G16G10G03G19G06G13G23
 129262302.780 6 100723939.15642  24597802.195                    24597814.465
 128920675.205 6 100457574.03143  24532754.813                    24532766.480
 126033174.611 6  98207726.79243  23983312.539                    23983324.332
 116044080.842 7  90424001.158 7  22082452.273                    22082461.645
 123217276.769 7  96013492.63244  23447471.539                    23447480.801
 125969515.805 6  98158108.23443  23971201.086                    23971212.926
 111364545.826 8  86777604.02645  21191968.648                    21191978.082
 110391198.330 8  86019133.85046  21006746.508                    21006753.574
 120780257.204 7  94114507.82144  22983721.961                    22983732.555
 105245054.828 8  82009170.97146  20027469.008                    20027477.023
 107739198.288 8  83952647.40046  20502089.086                    20502096.426
 11  8 23 16  3 30.0000000  0 11G11G28G08G07G16G10G03G19G06G13G23
 129187783.618 6 100665872.32842  24583621.008                    24583633.359
 128849978.309 6 100402485.61143  24519301.844                    24519312.957
 125965958.515 6  98155350.72343  23970521.445                    23970532.797
 115988708.914 7  90380854.239 7  22071915.414                    22071924.691
 123306975.209 6  96083387.45944  23464540.680                    23464550.281
 125989455.506 6  98173645.66943  23974995.578                    23975007.148
 111415287.132 8  86817142.68645  21201624.969                    21201634.309
 110367532.727 8  86000693.14746  21002243.047                    21002250.328
 120851647.165 7  94170136.32144  22997307.258                    22997317.547
 105245831.877 8  82009776.45346  20027616.602                    20027625.230
 107795885.508 8  83996819.23246  20512876.336                    20512883.570
 11  8 23 16  4  0.0000000  0 11G11G28G08G07G16G10G03G19G06G13G23
 129113133.248 6 100607703.26043  24569415.789                    24569427.961
 128779500.794 6 100347568.16443  24505889.977                    24505901.422
 125898673.771 7  98102921.15043  23957717.680                    23957728.660
 115933372.158 7  90337734.725 7  22061385.336                    22061394.578
 123396667.298 6  96153277.33544  23481608.734                    23481617.973
 126009818.858 6  98189513.20943  23978870.789                    23978882.641
 111466588.458 8  86857117.72445  21211387.164                    21211396.793
 110344458.608 8  85982713.33046  20997852.266                    20997859.207
 120923440.883 7  94226079.45244  23010969.883                    23010979.480
 105247195.520 8  82010839.02846  20027876.508                    20027884.805
 107853096.426 8  84041399.12346  20523762.969                    20523770.066
 11  8 23 16  4 30.0000000  0 11G11G28G08G07G16G10G03G19G06G13G23
 129038354.111 6 100549433.84342  24555185.344                    24555197.664
 128709242.917 6 100292821.85443  24492520.344                    24492531.906
 125831320.210 7  98050437.92243  23944900.055                    23944911.543
 115878071.270 7  90294643.149 7  22050861.797                    22050870.957
 123486351.585 7  96223161.12644  23498674.977                    23498684.492
 126030603.812 6  98205709.24343  23982826.031                    23982837.426
 111518447.540 7  86897527.36545  21221255.617                    21221264.820
 110321977.373 8  85965195.51046  20993574.109                    20993581.770
 120995636.196 7  94282335.51944  23024707.203                    23024717.734
 105249146.082 7  82012358.93046  20028247.563                    20028255.898
 107910829.730 8  84086386.08046  20534749.617                    20534756.840
 11  8 23 16  5  0.0000000  0 11G11G28G08G07G16G10G03G19G06G13G23
 128963448.823 6 100491066.18943  24540931.242                    24540943.746
 128639205.355 6 100238247.19143  24479192.898                    24479203.617
 125763898.072 7  97997901.26643  23932071.109                    23932081.629
 115822807.317 7  90251580.359 7  22040345.383                    22040354.852
 123576026.160 7  96293037.35244  23515739.648                    23515748.895
 126051808.796 6  98222232.60243  23986861.430                    23986872.664
 111570863.393 8  86938370.86045  21231230.008                    21231239.313
 110300090.286 8  85948140.65546  20989409.156                    20989416.711
 121068231.409 7  94338903.18544  23038521.922                    23038531.832
 105251685.210 7  82014337.46246  20028730.844                    20028738.793
 107969084.165 8  84131779.10946  20545835.109                    20545842.551
 11  8 23 16  5 30.0000000  0 11G11G28G08G07G16G10G03G19G06G13G23
 128888419.813 6 100432602.09943  24526654.453                    24526666.586
 128569388.212 6 100183844.26143  24465907.102                    24465917.863
 125696407.664 7  97945311.42243  23919227.500                    23919238.832
 115767581.186 8  90208547.046 7  22029836.094                    22029845.219
 123665689.710 7  96362904.99044  23532801.789                    23532811.012
 126073431.963 6  98239081.80743  23990975.563                    23990987.527
 111623833.429 8  86979646.17945  21241309.859                    21241319.508
 110278798.507 8  85931549.67546  20985357.375                    20985365.082
 121141223.876 7  94395780.40344  23052411.797                    23052422.297
 105254812.983 8  82016774.67446  20029326.156                    20029334.332
 108027858.501 8  84177577.25546  20557019.289                    20557026.727
 11  8 23 16  6  0.0000000  0 11G11G28G08G07G16G10G03G19G06G13G23
 128813269.171 6 100374043.23343  24512353.430                    24512365.883
 128499791.608 7 100129613.22943  24452662.758                    24452673.957
 125628848.456 7  97892667.96643  23906371.797                    23906382.277
 115712393.276 8  90165543.505 7  22019334.273                    22019343.449
 123755340.543 7  96432762.72644  23549861.813                    23549871.133
 126095471.443 6  98256255.39543  23995169.781                    23995181.891
 111677355.910 8  87021351.96945  21251494.984                    21251504.125
 110258102.866 8  85915423.22546  20981419.383                    20981426.359
 121214611.261 7  94452965.33844  23066377.227                    23066387.281
 105258529.728 8  82019670.81946  20030033.250                    20030041.590
 108087150.555 8  84223778.82946  20568302.242                    20568309.590
 11  8 23 16  6 30.0000000  0 11G11G28G08G07G16G10G03G19G06G13G23
 128737999.316 6 100315391.47343  24498029.898                    24498042.406
 128430416.184 6 100075554.52443  24439461.367                    24439472.941
 125561220.794 7  97839971.17143  23893502.313                    23893513.156
 115657244.643 7  90122570.576 7  22008839.875                    22008849.117
 123844977.193 7  96502609.38644  23566919.156                    23566929.258
 126117925.711 6  98273752.22143  23999442.891                    23999454.277
 111731428.729 7  87063486.59445  21261784.844                    21261793.801
 110238005.067 8  85899762.62546  20977594.539                    20977601.973
 121288391.322 7  94510456.26044  23080416.563                    23080426.824
 105262836.350 8  82023026.61646  20030852.523                    20030861.070
 108146958.688 8  84270382.52646  20579683.703                    20579690.984
 11  8 23 16  7  0.0000000  0 11G11G28G08G07G16G10G03G19G06G13G23
 128662612.514 6 100256648.60643  24483683.828                    24483697.047
 128361262.147 6 100021668.34443  24426301.617                    24426312.949
 125493525.135 7  97787221.38843  23880620.070                    23880631.258
 115602136.112 8  90079628.895 7  21998353.125                    21998362.371
 123934597.943 7  96572443.66644  23583973.633                    23583983.664
 126140792.809 6  98291570.73043  24003794.367                    24003806.230
 111786050.103 7  87106048.68145  21272178.602                    21272188.527
 110218506.116 8  85884568.64946  20973883.734                    20973891.309
 121362562.060 7  94568251.61144  23094531.578                    23094542.047
 105267733.423 8  82026842.50346  20031784.789                    20031793.266
 108207281.791 8  84317387.50046  20591162.867                    20591170.020
 11  8 23 16  7 30.0000000  0 11G11G28G08G07G16G10G03G19G06G13G23
 128587111.394 6 100197816.61843  24469316.016                    24469329.152
 128292329.874 6  99967954.98043  24413184.031                    24413195.289
 125425761.403 6  97734418.55243  23867724.797                    23867735.891
 115547068.659 7  90036719.223 7  21987873.734                    21987883.164
 124024201.636 6  96642264.66843  23601024.703                    23601034.270
 126164070.794 6  98309709.42543  24008224.484                    24008235.535
 111841218.022 7  87149036.63745  21282676.734                    21282686.266
 110199607.042 8  85869842.10946  20970287.203                    20970295.137
 121437120.863 7  94626349.35144  23108719.172                    23108729.539
 105273221.514 8  82031118.91946  20032828.930                    20032837.242
 108268118.416 8  84364792.62746  20602739.766                    20602747.234
 11  8 23 16  8  0.0000000  0 11G11G28G08G07G16G10G03G19G06G13G23
 128511498.230 6 100138897.34843  24454927.945                    24454940.309
 128223619.688 6  99914414.61042  24400109.031                    24400120.438
 125357930.019 7  97681562.99144  23854817.594                    23854828.387
 115492043.290 7  89993842.342 7  21977402.766                    21977412.414
 124113786.400 6  96712070.92444  23618072.148                    23618081.836
 126187757.719 6  98328166.75644  24012731.891                    24012743.258
 111896930.591 7  87192449.01045  21293278.367                    21293288.039
 110181308.764 8  85855583.72546  20966805.656                    20966813.160
 121512065.668 7  94684747.88644  23122980.781                    23122991.293
 105279301.096 8  82035856.24346  20033985.688                    20033994.137
 108329467.109 8  84412596.77246  20614413.727                    20614420.820
 11  8 23 16  8 30.0000000  0 11G11G28G08G07G16G10G03G19G06G13G23
 128435775.530 6 100079892.71443  24440518.344                    24440531.285
 128155131.851 6  99861047.52643  24387076.719                    24387086.957
 125290030.912 7  97628654.68843  23841896.172                    23841907.672
 115437060.676 7  89950998.776 7  21966940.063                    21966948.965
 124203350.973 6  96781861.41543  23635115.672                    23635125.402
 126211851.519 7  98346941.15744  24017316.875                    24017328.570
 111953185.970 7  87236284.33745  21303983.375                    21303993.246
 110163612.547 8  85841794.47246  20963438.055                    20963445.410
 121587394.358 6  94743445.51744  23137315.367                    23137325.855
 105285972.778 8  82041054.94746  20035255.438                    20035264.074
 108391326.041 8  84460798.49746  20626185.375                    20626192.309
 11  8 23 16  9  0.0000000  0 11G11G28G08G07G16G10G03G19G06G13G23
 128359945.793 6 100020804.68943  24426087.930                    24426100.750
 128086866.464 6  99807853.81542  24374084.875                    24374096.336
 125222064.634 7  97575694.01644  23828961.977                    23828973.398
 115382121.490 7  89908189.050 7  21956485.086                    21956494.441
 124292893.419 6  96851634.67443  23652155.055                    23652164.539
 126236350.310 7  98366031.11144  24021978.469                    24021989.797
 112009981.407 7  87280540.49345  21314791.602                    21314801.172
 110146519.240 8  85828475.02546  20960185.391                    20960192.664
 121663104.070 7  94802440.09144  23151722.203                    23151733.172
 105293236.646 8  82046715.09146  20036637.680                    20036646.242
 108453693.400 8  84509396.40946  20638053.578                    20638060.426
 11  8 23 16  9 30.0000000  0 11G11G28G08G07G16G10G03G19G06G13G23
 128284011.407 6  99961635.13843  24411638.500                    24411650.449
 128018823.842 6  99754833.62442  24361136.977                    24361147.984
 125154031.033 7  97522680.88144  23816016.586                    23816027.160
 115327226.845 7  89865414.025 7  21946039.250                    21946048.586
 124382412.512 6  96921389.76243  23669189.828                    23669199.477
 126261252.553 6  98385435.46144  24026717.250                    24026728.742
 112067314.909 7  87325215.92145  21325701.594                    21325711.695
 110130030.093 8  85815626.34346  20957047.344                    20957054.906
 121739192.737 6  94861729.89944  23166201.391                    23166212.555
 105301093.469 8  82052837.27546  20038132.977                    20038141.117
 108516567.681 8  84558389.31346  20650017.797                    20650024.828
 11  8 23 16 10  0.0000000  0 11G11G28G08G07G16G10G03G19G06G13G23
 128207974.604 6  99902385.78143  24397168.219                    24397181.445
 127951004.222 6  99701987.21342  24348231.563                    24348242.945
 125085930.316 7  97469615.45644  23803056.469                    23803068.172
 115272377.547 7  89822674.349 7  21935601.398                    21935610.711
 124471907.025 6  96991125.69743  23686220.375                    23686229.875
 126286556.122 6  98405152.52144  24031532.195                    24031543.887
 112125184.678 7  87370309.22945  21336714.094                    21336723.438
 110114145.811 8  85803248.99346  20954024.641                    20954032.359
 121815658.066 7  94921313.22244  23180752.555                    23180762.984
 105309543.616 8  82059421.79746  20039741.055                    20039749.281
 108579947.072 8  84607775.81646  20662078.516                    20662085.691
 11  8 23 16 10 30.0000000  0 11G11G28G08G07G16G10G03G19G06G13G23
 128131837.974 6  99843058.57643  24382680.328                    24382692.758
 127883407.826 6  99649314.76342  24335368.211                    24335380.184
 125017762.277 7  97416497.56044  23790085.125                    23790096.281
 115217574.430 7  89779970.628 7  21925172.984                    21925182.289
 124561374.943 6  97060840.90443  23703245.305                    23703255.078
 126312258.751 7  98425180.55344  24036423.727                    24036435.148
 112183588.715 7  87415818.84945  21347827.500                    21347837.352
 110098867.204 8  85791343.59446  20951117.484                    20951124.914
 121892497.806 7  94981188.30144  23195375.164                    23195385.234
 105318587.129 8  82066468.68146  20041461.828                    20041470.387
 108643829.690 8  84657554.44446  20674235.477                    20674242.543
 11  8 23 16 11  0.0000000  0 11G11G28G08G07G16G10G03G19G06G13G23
 128055603.907 6  99783655.50642  24368173.305                    24368185.891
 127816034.827 6  99596816.40343  24322547.406                    24322559.184
 124949527.700 7  97363327.81244  23777099.742                    23777111.539
 115162818.505 8  89737303.706 7  21914753.109                    21914762.461
 124650815.032 7  97130534.42343  23720265.625                    23720274.992
 126338358.617 6  98445518.10844  24041389.844                    24041401.445
 112242524.788 7  87461743.04945  21359042.836                    21359052.516
 110084195.534 8  85779911.13846  20948325.555                    20948333.164
 121969709.196 7  95041352.97344  23210067.867                    23210078.160
 105328224.392 8  82073978.21946  20043295.906                    20043304.223
 108708214.065 8  84707724.05146  20686487.273                    20686494.090
 11  8 23 16 11 30.0000000  0 11G11G28G08G07G16G10G03G19G06G13G23
 127979274.941 6  99724178.48342  24353648.563                    24353661.168
 127748885.706 6  99544492.43643  24309769.469                    24309780.977
 124881226.529 6  97310106.17943  23764102.617                    23764114.504
 115108111.012 7  89694674.508 7  21904342.914                    21904352.129
 124740225.923 6  97200205.18543  23737279.852                    23737289.184
 126364853.795 6  98466163.70043  24046431.766                    24046443.465
 112301990.737 7  87508080.15145  21370358.820                    21370368.570
 110070131.749 8  85768952.35746  20945649.219                    20945656.723
 122047290.294 7  95101805.73144  23224831.336                    23224841.465
 105338455.860 8  82081950.78646  20045242.727                    20045251.422
 108773098.849 8  84758283.59546  20698834.477                    20698841.355
 11  8 23 16 12  0.0000000  0 11G11G28G08G07G16G10G03G19G06G13G23
 127902853.597 6  99664629.46043  24339106.406                    24339118.543
 127681960.460 6  99492342.95243  24297034.563                    24297045.637
 124812859.036 7  97256832.85544  23751092.844                    23751104.266
 115053452.665 7  89652083.612 7  21893941.703                    21893950.473
 124829606.110 7  97269852.00943  23754288.625                    23754297.633
 126391742.338 6  98487115.82544  24051548.375                    24051560.434
 112361984.404 8  87554828.45845  21381775.508                    21381785.105
 110056676.223 8  85758467.54546  20943088.742                    20943096.375
 122125238.470 7  95162544.50444  23239664.516                    23239674.859
 105349281.943 8  82090386.68146  20047302.891                    20047311.176
 108838481.855 8  84809231.35246  20711276.516                    20711283.613
 11  8 23 16 12 30.0000000  0 11G11G28G08G07G16G10G03G19G06G13G23
 127826342.160 6  99605010.22943  24324546.641                    24324558.063
 127615259.288 7  99440368.09543  24284341.094                    24284352.629
 124744425.447 6  97203508.04744  23738070.391                    23738081.391
 114998844.198 7  89609531.590 7  21883550.141                    21883558.797
 124918954.011 7  97339473.71444  23771291.039                    23771300.430
 126419022.151 6  98508372.79743  24056740.070                    24056751.180
 112422503.420 7  87601986.11245  21393291.758                    21393301.273
 110043830.058 8  85748457.57146  20940644.258                    20940651.758
 122203551.581 7  95223567.65544  23254566.586                    23254577.012
 105360702.711 8  82099285.97046  20049476.281                    20049484.957
 108904361.306 8  84860565.95446  20723812.742                    20723819.738
 11  8 23 16 13  0.0000000  0 11G11G28G08G07G16G10G03G19G06G13G23
 127749743.353 6  99545322.93943  24309969.758                    24309982.457
 127548781.990 7  99388567.65144  24271691.195                    24271702.516
 124675926.281 6  97150132.14944  23725035.461                    23725046.609
 114944286.581 8  89567019.192 7  21873168.156                    21873176.852
 125008268.371 7  97409069.27343  23788286.883                    23788296.504
 126446691.190 6  98529933.09943  24062004.922                    24062016.691
 112483545.859 7  87649551.63845  21404908.039                    21404917.625
 110031593.879 8  85738922.91546  20938315.602                    20938323.180
 122282227.179 7  95284873.27044  23269538.719                    23269548.180
 105372718.555 8  82108648.96246  20051762.758                    20051771.332
 108970735.356 8  84912285.95946  20736443.688                    20736450.625
 11  8 23 16 13 30.0000000  0 11G11G28G08G07G16G10G03G19G06G13G23
 127673059.480 6  99485569.31843  24295377.586                    24295389.902
 127482529.279 7  99336942.18843  24259083.297                    24259094.785
 124607361.466 6  97096705.08844  23711987.938                    23711999.277
 114889781.062 7  89524547.398 7  21862795.781                    21862805.098
 125097547.742 7  97478637.57743  23805276.570                    23805285.719
 126474747.183 6  98551794.91043  24067343.750                    24067355.676
 112545109.037 7  87697522.93045  21416622.805                    21416632.512
 110019968.338 8  85729864.07546  20936103.266                    20936110.742
 122361263.183 7  95346459.71744  23284578.281                    23284588.691
 105385329.578 8  82118475.72146  20054162.344                    20054170.793
 109037602.168 8  84964389.93846  20749167.750                    20749174.949
 11  8 23 16 14  0.0000000  0 11G11G28G08G07G16G10G03G19G06G13G23
 127596293.458 7  99425751.71243  24280769.875                    24280781.520
 127416501.653 7  99285492.14244  24246519.555                    24246529.770
 124538731.548 6  97043227.30644  23698928.500                    23698939.352
 114835328.915 7  89482117.189 7  21852434.289                    21852442.996
 125186790.637 7  97548177.43843  23822258.766                    23822268.215
 126503188.198 6  98573956.74943  24072756.031                    24072766.961
 112607190.945 7  87745898.41745  21428436.703                    21428445.941
 110008954.919 8  85721282.21346  20934007.453                    20934015.016
 122440656.402 7  95408324.50444  23299686.570                    23299696.770
 105398536.063 8  82128766.47946  20056675.680                    20056683.969
 109104960.447 8  85016876.86846  20761985.438                    20761992.461
 11  8 23 16 14 30.0000000  0 11G11G28G08G07G16G10G03G19G06G13G23
 127519447.375 7  99365871.73643  24266147.391                    24266158.355
 127350698.781 7  99234217.23743  24233997.516                    24234008.535
 124470036.566 7  96989698.82844  23685855.969                    23685866.473
 114780930.775 7  89439729.046 7  21842082.141                    21842091.520
 125275995.859 6  97617687.94643  23839234.242                    23839244.195
 126532012.165 6  98596416.99143  24078240.898                    24078252.172
 112669789.941 7  87794676.84245  21440349.070                    21440358.438
 109998553.981 8  85713177.61046  20932028.398                    20932035.527
 122520405.157 7  95470466.34044  23314862.180                    23314872.582
 105412338.168 8  82139521.36246  20059302.188                    20059310.613
 109172807.935 8  85069745.00246  20774896.500                    20774904.000
 11  8 23 16 15  0.0000000  0 11G11G28G08G07G16G10G03G19G06G13G23
 127442523.799 7  99305931.34943  24251508.273                    24251520.656
 127285120.488 7  99183117.29443  24221517.945                    24221528.785
 124401276.559 7  96936119.68643  23672770.992                    23672782.070
 114726587.060 7  89397383.323 7  21831741.188                    21831750.109
 125365161.814 6  97687167.84443  23856201.930                    23856211.719
 126561217.043 6  98619174.05043  24083798.055                    24083809.941
 112732903.180 7  87843855.96645  21452359.477                    21452369.176
 109988765.536 8  85705550.27646  20930165.523                    20930173.070
 122600506.866 7  95532883.19144  23330104.664                    23330115.379
 105426735.695 8  82150740.21346  20062041.961                    20062050.227
 109241142.463 8  85122992.65446  20787900.391                    20787907.629
 11  8 23 16 15 30.0000000  0 11G11G28G08G07G16G10G03G19G06G13G23
 127365525.314 6  99245932.62343  24236855.758                    24236868.488
 127219767.083 6  99132192.59743  24209081.586                    24209092.703
 124332452.395 7  96882490.53744  23659674.352                    23659684.910
 114672299.604 7  89355081.445 7  21821410.594                    21821419.891
 125454287.424 6  97756616.30943  23873161.406                    23873171.301
 126590800.834 7  98642226.36843  24089427.531                    24089439.695
 112796528.470 7  87893434.09345  21464466.656                    21464476.617
 109979590.642 8  85698401.04146  20928419.875                    20928427.129
 122680958.927 7  95595573.07444  23345414.563                    23345424.773
 105441729.027 8  82162423.32746  20064895.000                    20064903.512
 109309962.317 8  85176618.46946  20800996.484                    20801004.316
 11  8 23 16 16  0.0000000  0 11G11G28G08G07G16G10G03G19G06G13G23
 127288454.538 6  99185877.52743  24222189.430                    24222201.605
 127154639.066 6  99081443.54843  24196688.117                    24196699.016
 124263563.876 7  96828811.24244  23646565.039                    23646575.941
 114618068.964 7  89312823.830 7  21811090.430                    21811099.902
 125543371.016 6  97826032.03643  23890113.461                    23890123.629
 126620761.252 6  98665572.16543  24095129.422                    24095140.645
 112860663.341 7  87943409.28745  21476671.344                    21476680.633
 109971030.078 8  85691730.48546  20926790.977                    20926798.195
 122761759.093 7  95658534.19044  23360790.250                    23360800.656
 105457318.137 8  82174570.68146  20067861.453                    20067869.594
 109379265.757 8  85230621.11546  20814184.422                    20814191.637
 11  8 23 16 16 30.0000000  0 11G11G28G08G07G16G10G03G19G06G13G23
 127211314.135 6  99125768.20843  24207510.164                    24207522.145
 127089736.227 6  99030869.95143  24184337.430                    24184348.223
 124194611.701 7  96775082.34343  23633444.375                    23633454.223
 114563896.473 8  89270611.532 7  21800782.078                    21800791.078
 125632411.628 6  97895414.27043  23907057.648                    23907067.746
 126651096.111 6  98689209.72343  24100902.023                    24100913.344
 112925305.979 7  87993780.14845  21488972.148                    21488981.703
 109963084.433 8  85685539.08246  20925278.664                    20925286.391
 122842904.739 6  95721764.50444  23376231.672                    23376241.777
 105473503.270 8  82187182.46646  20070941.258                    20070950.000
 109449050.862 8  85284999.08046  20827463.633                    20827471.379
 11  8 23 16 17  0.0000000  0 11G11G28G08G07G16G10G03G19G06G13G23
 127134106.784 6  99065606.71343  24192818.023                    24192830.051
 127025058.769 6  98980472.01243  24172029.359                    24172040.469
 124125596.210 7  96721304.11144  23620311.195                    23620321.719
 114509783.262 8  89228445.411 7  21790484.586                    21790493.535
 125721407.717 6  97964761.76743  23923992.938                    23924003.305
 126681803.292 6  98713137.41243  24106745.461                    24106756.617
 112990453.857 7  88044544.70245  21501369.211                    21501379.055
 109955754.112 8  85679827.16546  20923883.680                    20923891.086
 122924393.762 7  95785262.42943  23391738.867                    23391748.863
 105490284.609 8  82200258.82846  20074134.805                    20074143.551
 109519316.011 8  85339751.10646  20840835.195                    20840842.781
 11  8 23 16 17 30.0000000  0 11G11G28G08G07G16G10G03G19G06G13G23
 127056834.837 6  99005394.86143  24178113.445                    24178125.457
 126960606.736 6  98930249.71443  24159763.930                    24159775.324
 124056517.651 7  96667476.73044  23607165.297                    23607176.207
 114455730.303 8  89186326.254 7  21780198.906                    21780208.012
 125810358.337 6  98034073.89244  23940919.484                    23940929.785
 126712880.546 6  98737353.45343  24112659.680                    24112670.973
 113056104.423 7  88095700.94745  21513862.047                    21513871.879
 109949039.917 8  85674595.33646  20922605.945                    20922613.371
 123006223.396 6  95849025.74243  23407310.688                    23407321.094
 105507662.011 8  82213799.65446  20077441.797                    20077450.059
 109590058.845 8  85394875.34346  20854297.008                    20854304.359
 11  8 23 16 18  0.0000000  0 11G11G28G08G07G16G10G03G19G06G13G23
 126979500.700 6  98945134.55543  24163397.172                    24163409.719
 126896380.182 6  98880203.13143  24147542.461                    24147553.410
 123987376.197 6  96613600.34044  23594008.023                    23594019.602
 114401738.464 8  89144254.720 7  21769924.469                    21769933.309
 125899261.791 6  98103349.22843  23957837.461                    23957847.633
 126744325.726 6  98761856.18243  24118642.445                    24118654.324
 113122255.089 7  88147246.89545  21526450.406                    21526460.105
 109942942.146 8  85669843.84446  20921445.563                    20921453.098
 123088391.669 6  95913052.94043  23422945.602                    23422956.559
 105525635.174 8  82227804.70846  20080862.070                    20080870.496
 109661277.458 8  85450370.31746  20867849.555                    20867857.277
 11  8 23 16 18 30.0000000  0 11G11G28G08G07G16G10G03G19G06G13G23
 126902107.300 7  98884828.03943  24148670.063                    24148681.215
 126832379.245 6  98830332.35043  24135363.555                    24135374.539
 123918172.281 7  96559675.27844  23580838.953                    23580850.246
 114347808.795 8  89102231.625 7  21759661.977                    21759670.809
 125988116.556 6  98172586.63443  23974746.234                    23974755.813
 126776136.787 6  98786644.01443  24124696.180                    24124708.246
 113188904.119 7  88199181.16545  21539133.344                    21539142.887
 109937461.018 8  85665572.84646  20920402.641                    20920410.129
 123170895.774 6  95977341.83644  23438646.703                    23438656.426
 105544204.393 8  82242274.22146  20084395.594                    20084404.066
 109732969.744 8  85506234.40546  20881492.148                    20881499.422
 11  8 23 16 19  0.0000000  0 11G11G28G08G07G16G10G03G19G06G13G23
 126824657.131 7  98824477.31543  24133931.219                    24133942.520
 126768603.912 6  98780637.35543  24123227.414                    24123238.660
 123848906.349 7  96505701.86044  23567658.508                    23567668.430
 114293942.609 8  89060258.007 7  21749411.313                    21749420.375
 126076921.657 6  98241785.34243  23991644.867                    23991655.145
 126808311.661 6  98811715.36443  24130818.992                    24130830.367
 113256049.119 7  88251501.91145  21551910.297                    21551920.195
 109932597.306 8  85661782.95446  20919477.031                    20919484.527
 123253733.129 6  96041890.39543  23454410.219                    23454419.910
 105563369.394 8  82257207.97546  20088042.664                    20088051.152
 109805133.824 8  85562466.11446  20895224.570                    20895231.871
 11  8 23 16 19 30.0000000  0 11G11G28G08G07G16G10G03G19G06G13G23
 126747152.559 7  98764084.18142  24119183.008                    24119194.457
 126705054.413 6  98731118.33443  24111133.820                    24111145.152
 123779578.864 7  96451680.51344  23554465.984                    23554476.250
 114240140.895 8  89018334.613 7  21739173.305                    21739182.230
 126165675.771 6  98310944.33943  24008535.047                    24008544.363
 126840847.738 6  98837068.12643  24137010.547                    24137022.395
 113323686.949 7  88304206.68345  21564781.211                    21564791.203
 109928351.340 8  85658474.42546  20918668.977                    20918676.586
 123336901.444 6  96106696.85644  23470236.531                    23470246.777
 105583129.974 8  82272605.81246  20091802.953                    20091810.980
 109877767.443 8  85619063.70046  20909046.336                    20909053.645
 11  8 23 16 20  0.0000000  0 11G11G28G08G07G16G10G03G19G06G13G23
 126669596.622 7  98703650.96443  24104424.867                    24104435.520
 126641730.706 6  98681775.22643  24099084.711                    24099095.020
 123710190.048 7  96397611.35243  23541261.695                    23541271.852
 114186404.604 8  88976462.216 7  21728947.453                    21728956.988
 126254377.573 6  98380062.56943  24025414.258                    24025424.043
 126873742.778 6  98862700.63743  24143269.969                    24143281.520
 113391815.498 7  88357293.82645  21577746.258                    21577755.820
 109924723.417 8  85655647.49146  20917978.734                    20917986.242
 123420398.123 6  96171759.19844  23486125.313                    23486135.922
 105603486.349 8  82288467.92146  20095676.461                    20095684.828
 109950868.982 8  85676025.89946  20922957.195                    20922964.922
 11  8 23 16 20 30.0000000  0 11G11G28G08G07G16G10G03G19G06G13G23
 126591991.732 6  98643179.64843  24089656.586                    24089667.691
 126578632.546 6  98632607.87543  24087077.313                    24087087.828
 123640740.357 7  96343494.76044  23528045.508                    23528055.945
 114132735.112 7  88934641.865 7  21718734.367                    21718743.508
 126343025.916 6  98449139.15343  24042283.438                    24042293.426
 126906994.442 6  98888611.04343  24149597.727                    24149608.402
 113460432.742 7  88410761.76345  21590803.742                    21590813.223
 109921713.879 8  85653302.40546  20917405.938                    20917413.324
 123504220.954 6  96237075.65644  23502076.102                    23502086.688
 105624437.968 8  82304793.83946  20099663.648                    20099672.195
 110024435.915 8  85733350.73646  20936956.430                    20936963.754
 11  8 23 16 21  0.0000000  0 11G11G28G08G07G16G10G03G19G06G13G23
 126514340.403 6  98582672.15143  24074880.469                    24074891.914
 126515759.909 6  98583616.32443  24075113.031                    24075123.027
 123571229.928 7  96289330.85544  23514818.305                    23514828.801
 114079133.113 7  88892874.103 7  21708534.539                    21708543.199
 126431619.401 6  98518172.98543  24059141.875                    24059151.672
 126940600.663 6  98914797.68943  24155992.945                    24156004.191
 113529535.788 7  88464608.26645  21603953.531                    21603963.270
 109919322.946 7  85651439.34446  20916950.953                    20916958.035
 123588367.034 6  96302643.98344  23518088.711                    23518099.578
 105645984.340 8  82321583.20846  20103763.563                    20103772.086
 110098466.226 8  85791036.64446  20951044.023                    20951051.371
 11  8 23 16 21 30.0000000  0 11G11G28G08G07G16G10G03G19G06G13G23
 126436645.495 6  98522130.73143  24060094.625                    24060107.117
 126453113.020 6  98534800.61443  24063191.672                    24063202.418
 123501659.185 7  96235119.94544  23501578.945                    23501589.953
 114025600.218 8  88851160.194 7  21698347.461                    21698356.172
 126520157.112 6  98587163.35843  24075990.438                    24076000.020
 126974559.356 6  98941259.01143  24162454.578                    24162466.148
 113599122.361 7  88518831.53545  21617195.539                    21617205.234
 109917551.079 8  85650058.67746  20916613.930                    20916621.320
 123672834.156 7  96368462.49544  23534162.344                    23534172.688
 105668125.864 8  82338836.33846  20107976.867                    20107985.406
 110172957.549 8  85849081.78246  20965219.016                    20965226.996
 11  8 23 16 22  0.0000000  0 11G11G28G08G07G16G10G03G19G06G13G23
 126358909.506 6  98461557.27643  24045302.328                    24045314.027
 126390692.191 6  98486161.10343  24051312.836                    24051324.207
 123432029.187 7  96180862.84244  23488328.953                    23488339.617
 113972137.582 7  88809501.023 7  21688173.898                    21688182.918
 126608637.786 6  98656109.25843  24092828.258                    24092837.434
 127008868.237 6  98967993.18043  24168983.734                    24168994.973
 113669190.095 7  88573429.71845  21630528.930                    21630538.555
 109916398.872 8  85649160.84346  20916394.852                    20916402.008
 123757620.107 6  96434529.43544  23550296.563                    23550306.906
 105690862.602 8  82356553.26446  20112303.828                    20112312.363
 110247908.529 8  85907485.09746  20979481.828                    20979489.078
 11  8 23 16 22 30.0000000  0 11G11G28G08G07G16G10G03G19G06G13G23
 126281135.308 6  98400954.10043  24030501.516                    24030514.516
 126328496.942 6  98437697.34544  24039477.938                    24039488.313
 123362339.866 7  96126559.54344  23475067.063                    23475078.219
 113918746.092 8  88767897.303 7  21678013.656                    21678022.363
 126697060.111 6  98725009.70243  24109653.797                    24109663.652
 127043524.451 6  98994998.02543  24175577.898                    24175589.566
 113739736.323 7  88628400.76145  21643953.430                    21643963.285
 109915866.127 8  85648745.72246  20916293.211                    20916300.723
 123842722.060 6  96500842.60044  23566490.711                    23566501.957
 105714193.743 8  82374733.36646  20116743.250                    20116751.973
 110323316.634 8  85966244.61246  20993831.695                    20993839.008
 11  8 23 16 23  0.0000000  0 11G11G28G08G07G16G10G03G19G06G13G23
 126203325.505 6  98340323.14343  24015695.164                    24015707.766
 126266527.424 6  98389409.49844  24027685.773                    24027696.125
 123292591.757 7  96072210.44044  23461794.297                    23461804.813
 113865426.786 8  88726349.818 7  21667867.359                    21667876.281
 126785422.801 6  98793863.71443  24126468.477                    24126479.027
 127078526.040 6  99022271.99543  24182238.508                    24182250.668
 113810758.618 8  88683742.76245  21657468.148                    21657478.121
 109915953.101 8  85648813.49046  20916309.547                    20916317.449
 123928137.460 6  96567400.01044  23582744.977                    23582755.926
 105738118.954 8  82393376.37746  20121296.297                    20121304.684
 110399179.788 8  86025358.71146  21008267.750                    21008275.355
 11  8 23 16 23 30.0000000  0 11G11G28G08G07G16G10G03G19G06G13G23
 126125482.600 6  98279666.43743  24000882.781                    24000894.871
 126204783.545 6  98341297.48744  24015935.578                    24015946.715
 123222785.478 7  96017815.97844  23448510.953                    23448521.730
 113812181.055 8  88684859.671 7  21657735.164                    21657743.738
 126873724.799 6  98862670.38343  24143271.797                    24143282.809
 127113870.752 6  99049813.31243  24188964.797                    24188976.141
 113882254.494 8  88739453.78645  21671073.805                    21671083.457
 109916660.472 7  85649364.68446  20916444.336                    20916451.801
 124013863.921 6  96634199.80444  23599058.133                    23599068.855
 105762637.988 8  82412482.09946  20125961.977                    20125970.430
 110475495.893 8  86084825.75246  21022790.500                    21022798.000
 11  8 23 16 24  0.0000000  0 11G11G28G08G07G16G10G03G19G06G13G23
 126047609.501 7  98218986.13443  23986063.844                    23986075.949
 126143265.186 6  98293361.15444  24004229.070                    24004239.656
 123152920.980 7  95963376.16044  23435216.016                    23435226.527
 113759009.793 8  88643427.544 7  21647617.016                    21647625.668
 126961964.560 6  98931428.60543  24160063.109                    24160073.848
 127149556.286 6  99077620.21343  24195755.516                    24195766.957
 113954221.365 8  88795531.83945  21684768.695                    21684778.609
 109917987.491 8  85650398.73546  20916696.547                    20916704.180
 124099898.899 6  96701240.00043  23615429.688                    23615441.000
 105787750.194 8  82432050.04046  20130740.984                    20130748.945
 110552262.384 8  86144643.75246  21037398.344                    21037405.695
 11  8 23 16 24 30.0000000  0 11G11G28G08G07G16G10G03G19G06G13G23
 125969708.764 7  98158284.31444  23971240.063                    23971252.402
 126081972.530 6  98245600.73143  23992565.539                    23992576.195
 123082999.453 7  95908891.93543  23421910.016                    23421920.855
 113705914.870 8  88602054.903 7  21637513.375                    21637522.105
 127050141.616 6  99000137.90643  24176842.656                    24176853.297
 127185580.159 6  99105690.78143  24202610.867                    24202622.027
 114026656.565 7  88851974.84645  21698552.688                    21698562.340
 109919934.862 8  85651916.17546  20917067.211                    20917074.727
 124186239.961 6  96768518.71543  23631860.367                    23631871.133
 105813455.706 8  82452080.30046  20135632.398                    20135640.617
 110629477.170 8  86204811.06846  21052092.250                    21052099.168
 11  8 23 16 25  0.0000000  0 11G11G28G08G07G16G10G03G19G06G13G23
 125891783.279 7  98097563.21744  23956411.117                    23956422.902
 126020905.437 6  98198016.06044  23980945.414                    23980955.848
 123013021.320 7  95854363.59144  23408593.898                    23408605.086
 113652897.182 8  88560742.445 7  21627424.273                    21627432.750
 127138254.683 5  99068797.38943  24193610.695                    24193620.965
 127221940.185 6  99134023.24643  24209529.656                    24209541.332
 114099557.753 7  88908780.93445  21712424.914                    21712434.898
 109922502.777 8  85653917.16546  20917555.867                    20917563.723
 124272884.770 6  96836034.09843  23648348.180                    23648359.664
 105839754.433 8  82472572.80146  20140637.000                    20140645.117
 110707138.468 8  86265326.31746  21066870.563                    21066878.184
 11  8 23 16 25 30.0000000  0 11G11G28G08G07G16G10G03G19G06G13G23
 125813835.298 7  98036824.58343  23941578.195                    23941590.031
 125960063.750 6  98150607.01844  23969366.555                    23969377.547
 122942986.600 7  95799791.14044  23395266.781                    23395277.445
 113599957.581 8  88519490.843 7  21617349.781                    21617358.898
 127226302.277 6  99137405.82743  24210365.469                    24210375.574
 127258633.816 6  99162615.69743  24216511.930                    24216523.387
 114172922.434 7  88965948.19445  21726386.375                    21726395.648
 109925691.034 8  85656401.53746  20918162.898                    20918170.285
 124359830.503 6  96903783.95743  23664893.656                    23664904.355
 105866645.099 8  82493526.56446  20145753.852                    20145762.387
 110785243.731 8  86326187.50146  21081733.805                    21081741.387
 11  8 23 16 26  0.0000000  0 11G11G28G08G07G16G10G03G19G06G13G23
 125735867.923 7  97976070.82143  23926741.273                    23926753.359
 125899447.178 6  98103373.38744  23957832.539                    23957842.609
 122872896.029 7  95745175.18744  23381928.766                    23381939.777
 113547097.426 8  88478301.138 7  21607291.070                    21607299.441
 127314283.395 6  99205962.45743  24227108.070                    24227118.238
 127295658.694 6  99191466.24243  24223558.141                    24223569.547
 114246748.193 7  89023474.74345  21740434.398                    21740444.438
 109929499.676 8  85659369.33546  20918887.516                    20918895.402
 124447074.640 6  96971766.37443  23681495.281                    23681506.035
 105894127.698 8  82514941.56446  20150983.820                    20150992.113
 110863790.699 8  86387392.87446  21096680.648                    21096688.125
 11  8 23 16 26 30.0000000  0 11G11G28G08G07G16G10G03G19G06G13G23
 125657883.842 7  97915304.03543  23911901.164                    23911913.766
 125839055.999 6  98056315.39343  23946340.008                    23946350.102
 122802750.123 7  95690516.10144  23368580.391                    23368591.602
 113494318.262 8  88437174.548 7  21597247.664                    21597256.316
 127402196.872 6  99274466.42443  24243837.703                    24243848.066
 127333012.324 6  99220572.97143  24230666.172                    24230677.074
 114321031.735 7  89081357.99445  21754570.516                    21754580.355
 109933928.742 8  85662820.56746  20919730.453                    20919738.141
 124534614.880 6  97039979.48543  23698154.313                    23698164.707
 105922201.729 8  82536817.42246  20156326.023                    20156334.918
 110942777.137 8  86448940.70045  21111711.234                    21111718.738
 11  8 23 16 27  0.0000000  0 11G11G28G08G07G16G10G03G19G06G13G23
 125579885.785 7  97854526.37743  23897059.203                    23897070.305
 125778889.752 6  98009432.68644  23934890.070                    23934901.320
 122732549.514 7  95635814.38444  23355221.734                    23355233.102
 113441621.133 8  88396111.878 7  21587220.000                    21587228.172
 127490041.702 6  99342916.84343  24260553.523                    24260563.879
 127370692.289 6  99249933.93443  24237836.078                    24237847.250
 114395770.837 7  89139596.24145  21768792.898                    21768802.535
 109938978.336 8  85666755.34046  20920691.266                    20920698.512
 124622448.668 6  97108421.36043  23714868.383                    23714878.641
 105950866.560 8  82559153.64246  20161780.656                    20161789.293
 111022200.930 8  86510829.32046  21126825.047                    21126832.238
 11  8 23 16 27 30.0000000  0 11G11G28G08G07G16G10G03G19G06G13G23
 125501876.312 6  97793739.83843  23882214.344                    23882226.336
 125718948.262 6  97962725.10843  23923484.055                    23923494.746
 122662294.545 7  95581070.32744  23341852.477                    23341863.535
 113389007.134 8  88355113.985 7  21577207.648                    21577216.172
 127577816.752 6  99411312.89243  24277257.109                    24277267.316
 127408696.561 6  99279547.67343  24245068.180                    24245079.711
 114470962.766 7  89198187.34144  21783101.359                    21783111.273
 109944648.122 8  85671173.37646  20921769.992                    20921777.613
 124710573.163 6  97177089.77443  23731637.805                    23731647.980
 105980121.432 8  82581949.64046  20167347.805                    20167356.367
 111102059.548 8  86573056.75446  21142021.711                    21142029.543
 11  8 23 16 28  0.0000000  0 11G11G28G08G07G16G10G03G19G06G13G23
 125423858.295 6  97732946.60243  23867367.352                    23867379.340
 125659231.564 6  97916192.68543  23912119.820                    23912131.066
 122591985.740 7  95526284.30844  23328473.633                    23328483.867
 113336477.583 8  88314181.902 7  21567211.188                    21567220.148
 127665520.895 6  99479653.74443  24293946.648                    24293957.004
 127447022.649 6  99309412.12943  24252361.734                    24252373.078
 114546604.669 7  89257129.07245  21797495.641                    21797505.211
 109950938.276 8  85676074.81946  20922966.797                    20922974.504
 124798986.047 6  97245982.91444  23748462.484                    23748472.746
 106009965.993 8  82605205.12946  20173027.023                    20173035.777
 111182350.870 8  86635621.37346  21157300.781                    21157308.734
 11  8 23 16 28 30.0000000  0 11G11G28G08G07G16G10G03G19G06G13G23
 125345834.295 6  97672148.79843  23852519.500                    23852531.281
 125599739.596 6  97869835.37343  23900799.594                    23900809.563
 122521623.520 7  95471456.67444  23315083.656                    23315094.602
 113284033.277 8  88273316.240 7  21557231.445                    21557240.078
 127753153.088 6  99547938.51843  24310622.063                    24310632.938
 127485667.755 6  99339525.19343  24259715.695                    24259727.121
 114622694.373 7  89316419.73244  21811975.031                    21811984.543
 109957848.446 8  85681459.39046  20924282.031                    20924289.613
 124887684.686 6  97315098.68244  23765341.016                    23765351.793
 106040399.564 8  82628919.59246  20178818.398                    20178826.734
 111263072.088 8  86698520.96346  21172661.383                    21172668.945
 11  8 23 16 29  0.0000000  0 11G11G28G08G07G16G10G03G19G06G13G23
 125267807.429 6  97611348.74143  23837671.578                    23837683.813
 125540472.230 6  97823653.05643  23889520.477                    23889530.984
 122451208.901 7  95416588.20044  23301684.539                    23301695.398
 113231676.366 8  88232518.679 7  21547268.320                    21547277.391
 127840712.342 6  99616166.42144  24327284.438                    24327294.953
 127524629.446 6  99369884.92143  24267129.180                    24267140.902
 114699229.452 7  89376057.43145  21826539.125                    21826549.051
 109965378.468 8  85687326.95946  20925714.672                    20925722.195
 124976666.618 6  97384435.21243  23782273.836                    23782285.086
 106071421.864 8  82653092.79346  20184721.523                    20184730.406
 111344221.354 8  86761754.10145  21188103.906                    21188111.508
 11  8 23 16 29 30.0000000  0 11G11G28G08G07G16G10G03G19G06G13G23
 125189780.360 6  97550548.45243  23822823.578                    23822835.992
 125481429.581 6  97777645.87543  23878285.453                    23878295.762
 122380742.706 7  95361679.53444  23288275.430                    23288285.898
 113179408.216 8  88191790.281 7  21537321.969                    21537331.090
 127928197.748 6  99684336.81943  24343932.797                    24343943.355
 127563905.739 6  99400489.82043  24274603.516                    24274615.754
 114776206.848 7  89436039.78645  21841187.516                    21841197.184
 109973528.642 8  85693677.76546  20927265.734                    20927273.172
 125065929.455 6  97453990.63543  23799260.055                    23799271.262
 106103032.280 8  82677724.27146  20190736.813                    20190745.438
 111425796.560 8  86825319.15145  21203627.305                    21203634.859
 11  8 23 16 30  0.0000000  0 11G11G28G08G07G16G10G03G19G06G13G23
 125111755.737 6  97489750.14043  23807976.445                    23807988.137
 125422611.090 6  97731813.35043  23867091.695                    23867102.887
 122310225.072 7  95306730.79644  23274856.266                    23274866.605
 113127229.595 8  88151131.644 7  21527392.711                    21527401.660
 128015608.212 6  99752448.80643  24360566.070                    24360576.465
 127603493.601 6  99431337.47043  24282136.781                    24282148.520
 114853624.196 7  89496364.97745  21855919.836                    21855929.070
 109982298.406 8  85700511.35746  20928934.695                    20928942.020
 125155470.608 6  97523762.92743  23816299.594                    23816310.023
 106135229.837 8  82702813.27146  20196864.117                    20196872.754
 111507794.801 8  86889213.82545  21219230.969                    21219239.246
 11  8 23 16 30 30.0000000  0 11G11G28G08G07G16G10G03G19G06G13G23
 125033736.399 6  97428955.95343  23793129.141                    23793141.168
 125364016.921 6  97686155.62943  23855942.672                    23855953.063
 122239656.423 7  95251742.29044  23261427.531                    23261437.816
 113075141.688 8  88110543.695 7  21517480.156                    21517489.516
 128102942.460 6  99820501.41743  24377185.453                    24377195.211
 127643390.799 6  99462426.12043  24289728.453                    24289740.785
 114931478.342 7  89557030.51745  21870734.492                    21870744.324
 109991687.474 8  85707827.53246  20930721.461                    20930728.652
 125245287.460 6  97593750.04243  23833390.883                    23833401.719
 106168013.886 8  82728359.26746  20203102.625                    20203111.449
 111590214.033 8  86953436.55446  21234914.984                    21234922.895
 11  8 23 16 31  0.0000000  0 11G11G28G08G07G16G10G03G19G06G13G23
 124955725.184 6  97368168.04943  23778285.055                    23778296.520
 125305646.420 6  97640672.18643  23844834.930                    23844845.121
 122169037.571 7  95196714.65844  23247988.836                    23247999.207
 113023145.964 7  88070027.579 7  21507586.063                    21507595.457
 128190199.620 6  99888493.98143  24393789.523                    24393799.684
 127683594.939 6  99493754.03743  24297379.938                    24297392.273
 115009766.721 7  89618034.42545  21885632.328                    21885642.152
 110001695.686 8  85715626.15446  20932625.750                    20932633.227
 125335377.431 6  97663949.97043  23850534.305                    23850545.492
 106201383.618 8  82754361.63346  20209452.297                    20209461.473
 111673051.596 8  87017985.23946  21250678.320                    21250686.098
 11  8 23 16 31 30.0000000  0 11G11G28G08G07G16G10G03G19G06G13G23
 124877724.972 6  97307388.73743  23763441.328                    23763452.652
 125247499.617 6  97595363.06444  23833769.891                    23833780.305
 122098369.347 7  95141648.58044  23234540.859                    23234551.055
 112971244.236 7  88029584.708 7  21497709.820                    21497719.070
 128277378.935 6  99956425.86043  24410379.563                    24410389.508
 127724103.780 6  99525319.36343  24305088.352                    24305099.945
 115088486.775 7  89679374.67045  21900612.383                    21900622.438
 110012323.075 8  85723907.25046  20934648.156                    20934655.188
 125425738.291 6  97734360.99443  23867729.297                    23867740.469
 106235338.588 8  82780820.03146  20215914.125                    20215922.625
 111756305.289 8  87082858.19345  21266520.992                    21266528.543
 11  8 23 16 32  0.0000000  0 11G11G28G08G07G16G10G03G19G06G13G23
 124799738.331 7  97246619.96543  23748601.570                    23748612.879
 125189576.177 6  97550227.97744  23822747.398                    23822757.773
 122027652.400 7  95086544.54544  23221083.891                    23221094.219
 112919437.421 8  87989215.795 7  21487851.227                    21487860.117
 128364479.220 6 100024296.16442  24426953.891                    24426963.895
 127764914.407 6  99557119.80743  24312854.359                    24312866.215
 115167635.833 7  89741049.25645  21915673.797                    21915683.746
 110023568.755 8  85732670.13646  20936788.031                    20936795.438
 125516367.125 6  97804980.81443  23884975.359                    23884986.363
 106269877.794 8  82807733.68246  20222486.328                    20222495.184
 111839973.001 8  87148053.76145  21282442.695                    21282450.043
 11  8 23 16 32 30.0000000  0 11G11G28G08G07G16G10G03G19G06G13G23
 124721768.161 6  97185864.03243  23733763.570                    23733775.383
 125131876.099 7  97505266.95843  23811767.297                    23811777.289
 121956887.210 7  95031402.90844  23207617.289                    23207628.457
 112867726.714 7  87948921.762 7  21478010.852                    21478019.605
 128451499.358 6 100092104.04642  24443513.031                    24443523.504
 127806024.385 6  99589153.53743  24320677.703                    24320689.293
 115247211.601 7  89803056.30944  21930816.633                    21930826.777
 110035432.814 8  85741914.85946  20939045.539                    20939053.250
 125607261.543 6  97875807.58043  23902272.953                    23902283.352
 106305000.420 8  82835101.93546  20229170.320                    20229178.805
 111924051.809 8  87213569.66045  21298442.273                    21298450.074
 11  8 23 16 33  0.0000000  0 11G11G28G08G07G16G10G03G19G06G13G23
 124643817.203 7  97125123.07743  23718930.211                    23718942.117
 125074398.934 7  97460479.62944  23800829.461                    23800840.254
 121886074.451 7  94976224.19744  23194142.195                    23194152.816
 112816113.427 8  87908703.645 7  21468189.016                    21468198.156
 128538438.351 6 100159848.62942  24460056.680                    24460067.230
 127847430.977 6  99621418.37943  24328556.930                    24328568.070
 115327210.528 7  89865393.10745  21946040.141                    21946050.172
 110047914.409 8  85751640.79246  20941420.945                    20941428.285
 125698418.631 6  97946839.02944  23919619.305                    23919630.121
 106340705.094 8  82862923.73446  20235964.719                    20235973.266
 112008539.313 8  87279404.03545  21314519.664                    21314527.430
 11  8 23 16 33 30.0000000  0 11G11G28G08G07G16G10G03G19G06G13G23
 124565888.398 7  97064399.36343  23704101.078                    23704112.102
 125017144.485 6  97415865.82443  23789934.680                    23789944.922
 121815214.790 7  94921008.93744  23180658.016                    23180668.918
 112764599.388 7  87868562.870 7  21458386.727                    21458395.516
 128625295.516 6 100227529.47642  24476586.258                    24476595.957
 127889132.243 6  99653912.83943  24336492.461                    24336504.367
 115407630.628 7  89928058.07945  21961343.211                    21961353.914
 110061013.335 8  85761847.75646  20943913.313                    20943920.883
 125789836.426 6  98018073.63143  23937014.969                    23937025.902
 106376992.097 8  82891199.30346  20242869.625                    20242878.848
 112093433.200 8  87345555.05745  21330674.586                    21330682.191
 11  8 23 16 34  0.0000000  0 11G11G28G08G07G16G10G03G19G06G13G23
 124487984.533 7  97003695.12043  23689275.961                    23689287.852
 124960112.826 6  97371425.65243  23779081.891                    23779092.340
 121744308.855 7  94865757.63744  23167165.148                    23167176.063
 112713185.564 8  87828500.171 7  21448602.672                    21448611.191
 128712069.797 6 100295145.74042  24493098.563                    24493108.813
 127931125.122 6  99686634.52043  24344483.891                    24344495.680
 115488469.017 7  89991048.99844  21976726.367                    21976736.512
 110074729.271 8  85772535.50646  20946523.500                    20946530.543
 125881512.040 6  98089509.10243  23954460.492                    23954471.602
 106413860.197 8  82919927.68046  20249885.516                    20249894.512
 112178730.936 8  87412020.77646  21346906.102                    21346913.703
 11  8 23 16 34 30.0000000  0 11G11G28G08G07G16G10G03G19G06G13G23
 124410108.842 6  96943012.79544  23674456.898                    23674468.445
 124903303.363 7  97327158.60144  23768270.516                    23768281.648
 121673357.480 7  94810470.90444  23153663.336                    23153673.672
 112661873.345 8  87788516.664 7  21438838.047                    21438847.117
 128798760.358 6 100362696.70142  24509594.781                    24509605.922
 127973407.403 6  99719581.74543  24352529.719                    24352541.324
 115569722.579 7  90054363.40944  21992188.336                    21992198.777
 110089062.012 8  85783703.88146  20949250.461                    20949258.168
 125973442.994 6  98161143.55643  23971954.781                    23971965.398
 106451308.311 8  82949108.00546  20257011.766                    20257020.602
 112264429.595 8  87478798.89345  21363214.086                    21363221.789
 11  8 23 16 35  0.0000000  0 11G11G28G08G07G16G10G03G19G06G13G23
 124332263.805 6  96882354.39444  23659643.992                    23659654.902
 124846715.592 7  97283064.27643  23757503.133                    23757513.047
 121602360.740 7  94755148.84244  23140153.000                    23140163.348
 112610664.161 8  87748613.430 7  21429093.281                    21429102.102
 128885366.114 6 100430181.65442  24526076.352                    24526086.313
 128015976.347 6  99752752.30043  24360630.000                    24360642.051
 115651388.883 7  90117999.44944  22007728.422                    22007739.410
 110104010.543 8  85795352.07746  20952095.477                    20952102.797
 126065626.502 6  98232974.82243  23989496.211                    23989506.605
 106489335.140 8  82978739.27846  20264247.781                    20264256.383
 112350527.381 8  87545888.02445  21379598.203                    21379605.613
 11  8 23 16 35 30.0000000  0 11G11G28G08G07G16G10G03G19G06G13G23
 124254452.034 6  96821721.90644  23644836.047                    23644847.934
 124790349.791 7  97239142.93844  23746776.695                    23746786.988
 121531320.320 7  94699792.73244  23126634.633                    23126645.121
 112559559.884 8  87708791.937 7  21419368.734                    21419377.328
 128971886.369 6 100497599.89542  24542540.453                    24542550.781
 128058829.634 6  99786144.42643  24368784.414                    24368796.531
 115733465.278 7  90181955.05644  22023348.320                    22023358.035
 110119574.905 8  85807480.15146  20955057.453                    20955064.734
 126158060.432 6  98305001.20443  24007085.758                    24007097.297
 106527940.340 8  83008821.22746  20271594.398                    20271603.223
 112437021.898 8  87613286.28046  21396057.555                    21396064.871
 11  8 23 16 36  0.0000000  0 11G11G28G08G07G16G10G03G19G06G13G23
 124176676.519 6  96761117.69343  23630036.141                    23630048.246
 124734205.607 7  97195394.27944  23736092.906                    23736103.109
 121460236.663 7  94644402.91144  23113108.078                    23113118.125
 112508561.406 8  87669052.887 7  21409663.875                    21409672.578
 129058320.265 6 100564950.95943  24558988.055                    24558998.609
 128101964.446 6  99819755.93943  24376993.148                    24377005.094
 115815948.628 7  90246227.73944  22039043.820                    22039054.117
 110135754.305 8  85820087.47246  20958136.227                    20958143.535
 126250742.035 6  98377220.55843  24024722.953                    24024734.566
 106567122.773 8  83039352.97546  20279050.547                    20279059.227
 112523910.298 8  87680991.47245  21412592.102                    21412599.762
 11  8 23 16 36 30.0000000  0 11G11G28G08G07G16G10G03G19G06G13G23
 124098940.234 6  96700544.03443  23615242.625                    23615255.344
 124678282.555 7  97151817.90643  23725451.078                    23725460.887
 121389110.210 7  94588979.76044  23099572.922                    23099583.188
 112457670.151 8  87629397.403 7  21399979.625                    21399988.082
 129144666.436 6 100632233.58343  24575419.773                    24575429.719
 128145378.336 6  99853584.91243  24385254.969                    24385266.262
 115898836.239 7  90310815.46444  22054817.328                    22054827.059
 110152548.006 8  85833173.47746  20961331.656                    20961339.023
 126343668.632 6  98449630.88843  24042406.445                    24042416.793
 106606881.332 8  83070333.65146  20286616.141                    20286625.273
 112611189.766 8  87749001.39345  21429200.336                    21429208.340
 11  8 23 16 37  0.0000000  0 11G11G28G08G07G16G10G03G19G06G13G23
 124021246.151 6  96640003.26143  23600458.625                    23600470.164
 124622580.421 7  97108413.71944  23714850.563                    23714860.766
 121317941.868 7  94533523.96144  23086030.141                    23086040.371
 112406887.754 8  87589826.726 7  21390316.219                    21390324.852
 129230924.219 6 100699447.36043  24591833.758                    24591844.578
 128189068.544 7  99887629.17043  24393568.719                    24393580.246
 115982125.130 7  90375715.85744  22070666.539                    22070676.340
 110169955.513 8  85846737.77746  20964644.586                    20964651.859
 126436837.891 6  98522230.27543  24060135.922                    24060146.770
 106647215.100 8  83101762.54346  20294291.633                    20294300.359
 112698858.223 8  87817314.41645  21445883.750                    21445891.219
 11  8 23 16 37 30.0000000  0 11G11G28G08G07G16G10G03G19G06G13G23
 123943597.074 6  96579497.58943  23585682.180                    23585694.207
 124567098.818 7  97065181.33843  23704292.789                    23704303.289
 121246732.177 7  94478035.94544  23072479.586                    23072489.492
 112356215.414 8  87550341.814 7  21380673.273                    21380682.348
 129317092.733 6 100766591.58743  24608231.180                    24608241.570
 128233032.468 6  99921886.72043  24401934.805                    24401946.508
 116065812.797 7  90440926.99644  22086591.945                    22086602.090
 110187976.125 8  85860779.81546  20968073.555                    20968081.078
 126530247.138 6  98595016.64843  24077910.328                    24077921.906
 106688122.942 8  83133638.75446  20302076.023                    20302084.602
 112786913.125 8  87885928.56345  21462639.664                    21462647.598
 11  8 23 16 38  0.0000000  0 11G11G28G08G07G16G10G03G19G06G13G23
 123865995.753 6  96519029.08143  23570914.719                    23570926.551
 124511837.486 6  97022120.63943  23693777.148                    23693787.090
 121175482.364 7  94422516.66544  23058920.719                    23058931.285
 112305654.704 8  87510943.878 7  21371051.719                    21371060.668
 129403171.391 6 100833665.76243  24624610.805                    24624622.195
 128277267.541 6  99956355.56043  24410353.086                    24410364.246
 116149896.514 7  90506446.74044  22102592.313                    22102602.449
 110206609.180 8  85875299.09946  20971619.406                    20971626.777
 126623893.613 6  98667987.90143  24095731.555                    24095742.309
 106729603.520 8  83165961.26646  20309969.695                    20309978.020
 112875351.318 8  87954841.37645  21479468.773                    21479476.770
 11  8 23 16 38 30.0000000  0 11G11G28G08G07G16G10G03G19G06G13G23
 123788445.088 6  96458600.05343  23556157.570                    23556168.996
 124456795.906 7  96979231.15844  23683302.922                    23683313.492
 121104193.350 7  94366966.82044  23045355.086                    23045364.949
 112255207.101 8  87471634.096 7  21361451.945                    21361460.781
 129489159.123 7 100900669.09543  24640974.484                    24640984.988
 128321771.057 6  99991033.57243  24418821.273                    24418832.793
 116234373.674 7  90572273.06844  22118668.180                    22118677.945
 110225854.225 8  85890295.24846  20975281.555                    20975289.238
 126717774.992 6  98741142.15343  24113596.711                    24113607.809
 106771655.856 8  83198729.29946  20317972.063                    20317980.691
 112964170.526 8  88024051.08745  21496370.648                    21496378.758
 11  8 23 16 39  0.0000000  0 11G11G28G08G07G16G10G03G19G06G13G23
 123710948.179 7  96398212.91743  23541410.852                    23541421.902
 124401973.902 6  96936512.78544  23672870.508                    23672881.211
 121032865.512 7  94311386.74044  23031782.063                    23031791.973
 112204873.903 8  87432413.449 7  21351873.602                    21351882.383
 129575055.014 6 100967600.89243  24657320.406                    24657330.668
 128366540.658 6 100025918.92843  24427340.930                    24427352.516
 116319241.112 7  90638403.50144  22134817.156                    22134827.750
 110245710.628 8  85905767.78946  20979060.094                    20979067.695
 126811888.691 6  98814477.46243  24131505.930                    24131516.566
 106814279.203 8  83231942.28246  20326082.852                    20326091.508
 113053368.680 8  88093556.07545  21513344.477                    21513352.625
 11  8 23 16 39 30.0000000  0 11G11G28G08G07G16G10G03G19G06G13G23
 123633507.624 7  96337869.68943  23526673.867                    23526685.504
 124347371.291 7  96893965.35644  23662480.453                    23662490.605
 120961499.715 7  94255777.08744  23018201.180                    23018211.504
 112154656.657 8  87393283.158 7  21342317.703                    21342326.594
 129660858.362 6 101034460.52943  24673648.219                    24673658.516
 128411573.388 6 100061009.35443  24435910.297                    24435922.469
 116404496.302 7  90704836.09144  22151041.203                    22151051.281
 110266177.134 8  85921715.72646  20982954.766                    20982962.500
 126906232.126 6  98887991.77843  24149457.969                    24149469.934
 106857471.973 8  83265598.96546  20334302.078                    20334310.703
 113142942.490 8  88163353.77645  21530390.063                    21530397.891
 11  8 23 16 40  0.0000000  0 11G11G28G08G07G16G10G03G19G06G13G23
 123556126.443 7  96277572.72043  23511948.266                    23511960.203
 124292987.515 7  96851588.45844  23652131.297                    23652141.645
 120890096.790 7  94200138.49844  23004613.656                    23004623.656
 112104556.885 8  87354244.399 7  21332783.859                    21332792.746
 129746568.385 6 101101247.51843  24689957.961                    24689968.727
 128456867.036 6 100096303.03143  24444529.125                    24444540.875
 116490135.918 7  90771568.22944  22167337.898                    22167348.277
 110287253.097 8  85938138.58446  20986965.352                    20986972.332
 127000802.745 6  98961683.13443  24167454.484                    24167465.688
 106901233.236 8  83299698.62946  20342629.883                    20342638.582
 113232889.752 8  88233442.48245  21547506.594                    21547514.250
 11  8 23 16 40 30.0000000  0 11G11G28G08G07G16G10G03G19G06G13G23
 123478807.576 7  96217324.30244  23497235.594                    23497246.867
 124238822.297 7  96809381.86144  23641823.758                    23641834.223
 120818657.404 7  94144471.47744  22991018.953                    22991029.328
 112054576.221 8  87315298.440 7  21323272.906                    21323281.836
 129832184.449 6 101167961.22343  24706250.430                    24706260.852
 128502418.808 7 100131797.88943  24453197.336                    24453209.574
 116576157.605 7  90838598.07244  22183707.398                    22183717.344
 110308938.126 8  85955036.02646  20991091.914                    20991098.887
 127095598.089 6  99035549.57343  24185493.852                    24185505.363
 106945561.604 8  83334240.19946  20351065.469                    20351074.469
 113323207.764 8  88303820.08145  21564693.227                    21564701.207
 11  8 23 16 41  0.0000000  0 11G11G28G08G07G16G10G03G19G06G13G23
 123401554.044 7  96157126.81243  23482534.539                    23482546.199
 124184875.202 7  96767345.22844  23631558.211                    23631568.230
 120747182.839 7  94088777.06644  22977417.680                    22977428.098
 112004715.981 8  87276446.336 7  21313784.766                    21313793.594
 129917705.351 6 101234600.78342  24722524.773                    24722535.207
 128548226.131 7 100167491.85743  24461914.234                    24461926.246
 116662558.503 7  90905923.41644  22200148.969                    22200158.875
 110331231.232 8  85972407.30146  20995334.273                    20995341.199
 127190615.707 6  99109589.20743  24203574.977                    24203586.605
 106990456.148 8  83369222.94646  20359608.406                    20359617.285
 113413893.783 8  88374484.45145  21581950.273                    21581958.328
 11  8 23 16 41 30.0000000  0 11G11G28G08G07G16G10G03G19G06G13G23
 123324368.655 7  96096982.40344  23467846.609                    23467857.738
 124131145.979 6  96725478.34744  23621333.594                    23621344.246
 120675673.365 7  94033055.45544  22963809.125                    22963820.102
 111954977.696 8  87237689.252 7  21304319.781                    21304328.770
 130003130.575 6 101301165.79243  24738779.945                    24738791.480
 128594286.167 7 100203382.74144  24470679.070                    24470691.352
 116749335.777 7  90973542.03944  22216661.555                    22216672.223
 110354131.670 8  85990251.81746  20999691.883                    20999698.988
 127285852.758 6  99183799.84943  24221697.742                    24221709.738
 107035915.268 8  83404645.61246  20368258.938                    20368267.594
 113504945.057 8  88445433.42345  21599276.781                    21599284.906
 11  8 23 16 42  0.0000000  0 11G11G28G08G07G16G10G03G19G06G13G23
 123247254.370 6  96036893.40944  23453172.555                    23453183.801
 124077633.972 7  96683780.75244  23611150.563                    23611160.965
 120604130.192 7  93977307.56144  22950195.578                    22950206.152
 111905362.591 8  87199028.149 7  21294878.766                    21294887.500
 130088459.287 5 101367655.56642  24755017.539                    24755028.766
 128640596.333 6 100239468.50744  24479492.094                    24479504.027
 116836485.842 7  91041451.12844  22233245.992                    22233256.605
 110377638.271 8  86008568.65846  21004164.922                    21004172.164
 127381306.745 6  99258179.46543  24239862.289                    24239873.215
 107081937.488 8  83440507.05446  20377016.813                    20377025.711
 113596359.113 8  88516665.08645  21616672.758                    21616680.609
 11  8 23 16 42 30.0000000  0 11G11G28G08G07G16G10G03G19G06G13G23
 123170214.078 6  95976862.08344  23438511.875                    23438523.820
 124024338.946 7  96642252.21044  23601009.008                    23601019.195
 120532554.514 7  93921534.34444  22936575.281                    22936585.434
 111855872.740 8  87160464.663 7  21285461.000                    21285469.734
 130173690.815 5 101434069.70842  24771236.469                    24771248.051
 128687154.047 6 100275747.19544  24488352.133                    24488363.602
 116924006.814 7  91109649.25544  22249901.063                    22249911.293
 110401750.424 8  86027357.37246  21008753.453                    21008760.848
 127476975.227 6  99332726.26943  24258067.820                    24258078.918
 107128521.981 8  83476806.64846  20385881.578                    20385890.215
 113688133.507 8  88588177.53045  21634136.938                    21634144.582
 11  8 23 16 43  0.0000000  0 11G11G28G08G07G16G10G03G19G06G13G23
 123093250.275 7  95916890.34344  23423866.047                    23423877.938
 123971260.458 7  96600892.41044  23590908.742                    23590918.711
 120460946.850 7  93865736.20044  22922948.734                    22922958.965
 111806509.352 8  87121999.694 7  21276067.555                    21276076.258
 130258824.440 5 101500407.47542  24787437.570                    24787448.434
 128733956.599 7 100312216.66443  24497257.719                    24497269.949
 117011895.497 7  91178133.90244  22266625.359                    22266636.031
 110426466.848 8  86046616.92346  21013456.820                    21013464.410
 127572855.593 6  99407438.16543  24276312.805                    24276324.477
 107175667.260 8  83513543.20146  20394852.773                    20394861.348
 113780265.542 8  88659968.65145  21651669.055                    21651677.016
 11  8 23 16 43 30.0000000  0 11G11G28G08G07G16G10G03G19G06G13G23
 123016366.541 7  95856981.02944  23409235.266                    23409247.012
 123918398.176 7  96559701.08344  23580849.008                    23580859.121
 120389307.866 7  93809913.66044  22909315.617                    22909326.398
 111757273.778 8  87083634.344 7  21266698.078                    21266706.961
 130343859.262 6                  24803619.406
 128781001.252 7 100348874.79143  24506210.531                    24506222.613
 117100148.744 7  91246902.63244  22283419.508                    22283429.984
 110451786.686 8  86066346.67746  21018275.000                    21018282.391
 127668945.098 7  99482313.01844  24294598.977                    24294609.898
 107223371.893 8  83550715.61646  20403930.867                    20403939.609
 113872752.218 8  88732036.11345  21669268.914                    21669276.730
 11  8 23 16 44  0.0000000  0 11G11G28G08G07G16G10G03G19G06G13G23
 122939565.676 7  95797136.28444  23394620.586                    23394632.480
 123865751.569 6  96518677.79544  23570830.750                    23570840.664
 120317638.512 7  93754067.44744  22895678.156                    22895688.203
 111708167.753 8  87045369.925 7  21257353.648                    21257362.195
 130428794.291 6                  24819781.758
 128828285.545 6 100385719.63243  24515207.836                    24515220.148
 117188764.004 7  91315953.45844  22300282.938                    22300292.605
 110477709.167 8  86086546.02346  21023208.203                    21023215.262
 127765241.214 6  99557348.87443  24312923.344                    24312934.520
 107271634.531 8  83588322.83946  20413114.773                    20413123.836
 113965590.937 7  88804377.90345  21686935.219                    21686943.707
 11  8 23 16 44 30.0000000  0 11G11G28G08G07G16G10G03G19G06G13G23
 122862850.360 7  95737358.19444  23380021.914                    23380033.699
 123813319.948 7  96477822.04043  23560852.797                    23560863.484
 120245940.004 7  93698198.52944  22882034.227                    22882044.395
 111659192.686 8  87007207.561 7  21248034.367                    21248042.785
 130513629.063 6                  24835925.469
 128875806.602 7 100422749.00843  24524251.164                    24524263.324
 117277738.489 7  91385284.17544  22317214.023                    22317224.375
 110504232.657 8  86107213.67946  21028255.141                    21028262.500
 127861741.542 6  99632543.85743  24331286.836                    24331297.801
 107320453.764 8  83626363.76946  20422405.211                    20422413.836
 114058778.931 7  88876991.84545  21704668.117                    21704676.910
 11  8 23 16 45  0.0000000  0 11G11G28G08G07G16G10G03G19G06G13G23
 122786223.864 7  95677649.29243  23365440.289                    23365452.297
 123761103.129 7  96437133.66544  23550916.648                    23550926.449
 120174213.252 7  93642307.58244  22868385.117                    22868395.695
 111610350.531 8  86969148.756 7  21238739.695                    21238748.391
 130598363.084 6                  24852049.195
 128923561.890 6 100459960.85343  24533339.023                    24533350.922
 117367069.398 7  91454892.65644  22334213.047                    22334222.344
 110531357.057 8  86128349.57846  21033416.852                    21033423.563
 127958443.651 6  99707896.07743  24349688.523                    24349700.012
 107369828.197 8  83664837.32146  20431800.508                    20431809.398
 114152313.705 7  88949876.00045  21722467.289                    21722475.633
 11  8 23 16 45 30.0000000  0 11G11G28G08G07G16G10G03G19G06G13G23
 122709689.298 7  95618012.06043  23350876.375                    23350887.563
 123709100.856 7  96396612.44844  23541021.180                    23541030.758
 120102459.262 7  93586395.43944  22854730.680                    22854740.906
 111561643.252 8  86931195.055 7  21229470.953                    21229479.852
 130682995.689 6                  24868154.766
 128971548.707 6 100497353.12143  24542469.930                    24542482.656
 117456753.845 7  91524776.58544  22351279.195                    22351289.383
 110559080.990 8  86149952.63446  21038692.492                    21038699.832
 128055345.088 6  99783403.66343  24368128.531                    24368139.277
 107419756.761 8  83703742.66846  20441301.742                    20441310.832
 114246192.641 8  89023028.32845  21740331.688                    21740340.117
 11  8 23 16 46  0.0000000  0 11G11G28G08G07G16G10G03G19G06G13G23
 122633249.339 7  95558448.54644  23336330.547                    23336341.613
 123657312.758 7  96356258.13144  23531166.180                    23531176.012
 120030678.936 7  93530462.75544  22841071.055                    22841081.391
 111513071.356 8  86893346.842 7  21220228.047                    21220236.742
 130767526.111 6                  24884240.875
 129019763.938 6 100534923.37543  24551645.688                    24551657.516
 117546788.669 7  91594933.57444  22368412.406                    22368422.098
 110587403.157 8  86172021.84646  21044082.141                    21044089.535
 128152443.177 6  99859064.48243  24386604.859                    24386616.707
 107470237.690 8  83743078.42446  20450907.922                    20450917.195
 114340412.932 7  89096446.63945  21758261.578                    21758269.949
 11  8 23 16 46 30.0000000  0 10G11G28G08G07G10G03G19G06G13G23
 122556906.987 7  95498961.06544  23321803.203                    23321814.539
 123605738.109 7  96316070.15044  23521350.891                    23521361.766
 119958873.204 7  93474510.28244  22827407.063                    22827417.598
 111464637.005 8  86855605.814 7  21211010.922                    21211019.918
 129068205.587 6 100572670.06543  24560863.281                    24560875.781
 117637171.200 7  91665361.47644  22385611.516                    22385621.734
 110616322.710 8  86194556.55546  21049585.367                    21049592.598
 128249735.443 6  99934876.54542  24405118.898                    24405130.461
 107521269.463 8  83782843.42146  20460618.820                    20460628.063
 114434971.881 8  89170128.84945  21776255.914                    21776263.910
 11  8 23 16 47  0.0000000  0 10G11G28G08G07G10G03G19G06G13G23
 122480665.173 7  95439551.96144  23307294.352                    23307306.094
 123554376.509 7  96276048.15444  23511577.828                    23511587.805
 119887043.070 7  93418538.78544  22813737.961                    22813748.121
 111416341.754 8  86817973.171 7  21201821.055                    21201829.652
 129116870.578 6 100610590.74642  24570123.695                    24570136.512
 117727898.703 7  91736058.17344  22402876.883                    22402886.563
 110645838.307 8  86217555.70446  21055201.773                    21055209.199
 128347219.413 6 100010838.02042  24423670.188                    24423681.000
 107572850.430 8  83823036.34446  20470434.313                    20470443.230
 114529866.214 8  89244072.40945  21794313.438                    21794322.234
 11  8 23 16 47 30.0000000  0 10G11G28G08G07G10G03G19G06G13G23
 122404526.980 7  95380223.62444  23292805.273                    23292817.039
 123503227.400 7  96236191.75344  23501844.336                    23501854.711
 119815189.787 7  93362549.25744  22800064.797                    22800075.188
 111368187.344 8  86780450.271 7  21192657.453                    21192665.895
 129165756.396 6 100648683.56742  24579426.492                    24579438.621
 117818967.801 7  91807021.08044  22420206.195                    22420216.199
 110675948.873 8  86241018.47646  21060931.750                    21060938.945
 128444892.301 6 100086946.69542  24442256.320                    24442267.570
 107624979.188 8  83863656.13446  20480354.203                    20480363.098
 114625093.902 8  89318275.71545  21812434.773                    21812443.172
 11  8 23 16 48  0.0000000  0 10G11G28G08G07G10G03G19G06G13G23
 122328495.324 6  95320978.30144  23278337.430                    23278349.164
 123452290.334 7  96196500.58344  23492151.563                    23492161.273
 119743314.102 7  93306542.27344  22786387.016                    22786397.805
 111320174.914 8  86743038.006 7  21183520.977                    21183529.633
 129214859.870 6 100686945.96242  24588770.516                    24588782.535
 117910375.977 7  91878248.16344  22437600.266                    22437611.016
 110706653.182 8  86264943.91446  21066774.664                    21066781.590
 128542751.637 6 100163200.68642  24460878.523                    24460889.652
 107677654.009 8  83904701.41546  20490377.594                    20490387.063
 114720652.004 8  89392736.48445  21830619.016                    21830627.488
 11  8 23 16 48 30.0000000  0 10G11G28G08G07G10G03G19G06G13G23
 122252573.112 7  95261818.25044  23263889.992                    23263901.105
 123401564.707 7  96156974.16544  23482498.727                    23482508.543
 119671416.886 7  93250518.49945  22772706.094                    22772716.109
 111272306.347 8  86705737.850 7  21174412.070                    21174420.715
 129264178.491 5 100725375.98142  24598155.844                    24598167.840
 118002120.504 6  91949737.35844  22455059.281                    22455069.484
 110737950.073 8  86289331.09546  21072729.859                    21072737.570
 128640795.012 5 100239598.05942  24479535.242                    24479546.891
 107730873.539 8  83946171.14746  20500505.063                    20500514.270
 114816537.616 8  89467452.46045  21848865.766                    21848873.824
 11  8 23 16 49  0.0000000  0 10G11G28G08G07G10G03G19G06G13G23
 122176763.298 7  95202745.77844  23249463.570                    23249474.988
 123351049.944 7  96117612.06944  23472885.977                    23472895.445
 119599499.486 7  93194478.99145  22759020.328                    22759030.621
 111224583.034 8  86668550.869 7  21165330.156                    21165339.250
 129313709.336 5 100763971.29742  24607581.023                    24607593.438
 118094198.336 7  92021486.27944  22472581.359                    22472590.816
 110769838.202 8  86314178.98946  21078797.813                    21078805.836
 128739019.732 6 100316136.71842  24498227.227                    24498238.629
 107784635.952 8  83988063.90746  20510736.023                    20510744.965
 114912748.130 8  89542421.61145  21867173.586                    21867182.129
 11  8 23 16 49 30.0000000  0 10G11G28G08G07G10G03G19G06G13G23
 122101068.768 7  95143763.14544  23235059.711                    23235070.336
 123300745.699 7  96078414.00244  23463313.211                    23463322.871
 119527562.664 7  93138424.36444  22745331.289                    22745341.496
 111177006.607 8  86631478.344 7  21156277.063                    21156285.715
 129363449.511 5 100802729.82442  24617046.531                    24617059.449
 118186606.394 7  92093492.53744  22490165.852                    22490176.535
 110802316.176 8  86339486.50346  21084978.641                    21084985.898
 128837423.133 6 100392814.62743  24516953.602                    24516964.477
 107838939.826 8  84030378.57946  20521069.766                    20521078.484
 115009281.037 8  89617641.97745  21885543.406                    21885552.109
 11  8 23 16 50  0.0000000  0 10G11G28G08G07G10G03G19G06G13G23
 122025492.600 7  95084872.69544  23220677.508                    23220688.832
 123250651.181 6  96039379.37644  23453780.078                    23453790.344
 119455607.508 7  93082355.44145  22731638.797                    22731648.832
 111129579.024 8  86594521.801 7  21147251.586                    21147260.219
 129413396.740 6 100841649.73942  24626551.820                    24626563.504
 118279341.844 7  92165753.88744  22507813.273                    22507823.410
 110835382.822 7  86365252.71746  21091270.977                    21091278.543
 128936002.989 6 100469630.01543  24535712.336                    24535723.344
 107893783.160 8  84073113.60946  20531505.969                    20531515.422
 115106132.653 8  89693110.68145  21903973.750                    21903982.574
 11  8 23 16 50 30.0000000  0 10G11G28G08G07G10G03G19G06G13G23
 121950037.987 7  95026076.96444  23206319.188                    23206329.957
 123200766.453 7  96000508.19244  23444287.422                    23444297.734
 119383635.088 7  93026273.07245  22717942.977                    22717953.145
 111082302.029 8  86557682.602 7  21138255.047                    21138263.859
 129463548.231 5 100880728.75242  24636094.836                    24636107.383
 118372401.825 7  92238268.10944  22525521.898                    22525531.891
 110869036.966 7  86391476.72146  21097675.250                    21097682.652
 129034756.665 6 100546580.85743  24554505.133                    24554516.223
 107949164.781 8  84116268.08346  20542044.883                    20542054.105
 115203300.639 7  89768825.89345  21922464.523                    21922473.031
 11  8 23 16 51  0.0000000  0 10G11G28G08G07G10G03G19G06G13G23
 121874707.657 7  94967378.07944  23191984.164                    23191994.707
 123151090.360 7  95961799.60444  23434834.578                    23434844.082
 119311646.232 7  92970177.89745  22704243.734                    22704253.449
 111035176.740 8  86520961.610 7  21129287.648                    21129296.148
 129513901.241 6 100919964.82342  24645677.047                    24645689.898
 118465783.210 7  92311032.79344  22543291.586                    22543302.816
 110903276.982 7  86418157.24746  21104190.664                    21104198.184
 129133681.553 6 100623665.13343  24573329.156                    24573341.070
 108005082.415 8  84159840.22946  20552685.523                    20552695.004
 115300782.039 7  89844785.31845  21941014.633                    21941023.266
 11  8 23 16 51 30.0000000  0 10G11G28G08G07G10G03G19G06G13G23
 121799504.662 7  94908778.42143  23177673.242                    23177683.805
 123101622.459 7  95923253.23044  23425420.773                    23425431.176
 119239642.346 7  92914070.99945  22690541.672                    22690552.137
 110988204.863 8  86484360.160 7  21120348.938                    21120357.438
 129564452.545 6 100959355.41642  24655295.961                    24655309.066
 118559483.546 7  92384045.99444  22561122.109                    22561132.305
 110938101.545 8  86445293.26946  21110817.625                    21110825.016
 129232775.017 6 100700880.72843  24592186.984                    24592197.930
 108061534.437 8  84203828.77946  20563428.172                    20563437.340
 115398574.279 7  89920986.96845  21959623.992                    21959632.438
 11  8 23 16 52  0.0000000  0 10G11G28G08G07G10G03G19G06G13G23
 121724432.039 7  94850280.34044  23163387.414                    23163398.328
 123052362.296 6  95884868.73544  23416047.117                    23416056.633
 119167624.411 7  92857953.15645  22676837.383                    22676847.859
 110941388.476 8  86447879.868 7  21111440.258                    21111448.914
 129615200.134 6 100998898.93842  24664953.633                    24664966.066
 118653499.503 7  92457305.14644  22579013.086                    22579023.371
 110973509.514 8  86472883.89146  21117555.555                    21117562.906
 129332034.856 6 100778225.98543  24611075.227                    24611086.563
 108118519.134 8  84248232.40346  20574272.234                    20574281.395
 115496674.593 7  89997428.67345  21978291.766                    21978300.266
 11  8 23 16 52 30.0000000  0 10G11G28G08G07G10G03G19G06G13G23
 121649492.510 7  94791885.97344  23149126.516                    23149137.922
 123003309.286 7  95846645.65744  23406712.469                    23406722.879
 119095593.513 7  92801825.21845  22663130.289                    22663140.844
 110894728.790 8  86411521.698 7  21102561.391                    21102570.016
 129666140.893 6 101038592.97942  24674647.414                    24674659.574
 118747828.368 7  92530808.12544  22596963.055                    22596973.199
 111009499.321 8  86500927.88246  21124404.047                    21124411.574
 129431458.603 6 100855698.99043  24629994.773                    24630006.125
 108176034.930 8  84293049.86246  20585216.953                    20585225.789
 115595080.087 7  90074108.19245  21997017.836                    21997025.949
 11  8 23 16 53  0.0000000  0 10G11G28G08G07G10G03G19G06G13G23
 121574689.733 7  94733598.13944  23134891.898                    23134903.199
 122954463.143 6  95808583.77444  23397417.367                    23397427.563
 119023550.985 7  92745688.23745  22649421.156                    22649431.359
 110848228.153 8  86375287.454 7  21093712.195                    21093721.051
 129717272.036 6 101078435.44642  24684376.984                    24684389.520
 118842467.598 7  92604552.92844  22614972.258                    22614982.383
 111046069.812 8  86529424.37546  21131363.398                    21131370.379
 129531043.630 6 100933297.63743  24648945.375                    24648956.824
 108234080.352 8  84338280.03046  20596262.742                    20596271.695
 115693788.258 7  90151023.56545  22015801.391                    22015809.895
 11  8 23 16 53 30.0000000  0 10G11G28G08G07G10G03G19G06G13G23
 121500026.621 7  94675419.13344  23120684.445                    23120695.023
 122905823.100 7  95770682.49744  23388161.445                    23388171.816
 118951497.814 7  92689542.93245  22635709.961                    22635719.660
 110801888.156 8  86339178.384 7  21084894.023                    21084902.742
 129768590.972 6 101118424.14543  24694143.133                    24694155.547
 118937414.199 6  92678537.24544  22633040.180                    22633050.324
 111083219.568 8  86558372.23646  21138432.594                    21138440.234
 129630787.727 6 101011020.23743  24667925.727                    24667937.559
 108292653.548 8  84383921.44446  20607408.750                    20607417.844
 115792796.064 7  90228172.41745  22034641.695                    22034650.570
 11  8 23 16 54  0.0000000  0 10G11G28G08G07G10G03G19G06G13G23
 121425506.041 7  94617351.20644  23106503.781                    23106515.023
 122857388.631 6  95732941.39644  23378944.914                    23378954.574
 118879435.044 7  92633390.16645  22621996.508                    22622007.152
 110755710.282 8  86303195.649 7  21076106.688                    21076115.559
 129820094.845 6 101158556.98843  24703944.156                    24703956.168
 119032665.205 7  92752758.75744  22651165.734                    22651175.961
 111120946.771 8  86587770.06246  21145611.813                    21145619.176
 129730688.066 6 101088864.61043  24686936.117                    24686947.734
 108351752.475 8  84429972.53846  20618654.867                    20618664.000
 115892100.564 7  90305552.46545  22053538.820                    22053547.656
 11  8 23 16 54 30.0000000  0 10G11G28G08G07G10G03G19G06G13G23
 121351130.818 7  94559396.52944  23092350.211                    23092361.137
 122809158.861 7  95695359.79144  23369766.891                    23369777.043
 118807364.136 7  92577231.04545  22608282.063                    22608292.410
 110709695.961 8  86267340.336 7  21067350.516                    21067359.480
 129871780.743 6 101198831.68143  24713779.570                    24713791.383
 119128217.353 6  92827214.92544  22669348.227                    22669359.059
 111159249.768 8  86617616.54046  21152900.570                    21152908.117
 129830742.223 6 101166828.78743  24705975.953                    24705987.625
 108411375.019 8  84476431.62646  20630000.961                    20630009.637
 115991698.866 7  90383161.42145  22072491.906                    22072500.902
 11  8 23 16 55  0.0000000  0 10G11G28G08G07G10G03G19G06G13G23
 121276904.077 7  94501557.56644  23078225.820                    23078236.551
 122761133.265 7  95657937.28744  23360627.789                    23360637.652
 118735285.847 7  92521066.17045  22594565.828                    22594575.883
 110663847.030 8  86231613.915 7  21058626.195                    21058634.508
 129923645.962 7 101239246.06843  24723649.242                    24723661.590
 119224067.954 6  92901903.62643  22687587.773                    22687598.871
 111198127.019 8  86647910.49846  21160299.063                    21160306.445
 129930947.710 6 101244910.88843  24725043.430                    24725055.375
 108471519.387 8  84523297.33546  20641445.945                    20641454.758
 116091588.242 7  90460997.18145  22091500.313                    22091509.301
 11  8 23 16 55 30.0000000  0 10G11G28G08G07G10G03G19G06G13G23
 121202828.718 7  94443836.52644  23064129.797                    23064140.699
 122713311.725 7  95620673.79944  23351527.727                    23351537.934
 118663201.843 7  92464896.84745  22580848.281                    22580858.336
 110618165.517 8  86196017.950 7  21049932.805                    21049941.242
 129975688.186 6 101279798.40643  24733552.609                    24733564.750
 119320214.083 7  92976822.66544  22705884.508                    22705894.574
 111237577.595 8  86678651.20146  21167805.672                    21167813.133
 130031302.262 5 101323109.21042  24744141.063                    24744152.574
 108532184.085 8  84570568.49846  20652990.383                    20652998.801
 116191765.832 7  90539057.54845  22110563.781                    22110572.543
 11  8 23 16 56  0.0000000  0 10G11G28G08G07G10G03G19G06G13G23
 121128908.165 7  94386236.13744  23050062.914                    23050073.363
 122665693.124 7  95583568.42644  23342466.141                    23342476.520
 118591113.201 7  92408723.91845  22567130.688                    22567140.691
 110572653.002 8  86160553.664 7  21041272.125                    21041280.738
 130027904.313 7 101320486.20943  24743489.211                    24743501.586
 119416652.772 6  93051969.62143  22724236.305                    22724246.938
 111277599.676 8  86709837.22246  21175422.305                    21175429.496
 130131803.26715 101401421.55552  24763266.219                    24763278.441
 108593367.032 8  84618243.47946  20664632.914                    20664641.895
 116292228.916 8  90617340.37845  22129681.445                    22129689.855
 11  8 23 16 56 30.0000000  0 10G11G28G08G07G10G03G19G06G13G23
 121055145.028 7  94328758.42844  23036026.445                    23036036.496
 122618276.800 7  95546620.66344  23333442.563                    23333453.043
 118519020.820 7  92352548.06845  22553412.188                    22553421.969
 110527310.791 8  86125222.078 7  21032643.820                    21032652.156
 130080291.521 7 101361307.38544  24753458.578                    24753470.852
 119513381.160 7  93127342.32743  22742643.484                    22742653.883
 111318191.250 8  86741467.00846  21183146.227                    21183153.910
 130232447.778 5 101479845.79242  24782417.867                    24782429.242
 108655065.960 8  84666320.53846  20676373.734                    20676382.910
 116392974.234 7  90695843.13245  22148853.023                    22148861.043
 11  8 23 16 57  0.0000000  0 11G11G28G08G07G01G10G03G19G06G13G23
 120981542.602 7  94271405.95544  23022019.891                    23022030.473
 122571062.247 6  95509830.13344  23324458.594                    23324468.426
 118446926.065 7  92296370.37844  22539692.578                    22539702.676
 110482140.916 7  86090024.791 7  21024048.250                    21024056.523
 129672902.23516 101043938.20716  24675957.625                    24675974.293
 130132846.731 7 101402259.42743  24763459.023                    24763471.660
 119610396.548 7  93202938.69444  22761104.258                    22761115.262
 111359350.880 8  86773539.43046  21190979.102                    21190985.852
 130333233.709 6 101558380.24042  24801597.445                    24801609.383
 108717279.241 8  84714798.38546  20688212.609                    20688221.637
 116493999.119 7  90774563.73245  22168077.031                    22168085.719
 11  8 23 16 57 30.0000000  0 11G11G28G08G07G01G10G03G19G06G13G23
 120908103.486 7  94214180.70144  23008045.148                    23008055.617
 122524048.856 7  95473196.36244  23315511.914                    23315522.223
 118374830.270 7  92240191.85245  22525973.016                    22525983.000
 110437144.949 8  86054963.014 7  21015485.695                    21015494.410
 129598508.709 6 100985969.315 6  24661800.469                    24661818.387
 130185567.285 7 101443340.29943  24773491.523                    24773503.320
 119707695.834 7  93278756.25844  22779620.414                    22779630.730
 111401076.759 8  86806053.09146  21198918.672                    21198926.211
 130434158.461 6 101637022.89643  24820802.750                    24820814.797
 108780004.560 8  84763675.21646  20700148.867                    20700157.691
 116595300.493 7  90853499.76545  22187354.313                    22187362.875
 11  8 23 16 58  0.0000000  0 11G11G28G08G07G01G10G03G19G06G13G23
 120834831.298 7  94157085.56244  22994101.281                    22994112.363
 122477236.295 7  95436719.07744  23306603.875                    23306613.992
 118302734.633 7  92184013.47345  22512253.750                    22512263.805
 110392325.201 8  86020038.533 7  21006957.047                    21006965.352
 129524000.820 6 100927911.304 6  24647622.570                    24647640.496
 130238450.700 7 101484548.08943  24783554.875                    24783567.422
 119805276.383 7  93354793.00644  22798189.125                    22798199.344
 111443367.613 8  86839006.98246  21206966.742                    21206973.949
 130535219.845 6 101715771.98842  24840033.664                    24840045.699
 108843240.597 8  84812950.01046  20712182.164                    20712191.285
 116696875.924 7  90932649.34745  22206683.031                    22206692.074
 11  8 23 16 58 30.0000000  0 11G11G28G08G07G01G10G03G19G06G13G23
 120761728.692 7  94100122.53244  22980190.516                    22980201.508
 122430623.448 7  95400397.39244  23297733.898                    23297743.871
 118230640.376 7  92127836.16045  22498534.711                    22498544.508
 110347682.986 8  85985252.407 7  20998461.531                    20998470.113
 129449381.012 6 100869766.126 6  24633422.008                    24633440.574
 130291493.987 7 101525880.43443  24793649.109                    24793661.086
 119903135.002 7  93431046.42244  22816810.977                    22816821.367
 111486221.626 8  86872399.70746  21215121.578                    21215128.727
 130636415.284 6 101794625.47443  24859290.875                    24859302.336
 108906984.802 8  84862620.77746  20724312.102                    20724321.293
 116798722.401 7  91012010.12345  22226064.461                    22226073.020
 11  8 23 16 59  0.0000000  0 10G11G28G08G07G01G10G03G19G13G23
 120688798.865 7  94043294.16744  22966312.141                    22966323.203
 122384210.035 7  95364231.12744  23288901.930                    23288911.340
 118158548.704 7  92071660.84945  22484815.945                    22484825.469
 110303220.343 8  85950606.198 7  20990000.773                    20990009.453
 129374651.902 6 100811535.783 6  24619202.133                    24619220.352
 130344694.755 6 101567335.51443  24803772.602                    24803785.082
 120001269.220 7  93507514.58444  22835485.961                    22835496.172
 111529637.334 7  86906230.11046  21223383.258                    21223390.914
 108971235.367 8  84912686.11146  20736538.648                    20736548.277
 116900837.269 7  91091580.04445  22245496.305                    22245505.137
 11  8 23 16 59 30.0000000  0 10G11G28G08G07G01G10G03G19G13G23
 120616045.055 7  93986602.93944  22952468.016                    22952478.672
 122337995.449 7  95328219.82244  23280107.273                    23280117.348
 118086461.391 7  92015488.95345  22471098.195                    22471107.969
 110258939.122 8  85916101.350 7  20981574.359                    20981582.730
 129299816.037 6 100753222.224 6  24604961.391                    24604980.047
 130398050.274 6 101608911.17143  24813926.109                    24813937.738
 120099675.810 7  93584194.99644  22854210.773                    22854222.484
 111573612.924 7  86940496.79146  21231751.438                    21231758.906
 109035990.492 8  84963144.61546  20748861.344                    20748870.289
 117003217.466 7  91171356.70945  22264978.531                    22264987.660
 11  8 23 17  0  0.0000000  0 10G11G28G08G07G01G10G03G19G13G23
 120543469.994 7  93930051.02644  22938657.531                    22938668.230
 122291978.676 7  95292362.62544  23271350.523                    23271360.559
 118014379.184 7  91959321.01445  22457381.641                    22457391.375
 110214840.698 8  85881738.933 7  20973182.391                    20973191.203
 129224875.786 5 100694827.305 6  24590699.844                    24590718.848
 130451557.070 6 101650604.70443  24824108.063                    24824120.266
 120198351.941 6  93661085.42144  22872989.148                    22872999.910
 111618146.432 7  86975198.20446  21240225.797                    21240233.445
 109101247.761 8  85013994.38346  20761278.984                    20761288.250
 117105859.911 7  91251337.72145  22284511.078                    22284519.418
 11  8 23 17  0 30.0000000  0 10G11G28G08G07G01G10G03G19G13G23
 120471076.875 7  93873640.86244  22924881.047                    22924892.395
 122246159.252 7  95256659.23544  23262631.648                    23262640.969
 117942303.543 7  91903158.19545  22443666.211                    22443675.648
 110170927.010 7  85847520.475 7  20964826.195                    20964835.004
 129149833.906 5 100636353.299 6  24576420.258                    24576438.398
 130505212.678 6 101692414.16743  24834317.953                    24834331.258
 120297294.573 6  93738183.51543  22891817.180                    22891827.492
 111663236.228 7  87010333.09746  21248806.164                    21248813.941
 109167005.081 8  85065233.80646  20773792.594                    20773801.434
 117208761.562 7  91331520.72045  22304092.586                    22304101.520
 11  8 23 17  1  0.0000000  0 11G11G28G08G07G01G10G24G03G19G13G23
 120398868.447 7  93817374.60344  22911140.063                    22911151.004
 122200536.353 7  95221108.95644  23253949.672                    23253959.371
 117870235.426 7  91847001.25045  22429951.938                    22429961.418
 110127199.900 8  85813447.410 7  20956505.266                    20956513.688
 129074692.45315 100577801.59916  24562121.961                    24562140.055
 130559014.296 6 101734337.41643  24844556.234                    24844569.199
 128121740.40716  99835198.78652  24380760.156                    24380775.695
 120396500.784 6  93815487.00043  22910695.836                    22910706.211
 111708880.333 7  87045899.91746  21257491.734                    21257499.051
 109233260.097 8  85116861.04946  20786400.750                    20786409.789
 117311919.845 7  91411903.69545  22323722.836                    22323731.598
 11  8 23 17  1 30.0000000  0 11G11G28G08G07G01G10G24G03G19G13G23
 120326847.226 7  93761254.23744  22897435.586                    22897445.535
 122155108.779 7  95185710.89444  23245305.086                    23245314.695
 117798176.055 7  91790851.10645  22416239.766                    22416249.051
 110083660.458 8  85779520.573 7  20948219.922                    20948228.590
 128999453.957 5 100519174.318 6  24547803.617                    24547821.551
 130612958.755 6 101776371.96943  24854821.992                    24854834.016
 128050345.861 5  99779566.73342  24367173.406                    24367190.027
 120495967.510 6  93892993.45343  22929623.563                    22929634.098
 111755076.571 7  87081896.97446  21266283.164                    21266290.520
 109300010.526 8  85168874.32446  20799103.055                    20799112.668
 117415331.379 7  91492483.99745  22343401.273                    22343410.496
 11  8 23 17  2  0.0000000  0 11G11G28G08G07G01G10G24G03G19G13G23
 120255016.979 7  93705282.68644  22883766.156                    22883777.387
 122109876.428 6  95150464.96044  23236697.859                    23236707.082
 117726127.181 7  91734709.15945  22402528.797                    22402538.598
 110040311.146 8  85745741.892 7  20939970.727                    20939979.484
 128924122.249 6 100460474.412 6  24533468.023                    24533486.715
 130667043.494 6 101818515.86743  24865113.664                    24865126.473
 127978874.364 5  99723874.72842  24353572.711                    24353589.273
 120595692.209 6  93970700.96143  22948600.453                    22948610.738
 111801823.726 7  87118323.31746  21275178.414                    21275186.145
 109367254.817 8  85221272.42146  20811899.188                    20811908.133
 117518993.634 7  91573259.66744  22363127.344                    22363136.406
 11  8 23 17  2 30.0000000  0 11G11G28G08G07G01G10G24G03G19G13G23
 120183380.964 7  93649462.45844  22870133.930                    22870145.254
 122064838.467 7  95115370.47744  23228127.281                    23228137.020
 117654090.266 7  91678576.51945  22388820.781                    22388830.734
 109997153.485 8  85712112.547 7  20931757.789                    20931766.434
 128848698.685 6 100401702.925 6  24519115.961                    24519134.023
 130721265.806 6 101860766.89343  24875431.711                    24875444.668
 127907328.528 6  99668124.82242  24339958.547                    24339974.598
 120695671.710 7  94048607.01343  22967626.156                    22967636.836
 111849119.602 8  87155177.22446  21284179.148                    21284186.016
 109434990.672 8  85274053.57046  20824788.906                    20824797.859
 117622903.483 7  91654228.26445  22382901.742                    22382910.480
 11  8 23 17  3  0.0000000  0 11G11G28G08G07G01G10G24G03G19G13G23
 120111942.017 7  93593795.81844  22856539.656                    22856551.254
 122019994.363 7  95080427.07444  23219593.055                    23219603.047
 117582066.642 7  91622454.23545  22375114.531                    22375124.629
 109954189.604 8  85678634.199 7  20923582.570                    20923590.426
 128773186.563 6 100342862.413 6  24504746.328                    24504763.910
 130775622.947 5 101903122.98942  24885775.727                    24885788.637
 127835711.034 6  99612319.08143  24326330.711                    24326346.633
 120795903.204 6  94126709.42144  22986699.680                    22986710.367
 111896962.168 7  87192457.13446  21293282.836                    21293290.227
 109503215.610 8  85327215.80446  20837772.102                    20837781.195
 117727058.137 7  91735387.62345  22402721.406                    22402730.090
 11  8 23 17  3 30.0000000  0 11G11G28G08G07G01G10G24G03G19G13G23
 120040702.935 7  93538284.91944  22842983.344                    22842994.059
 121975343.186 7  95045633.98844  23211096.305                    23211106.645
 117510057.370 7  91566343.13745  22361412.211                    22361421.891
 109911421.193 8  85645308.177 7  20915443.664                    20915452.539
 128697588.546 6 100283954.964 6  24490360.891                    24490378.625
 130830112.166 6 101945582.08742  24896144.633                    24896157.273
 127764024.632 6  99556459.67443  24312688.016                    24312704.984
 120896384.210 7  94205006.23543  23005820.461                    23005831.176
 111945349.990 8  87230161.91546  21302491.008                    21302498.117
 109571927.730 8  85380757.67546  20850847.258                    20850856.500
 117831454.977 7  91816735.69345  22422587.531                    22422596.625
 11  8 23 17  4  0.0000000  0 11G11G28G08G07G01G10G24G03G19G13G23
 119969666.739 7  93482932.11944  22829465.469                    22829476.301
 121930884.744 7  95010991.09144  23202636.250                    23202646.242
 117438064.069 7  91510244.47845  22347712.156                    22347721.926
 109868850.096 8  85612135.903 7  20907342.617                    20907350.973
 128621907.024 6 100224982.475 6  24475958.750                    24475976.605
 130884730.621 6 101988141.82843  24906538.828                    24906550.906
 127692272.114 6  99500548.72743  24299035.164                    24299051.047
 120997111.570 7  94283495.03443  23024988.805                    23024999.293
 111994281.156 7  87268290.09146  21311802.219                    21311809.660
 109641124.897 8  85434677.49446  20864015.063                    20864023.980
 117936090.662 7  91898269.86945  22442499.453                    22442507.977
 11  8 23 17  4 30.0000000  0 11G11G28G08G07G01G10G24G03G19G13G23
 119898836.697 7  93427739.94344  22815987.008                    22815997.656
 121886617.664 7  94976497.29444  23194212.375                    23194222.129
 117366088.080 7  91454159.32745  22334015.563                    22334025.266
 109826478.101 8  85579118.774 7  20899279.711                    20899287.836
 128546144.641 6 100165946.960 6  24461541.539                    24461559.156
 130939475.422 6 102030800.03543  24916956.047                    24916968.656
 127620456.000 6  99444588.20843  24285368.781                    24285384.563
 121098082.310 7  94362173.49243  23044202.430                    23044212.602
 112043753.337 7  87306839.83246  21321216.164                    21321223.559
 109710804.607 8  85488973.32346  20877274.664                    20877283.684
 118040962.399 7  91979987.98245  22462455.797                    22462464.695
 11  8 23 17  5  0.0000000  0 10G11G28G08G07G01G24G03G19G13G23
 119828215.932 7  93372710.84144  22802548.516                    22802559.105
 121842541.597 7  94942152.35344  23185825.758                    23185834.688
 117294131.244 7  91398089.09845  22320322.688                    22320332.559
 109784307.178 8  85546258.322 7  20891254.930                    20891263.242
 128470304.319 6 100106850.744 6  24447109.383                    24447127.336
 127548579.434 7  99388580.59444  24271691.359                    24271707.262
 121199293.947 7  94441039.65543  23063462.727                    23063473.164
 112093765.144 7  87345810.05846  21330733.367                    21330740.945
 109780965.158 8  85543643.84046  20890625.813                    20890634.805
 118146067.306 7  92061887.79345  22482456.453                    22482465.773
 11  8 23 17  5 30.0000000  0 10G11G28G08G07G01G24G03G19G13G23
 119757807.551 7  93317847.21644  22789150.305                    22789160.578
 121798655.504 7  94907955.40544  23177474.242                    23177483.523
 117222194.648 7  91342034.62345  22306633.375                    22306643.750
 109742338.954 8  85513555.817 7  20883268.313                    20883276.617
 128394388.585 6 100047695.730 6  24432663.320                    24432680.527
 127476644.898 6  99332527.81744  24258001.945                    24258018.434
 121300743.224 7  94520090.97944  23082767.945                    23082778.195
 112144314.134 7  87385198.86746  21340352.523                    21340359.625
 109851603.765 8  85598686.85946  20904068.156                    20904077.055
 118251402.638 7  92143967.13245  22502500.984                    22502510.535
 11  8 23 17  6  0.0000000  0 10G11G28G08G07G01G24G03G19G13G23
 119687613.978 7  93263150.99644  22775792.477                    22775802.770
 121754958.650 7  94873905.95644  23169158.594                    23169168.070
 117150279.214 7  91285996.65645  22292948.469                    22292958.879
 109700574.930 8  85481012.424 7  20875320.898                    20875329.410
 128318399.605 5  99988483.672 6  24418202.445                    24418219.648
 127404654.892 7  99276431.78643  24244303.000                    24244318.543
 121402427.200 7  94599325.19243  23102117.758                    23102128.320
 112195398.143 7  87425004.58446  21350073.352                    21350080.828
 109922717.756 8  85654100.31546  20917600.813                    20917609.566
 118356965.055 7  92226223.44344  22522589.422                    22522598.801
 11  8 23 17  6 30.0000000  0 10G11G28G08G07G01G24G03G19G13G23
 119617638.668 7  93208624.83944  22762476.914                    22762487.172
 121711450.556 7  94840003.56844  23160879.070                    23160889.051
 117078387.139 7  91229976.89045  22279267.977                    22279277.570
 109659017.646 8  85448630.129 7  20867412.867                    20867421.648
 128242341.394 6  99929217.634 6  24403729.727                    24403747.594
 127332612.448 6  99220294.90744  24230593.445                    24230609.055
 121504343.174 7  94678740.15144  23121511.977                    23121522.520
 112247015.616 7  87465225.97146  21359895.961                    21359903.477
 109994305.576 8  85709882.97946  20931223.313                    20931232.195
 118462751.885 7  92308654.60044  22542719.656                    22542729.137
 11  8 23 17  7  0.0000000  0 10G11G28G08G07G01G24G03G19G13G23
 119547884.755 7  93154271.20144  22749202.797                    22749213.527
 121668130.586 7  94806247.77844  23152635.438                    23152645.086
 117006519.447 7  91173976.10245  22265592.102                    22265601.637
 109617668.841 8  85416410.292 7  20859544.469                    20859553.172
 128166215.971 6  99869899.218 5  24389242.570                    24389260.449
 127260520.597 6  99164119.52943  24216875.422                    24216891.168
 121606488.466 6  94758333.82044  23140949.508                    23140959.973
 112299164.685 8  87505861.58646  21369819.805                    21369826.918
 110066364.917 8  85766033.07346  20944936.188                    20944944.754
 118568760.122 7  92391258.29844  22562892.477                    22562901.973
 11  8 23 17  7 30.0000000  0 10G11G28G08G07G01G24G03G19G13G23
 119478355.027 7  93100092.27144  22735971.414                    22735982.414
 121624997.545 7  94772637.64744  23144427.859                    23144437.301
 116934677.392 7  91117995.31145  22251920.773                    22251930.645
 109576529.763 8  85384353.879 7  20851716.000                    20851724.457
 128090025.860 6  99810530.400 5  24374744.188                    24374761.492
 127188381.579 6  99107907.45243  24203147.523                    24203163.422
 121708859.980 7  94838103.73944  23160430.242                    23160440.797
 112351842.735 8  87546909.39946  21379843.938                    21379851.305
 110138892.995 8  85822548.40446  20958737.711                    20958746.594
 118674986.801 7  92474032.20044  22583107.164                    22583116.270
 11  8 23 17  8  0.0000000  0 10G11G28G08G07G01G24G03G19G13G23
 119409052.525 7  93046090.39544  22722784.133                    22722794.277
 121582050.935 7  94739172.78544  23136255.508                    23136264.410
 116862862.949 7  91062036.02345  22238254.922                    22238264.969
 109535603.013 8  85352462.913 7  20843928.023                    20843936.531
 128013773.995 6  99751113.455 6  24360234.055                    24360251.852
 127116198.450 6  99051660.98143  24189411.063                    24189427.238
 121811454.957 6  94918047.82243  23179953.227                    23179963.809
 112405047.937 8  87588367.97446  21389968.648                    21389975.906
 110211887.748 8  85879427.38146  20972627.867                    20972637.035
 118781429.278 7  92556974.25844  22603362.750                    22603371.527
 11  8 23 17  8 30.0000000  0 10G11G28G08G07G01G24G03G19G13G23
 119339980.748 7  92992268.30944  22709640.578                    22709650.625
 121539290.081 7  94705852.66744  23128118.070                    23128127.746
 116791077.584 7  91006099.38345  22224594.523                    22224604.719
 109494890.332 7  85320738.752 7  20836180.383                    20836188.914
 127937463.197 7  99691650.650 6  24345712.258                    24345730.063
 127043973.928 5  98995382.25042  24175665.594                    24175683.371
 121914270.652 6  94998163.86344  23199518.063                    23199529.434
 112458778.433 8  87630235.87846  21400193.172                    21400200.348
 110285346.939 8  85936668.25746  20986606.797                    20986615.746
 118888084.538 7  92640082.12044  22623658.602                    22623667.777
 11  8 23 17  9  0.0000000  0 10G11G28G08G07G01G24G03G19G13G23
 119271142.139 7  92938627.89244  22696540.477                    22696551.031
 121496713.998 7  94672676.51444  23120016.414                    23120025.738
 116719322.691 7  90950186.50045  22210940.711                    22210950.000
 109454393.155 8  85289182.518 7  20828473.758                    20828482.426
 127861095.737 6  99632143.707 6  24331179.844                    24331197.637
 126971710.731 5  98939073.52842  24161914.875                    24161931.742
 122017304.136 6  95078449.60843  23219124.500                    23219136.020
 112513031.888 8  87672511.27446  21410517.289                    21410525.133
 110359267.873 8  85994268.93246  21000673.703                    21000682.051
 118994949.072 7  92723353.04644  22643993.898                    22644003.461
 11  8 23 17  9 30.0000000  0 10G11G28G08G07G01G24G03G19G13G23
 119202539.608 7  92885171.43744  22683485.789                    22683496.285
 121454321.766 7  94639643.63244  23111949.031                    23111958.973
 116647599.321 7  90894298.17445  22197291.898                    22197301.277
 109414113.016 8  85257795.402 7  20820809.211                    20820817.656
 127784674.306 6  99572594.687 6  24316637.781                    24316655.117
 126899411.467 5  98882736.57442  24148156.922                    24148173.383
 122120552.087 6  95158902.45643  23238771.633                    23238783.230
 112567805.821 8  87715192.24246  21420940.320                    21420947.672
 110433647.781 8  86052227.24846  21014827.430                    21014836.910
 119102020.346 7  92806785.04944  22664369.414                    22664378.297
 11  8 23 17 10  0.0000000  0 10G11G28G08G07G01G24G03G19G13G23
 119134176.421 7  92831901.49644  22670476.633                    22670487.090
 121412112.589 7  94606753.38444  23103916.852                    23103926.527
 116575909.333 7  90838435.85745  22183649.805                    22183659.320
 109374052.418 8  85226579.347 7  20813185.781                    20813194.398
 127708201.896 6  99513005.953 7  24302085.258                    24302102.543
 126827079.088 6  98826373.81342  24134391.758                    24134408.793
 122224012.426 7  95239520.82143  23258460.281                    23258470.715
 112623098.397 8  87758277.35246  21431462.305                    21431469.715
 110508484.524 8  86110541.54046  21029068.219                    21029077.375
 119209295.248 7  92890375.74844  22684782.891                    22684792.863
 11  8 23 17 10 30.0000000  0 10G11G28G08G07G01G24G03G19G13G23
 119066055.849 7  92778820.60244  22657513.250                    22657523.801
 121370086.051 7  94574005.45644  23095919.430                    23095929.598
 116504254.426 7  90782600.87745  22170013.969                    22170023.797
 109334213.347 7  85195535.913 7  20805604.641                    20805613.531
 127631681.705 6  99453379.979 7  24287523.281                    24287541.000
 126754716.766 6  98769987.76443  24120622.586                    24120638.574
 122327681.772 6  95320302.07043  23278187.695                    23278198.559
 112678907.594 8  87801765.02246  21442082.094                    21442089.645
 110583776.105 8  86169210.25346  21043396.234                    21043405.172
 119316771.091 7  92974123.01744  22705235.250                    22705245.047
 11  8 23 17 11  0.0000000  0 10G11G28G08G07G01G24G03G19G13G23
 118998180.917 7  92725931.09944  22644597.258                    22644607.855
 121328241.019 7  94541398.95944  23087956.883                    23087966.602
 116432635.962 7  90726794.30145  22156385.523                    22156394.848
 109294597.452 7  85164666.383 7  20798066.172                    20798074.566
 127555115.673 5  99393718.336 7  24272953.414                    24272971.324
 126682327.057 6  98713580.34743  24106846.719                    24106863.133
 122431557.590 7  95401244.16643  23297955.219                    23297966.188
 112735231.061 7  87845653.40646  21452800.492                    21452808.145
 110659519.781 8  86228231.24446  21057809.313                    21057818.402
 119424444.578 7  93058024.29044  22725724.867                    22725734.055
 11  8 23 17 11 30.0000000  0 10G11G28G08G07G01G24G03G19G13G23
 118930554.063 7  92673234.90244  22631728.766                    22631738.539
 121286576.870 7  94508933.40544  23080028.328                    23080038.137
 116361055.785 7  90671017.56245  22142764.266                    22142773.816
 109255206.367 8  85133972.028 7  20790569.883                    20790578.508
 127478507.227 5  99334023.660 7  24258375.195                    24258392.531
 126609912.342 6  98657153.48343  24093067.086                    24093082.422
 122535636.739 6  95482344.71643  23317760.180                    23317771.668
 112792066.565 7  87889940.79546  21463616.203                    21463623.184
 110735712.910 8  86287602.46146  21072308.852                    21072317.422
 119532312.664 7  93142077.20344  22746251.664                    22746261.191
 11  8 23 17 12  0.0000000  0 10G11G28G08G07G01G24G03G19G13G23
 118863178.579 7  92620734.57844  22618907.313                    22618916.867
 121245092.867 7  94476608.24244  23072134.422                    23072143.754
 116289515.233 7  90615271.69345  22129150.688                    22129159.957
 109216042.397 8  85103454.651 7  20783117.422                    20783126.059
 127401858.651 5  99274297.721 7  24243787.570                    24243807.492
 126537475.920 6  98600709.67643  24079282.742                    24079298.734
 122639916.711 7  95563601.77343  23337605.047                    23337615.328
 112849412.124 8  87934625.62646  21474528.148                    21474535.793
 110812353.382 8  86347322.25745  21086892.898                    21086902.313
 119640373.150 7  93226280.03544  22766814.391                    22766824.598
 11  8 23 17 12 30.0000000  0 10G11G28G08G07G01G24G03G19G13G23
 118796057.530 7  92568432.53144  22606134.859                    22606144.605
 121203787.858 7  94444422.53944  23064274.086                    23064283.402
 116218015.743 7  90559557.82745  22115544.211                    22115554.109
 109177107.013 8  85073115.376 7  20775708.563                    20775716.434
 127325172.955 6  99214542.860 6  24229195.844                    24229214.223
 126465020.654 6  98544251.20643  24065495.227                    24065510.898
 122744394.559 7  95645013.00443  23357486.422                    23357496.762
 112907265.207 7  87979705.92846  21485537.688                    21485544.895
 110889438.524 8  86407388.53945  21101561.648                    21101571.102
 119748622.370 7  93310629.93444  22787414.352                    22787423.469
 11  8 23 17 13  0.0000000  0 10G11G28G08G07G01G24G03G19G13G23
 118729193.688 7  92516330.87744  22593410.766                    22593420.648
 121162661.136 7  94412375.76444  23056447.875                    23056457.750
 116146558.941 7  90503877.22945  22101946.602                    22101956.766
 109138402.038 7  85042955.652 7  20768342.797                    20768351.738
 127248452.995 6  99154761.267 6  24214597.016                    24214614.137
 126392549.019 6  98487780.02343  24051703.227                    24051719.152
 122849067.331 6  95726576.14643  23377405.352                    23377415.438
 112965623.532 8  88025179.93846  21496642.875                    21496650.152
 110966965.482 8  86467799.10846  21116314.805                    21116324.027
 119857057.376 7  93395124.57544  22808049.016                    22808058.680
 11  8 23 17 13 30.0000000  0 10G11G28G08G07G01G24G03G19G13G23
 118662590.291 7  92464432.18144  22580736.281                    22580746.535
 121121711.911 7  94380467.31044  23048656.047                    23048665.699
 116075146.845 7  90448231.45745  22088357.469                    22088367.164
 109099929.841 8  85012977.307 7  20761021.922                    20761030.703
 127171701.732 6  99094955.252 6  24199991.156                    24200008.531
 126320064.431 6  98431298.72343  24037910.273                    24037925.672
 122953932.595 6  95808289.27443  23397359.734                    23397370.816
 113024485.606 8  88071046.46946  21507843.609                    21507851.277
 111044932.232 8  86528552.36246  21131151.586                    21131161.223
 119965675.736 7  93479762.10744  22828718.547                    22828727.957
 11  8 23 17 14  0.0000000  0 10G11G28G08G07G01G24G03G19G13G23
 118596250.650 7  92412739.00444  22568112.148                    22568122.898
 121080939.601 7  94348696.71544  23040896.664                    23040906.609
 116003780.492 7  90392621.32845  22074776.883                    22074786.531
 109061692.331 7  84983181.836 7  20753745.898                    20753753.980
 127094921.885 7  99035126.953 6  24185380.828                    24185397.578
 126247569.591 6  98374809.46443  24024114.172                    24024130.203
 123058987.495 6  95890150.15043  23417351.414                    23417361.875
 113083848.648 8  88117303.36646  21519140.133                    21519147.551
 111123336.295 8  86589646.37646  21146071.305                    21146080.652
 120074474.441 7  93564540.16644  22849422.211                    22849431.480
 11  8 23 17 14 30.0000000  0 10G11G28G08G07G01G24G03G19G13G23
 118530177.316 7  92361253.33644  22555539.047                    22555549.480
 121040343.402 7  94317063.35044  23033171.563                    23033180.961
 115932461.708 7  90337048.26945  22061204.992                    22061214.992
 109023691.131 7  84953570.502 7  20746514.281                    20746522.930
 127018115.770 7  98975278.165 6  24170765.008                    24170782.027
 126175067.169 6  98318314.23442  24010317.609                    24010332.859
 123164228.961 6  95972156.43343  23437377.906                    23437389.480
 113143710.360 8  88163948.82846  21530531.695                    21530538.883
 111202174.792 8  86651078.90646  21161073.836                    21161083.477
 120183450.182 7  93649456.16044  22870159.484                    22870169.453
 11  8 23 17 15  0.0000000  0 10G11G28G08G07G01G24G03G19G13G23
 118464373.476 7  92309977.65044  22543017.133                    22543027.289
 120999922.357 7  94285566.45744  23025480.023                    23025489.504
 115861192.502 7  90281513.84045  22047643.070                    22047652.766
 108985928.378 7  84924144.969 7  20739328.188                    20739336.730
 126941286.839 7  98915411.603 6  24156144.297                    24156161.336
 126102560.164 6  98261815.40843  23996520.805                    23996535.898
 123269654.313 6  96054305.95443  23457439.555                    23457450.992
 113204068.314 8  88210980.98246  21542017.078                    21542024.742
 111281445.421 8  86712848.16646  21176157.992                    21176167.934
 120292599.954 7  93734507.78644  22890930.570                    22890940.227
 11  8 23 17 15 30.0000000  0 10G11G28G08G07G01G24G03G19G13G23
 118398842.200 7  92258914.37144  22530546.727                    22530557.371
 120959675.520 7  94254205.30944  23017820.953                    23017830.617
 115789974.285 7  90226019.15245  22034090.766                    22034100.715
 108948406.107 8  84894906.827 7  20732188.039                    20732196.719
 126864437.542 6  98855529.186 6  24141521.008                    24141537.730
 126030051.480 6  98205315.20743  23982722.281                    23982736.789
 123375261.160 6  96136596.93843  23477536.398                    23477547.105
 113264920.546 8  88258398.28546  21553597.055                    21553604.563
 111361145.665 8  86774952.18945  21191325.070                    21191333.988
 120401921.062 7  93819692.92944  22911733.500                    22911743.066
 11  8 23 17 16  0.0000000  0 10G11G28G08G07G01G24G03G19G13G23
 118333586.375 7  92208065.71944  22518128.961                    22518139.230
 120919602.435 7  94222979.55244  23010194.930                    23010204.859
 115718808.751 7  90170565.50345  22020548.453                    22020557.961
 108911125.844 7  84865857.259 7  20725094.148                    20725102.324
 126787571.011 6  98795633.335 6  24126893.461                    24126910.727
 125957543.811 6  98148815.85943  23968924.570                    23968938.953
 123481045.942 6  96219026.52943  23497666.070                    23497678.109
 113326264.753 7  88306198.92946  21565270.891                    21565278.113
 111441272.727 7  86837388.78145  21206573.031                    21206582.211
 120511410.584 7  93905009.25944  22932568.773                    22932578.859
 11  8 23 17 16 30.0000000  0 10G11G28G08G07G01G24G03G19G13G23
 118268609.114 7  92157434.14944  22505763.734                    22505774.480
 120879701.713 7  94191888.08644  23002602.469                    23002612.332
 115647697.592 7  90115154.22445  22007016.469                    22007026.477
 108874089.635 8  84836997.874 7  20718046.266                    20718054.715
 126710689.967 6  98735726.220 7  24112262.492                    24112280.602
 125885040.180 7  98092319.66643  23955127.188                    23955142.250
 123587006.397 6  96301593.06243  23517830.305                    23517840.926
 113388098.247 7  88354380.84546  21577037.070                    21577044.625
 111521823.958 7  86900155.92445  21221901.039                    21221910.598
 120621065.864 7  93990454.79744  22953435.742                    22953445.809
 11  8 23 17 17  0.0000000  0 10G11G28G08G07G01G24G03G19G13G23
 118203912.702 7  92107021.42844  22493452.250                    22493462.625
 120839972.637 7  94160930.38944  22995042.484                    22995051.547
 115576642.075 7  90059786.30545  21993495.445                    21993504.750
 108837298.984 7  84808329.836 7  20711045.344                    20711053.656
 126633796.712 6  98675809.553 6  24097630.828                    24097647.598
 125812543.250 6  98035828.73743  23941331.820                    23941346.102
 123693139.723 6  96384294.24043  23538026.805                    23538037.902
 113450418.505 8  88402942.05746  21588896.117                    21588903.664
 111602796.492 7  86963251.34745  21237309.570                    21237318.910
 120730883.166 7  94076026.55344  22974333.586                    22974342.906
 11  8 23 17 17 30.0000000  0 10G11G28G08G07G01G24G03G19G13G23
 118139500.781 7  92056830.37144  22481195.117                    22481205.797
 120800414.366 7  94130105.77944  22987514.914                    22987524.098
 115505644.284 7  90004463.36445  21979985.008                    21979994.590
 108800756.485 8  84779855.160 7  20704091.266                    20704099.996
 126556895.415 6  98615886.654 6  24082996.820                    24083013.289
 125740056.286 6  97979345.60743  23927537.422                    23927552.828
 123799443.232 6  96467128.03444  23558255.789                    23558267.188
 113513223.467 8  88451880.96346  21600847.656                    21600855.258
 111684188.233 8  87026673.41745  21252798.156                    21252807.574
 120840860.197 7  94161722.73444  22995261.500                    22995271.648
 11  8 23 17 18  0.0000000  0 10G11G28G08G07G01G24G03G19G13G23
 118075376.326 7  92006863.31645  22468993.234                    22469003.621
 120761026.124 7  94099413.67044  22980019.305                    22980028.547
 115434705.679 7  89949186.54045  21966485.664                    21966495.180
 108764463.708 7  84751575.067 7  20697184.875                    20697193.301
 126479987.749 6  98555958.743 6  24068361.773                    24068378.367
 125667581.974 6  97922872.28843  23913745.414                    23913761.719
 123905914.091 7  96550092.25544  23578516.719                    23578527.938
 113576510.580 8  88501195.56246  21612890.977                    21612898.168
 111765996.301 7  87090419.90046  21268365.773                    21268375.527
 120950993.470 7  94247540.70844  23016219.156                    23016229.070
 11  8 23 17 18 30.0000000  0 10G11G28G08G07G01G24G03G19G13G23
 118011541.922 7  91957122.26544  22456845.563                    22456856.055
 120721806.877 7  94068853.23644  22972556.023                    22972565.563
 115363828.236 7  89893957.38145  21952998.188                    21953007.641
 108728422.584 8  84723491.064 7  20690326.539                    20690335.168
 126403077.046 7  98496028.456 6  24053726.219                    24053742.645
 125595123.303 6  97866411.18343  23899956.094                    23899973.137
 124012549.607 7  96633184.75344  23598808.789                    23598820.250
 113640277.759 8  88550884.24745  21625025.578                    21625032.914
 111848217.830 8  87154488.56246  21284012.055                    21284022.020
 121061280.094 7  94333478.15444  23037206.430                    23037215.770
 11  8 23 17 19  0.0000000  0 10G11G28G08G07G01G24G03G19G13G23
 117948000.626 7  91907609.61344  22444754.125                    22444764.359
 120682755.942 7  94038423.95744  22965125.266                    22965134.379
 115293013.762 7  89838777.27745  21939522.586                    21939532.074
 108692634.923 8  84695604.567 7  20683516.563                    20683525.121
 126326165.953 6  98436097.853 6  24039090.234                    24039106.605
 125522683.100 6  97809964.47143  23886171.883                    23886187.699
 124119346.602 7  96716403.08843  23619132.148                    23619143.359
 113704522.201 8  88600944.81646  21637250.672                    21637258.129
 111930850.262 8  87218877.40146  21299736.578                    21299745.867
 121171717.236 7  94419532.87844  23058222.063                    23058231.906
 11  8 23 17 19 30.0000000  0 10G11G28G08G07G01G24G03G19G13G23
 117884755.461 7  91858327.72844  22432718.578                    22432729.543
 120643872.141 7  94008124.91644  22957725.352                    22957734.918
 115222263.650 7  89783647.33445  21926058.813                    21926068.789
 108657102.742 8  84667917.147 7  20676754.766                    20676763.781
 126249257.513 6  98376169.295 6  24024455.125                    24024471.199
 125450264.396 6  97753534.47243  23872391.039                    23872406.750
 124226302.915 6  96799745.60243  23639484.953                    23639495.965
 113769241.488 8  88651375.39246  21649566.461                    21649573.723
 112013891.028 7  87283584.42445  21315538.789                    21315548.305
 121282302.058 7  94505702.70344  23079266.078                    23079275.402
 11  8 23 17 20  0.0000000  0 10G11G28G08G07G01G24G03G19G13G23
 117821809.222 7  91809278.75945  22420740.539                    22420751.184
 120605154.940 7  93977955.69144  22950357.719                    22950367.508
 115151580.090 7  89728569.24745  21912608.742                    21912618.496
 108621828.034 8  84640430.358 7  20670042.477                    20670051.059
 126172354.263 6  98316244.770 6  24009820.164                    24009837.070
 125377870.084 6  97697123.48443  23858614.695                    23858629.957
 124333415.358 6  96883209.78943  23659868.180                    23659878.887
 113834433.318 8  88702174.18545  21661972.227                    21661979.254
 112097337.473 7  87348607.56545  21331417.938                    21331427.539
 121393031.625 6  94591985.32944  23100336.648                    23100346.656
 11  8 23 17 20 30.0000000  0 10G11G28G08G07G01G24G03G19G13G23
 117759165.061 7  91760465.18145  22408819.727                    22408830.445
 120566603.466 7  93947915.60244  22943021.359                    22943031.395
 115080964.426 7  89673544.07145  21899170.430                    21899180.391
 108586812.453 8  84613145.473 7  20663379.086                    20663387.680
 126095459.808 6  98256327.088 6  23995187.836                    23995204.031
 125305503.141 7  97640733.78443  23844844.188                    23844859.406
 124440681.170 6  96966793.48443  23680279.883                    23680291.105
 113900095.119 8  88753339.18446  21674467.078                    21674474.512
 112181186.862 8  87413944.68345  21347373.891                    21347384.090
 121503902.816 7  94678378.28244  23121435.156                    23121445.301
 11  8 23 17 21  0.0000000  0 10G11G28G08G07G01G24G03G19G13G23
 117696826.013 7  91711889.35045  22396956.914                    22396967.289
 120528216.949 7  93918004.05344  22935716.781                    22935726.176
 115010418.602 8  89618573.30945  21885746.328                    21885755.941
 108552058.419 8  84586064.412 7  20656765.781                    20656774.285
 126018576.434 6  98196418.088 6  23980557.484                    23980574.320
 125233166.512 7  97584367.66643  23831078.805                    23831093.820
 124548097.955 6  97050494.79942  23700720.250                    23700731.543
 113966224.941 8  88804868.88446  21687051.398                    21687058.738
 112265436.617 8  87479593.79045  21363406.563                    21363416.184
 121614912.931 7  94764879.49844  23142559.750                    23142569.930
 11  8 23 17 21 30.0000000  0 10G11G28G08G07G01G24G03G19G13G23
 117634795.296 7  91663553.77644  22385152.617                    22385163.098
 120489994.541 7  93888220.38944  22928443.070                    22928453.332
 114939944.709 8  89563658.60045  21872335.633                    21872345.141
 108517568.130 8  84559188.853 7  20650202.703                    20650210.941
 125941707.365 6  98136520.228 6  23965928.789                    23965946.574
 125160863.627 7  97528027.83843  23817319.492                    23817334.637
 124655663.249 6  97134311.79642  23721190.031                    23721200.746
 114032820.210 8  88856761.27045  21699724.016                    21699731.113
 112350084.117 8  87545552.80845  21379514.141                    21379523.965
 121726059.132 7  94851486.74244  23163710.250                    23163720.664
 11  8 23 17 22  0.0000000  0 10G11G28G08G07G01G24G03G19G13G23
 117573075.398 7  91615460.39844  22373407.539                    22373417.996
 120451935.146 7  93858563.73745  22921200.375                    22921210.332
 114869544.277 8  89508801.12845  21858938.836                    21858948.438
 108483343.118 8  84532520.005 7  20643689.461                    20643697.988
 125864855.842 7  98076636.037 7  23951305.289                    23951322.109
 125088597.251 7  97471716.48243  23803568.609                    23803582.250
 124763374.063 5  97218242.15942  23741685.398                    23741698.023
 114099878.235 8  88909014.24646  21712484.898                    21712491.938
 112435126.574 8  87611819.59245  21395697.391                    21395707.285
 121837338.150 7  94938197.46044  23184886.523                    23184896.617
 11  8 23 17 22 30.0000000  0 10G11G28G08G07G01G24G03G19G13G23
 117511669.175 7  91567611.45144  22361722.773                    22361732.633
 120414037.611 7  93829033.21644  22913989.734                    22913998.672
 114799219.096 8  89454002.30445  21845556.578                    21845565.875
 108449384.985 8  84506059.115 7  20637227.781                    20637236.020
 125788024.281 6  98016767.401 7  23936684.531                    23936701.828
 125016369.982 7  97415435.60643  23789823.258                    23789837.652
 124871227.621 6  97302283.87242  23762210.023                    23762222.332
 114167396.233 8  88961625.63646  21725333.016                    21725340.551
 112520560.835 8  87678391.67645  21411955.414                    21411964.805
 121948747.115 7  95025009.45944  23206087.016                    23206097.410
 11  8 23 17 23  0.0000000  0 10G11G28G08G07G01G24G03G19G13G23
 117450579.723 7  91520009.31644  22350097.625                    22350107.852
 120376301.530 7  93799628.49144  22906808.438                    22906817.551
 114728970.979 8  89399263.52345  21832188.789                    21832197.922
 108415696.096 8  84479808.026 7  20630816.766                    20630825.203
 125711215.937 7  97956916.850 7  23922068.391                    23922085.527
 124944184.887 6  97359187.57343  23776085.953                    23776101.746
 124979221.426 6  97386434.75842  23782760.320                    23782772.598
 114235371.900 8  89014593.64645  21738268.125                    21738275.773
 112606384.719 8  87745267.36345  21428286.969                    21428296.875
 122060283.260 7  95111920.54644  23227311.664                    23227322.191
 11  8 23 17 23 30.0000000  0 10G11G28G08G07G01G24G03G19G13G23
 117389809.817 7  91472656.19244  22338533.445                    22338543.813
 120338725.797 7  93770348.72544  22899657.805                    22899667.168
 114658801.953 8  89344586.38145  21818835.938                    21818846.004
 108382278.428 8  84453768.272 7  20624457.836                    20624466.438
 125634433.581 7  97897086.557 7  23907457.375                    23907473.930
 124872045.073 6  97302974.85843  23762358.633                    23762373.891
 125087352.592 6  97470692.70443  23803338.000                    23803349.535
 114303803.011 8  89067916.55545  21751290.422                    21751297.820
 112692595.210 8  87812444.29945  21444692.188                    21444702.273
 122171943.742 7  95198928.53144  23248560.016                    23248570.188
 11  8 23 17 24  0.0000000  0 10G11G28G08G07G01G24G03G19G13G23
 117329362.003 7  91425554.05145  22327030.773                    22327040.852
 120301309.197 7  93741192.94444  22892538.063                    22892547.297
 114588713.432 7  89289971.95845  21805498.594                    21805508.090
 108349133.060 8  84427940.706 7  20618150.492                    20618158.906
 125557679.308 7  97837278.150 6  23892851.039                    23892867.621
 124799952.813 6  97246799.19143  23748639.961                    23748655.277
 125195618.461 6  97555055.62743  23823940.734                    23823951.629
 114372686.165 8  89121591.69545  21764398.594                    21764405.977
 112779188.706 8  87879919.68345  21461170.234                    21461180.285
 122283724.799 7  95286030.44844  23269831.570                    23269842.227
 11  8 23 17 24 30.0000000  0 10G11G28G08G07G01G24G03G19G13G23
 117269239.157 7  91378705.13045  22315589.344                    22315599.602
 120264050.869 7  93712160.48844  22885447.445                    22885457.602
 114518707.179 8  89235421.64945  21792176.906                    21792186.316
 108316262.034 8  84402326.912 8  20611895.430                    20611903.367
 125480956.672 6  97777494.384 6  23878251.766                    23878267.926
 124727911.433 6  97190663.16543  23734930.789                    23734946.109
 125304015.907 7  97639521.09743  23844567.953                    23844579.176
 114442019.108 8  89175617.32945  21777592.117                    21777599.473
 112866162.636 7  87947691.50645  21477720.969                    21477730.805
 122395623.844 7  95373224.29644  23291125.438                    23291135.828
 11  8 23 17 25  0.0000000  0 10G11G28G08G07G01G24G03G19G13G23
 117209444.472 7  91332111.91244  22304210.883                    22304221.172
 120226950.070 7  93683250.78144  22878387.563                    22878396.602
 114448785.264 7  89180937.04845  21778870.930                    21778880.246
 108283667.875 8  84376928.850 7  20605692.742                    20605701.422
 125404268.943 6  97717737.834 6  23863657.883                    23863674.488
 124655924.375 6  97134569.48043  23721232.859                    23721247.332
 125412542.870 7  97724087.48443  23865219.570                    23865231.410
 114511799.409 8  89229991.54245  21790870.617                    21790878.418
 112953514.952 8  88015758.16945  21494343.656                    21494353.535
 122507638.384 7  95460508.13844  23312440.844                    23312451.504
 11  8 23 17 25 30.0000000  0 10G11G28G08G07G01G24G03G19G13G23
 117149980.806 7  91285776.61344  22292895.258                    22292905.734
 120190005.866 7  93654463.11844  22871357.180                    22871366.910
 114378949.583 8  89126519.65145  21765581.875                    21765591.383
 108251352.260 8  84351747.839 7  20599543.133                    20599551.738
 125327618.514 6  97658010.318 6  23849071.703                    23849088.258
 124583994.296 7  97078520.19844  23707545.070                    23707558.953
 125521196.534 7  97808752.57843  23885896.203                    23885907.566
 114582024.587 8  89284712.41946  21804234.156                    21804241.992
 113041242.370 7  88084117.12545  21511038.023                    21511047.469
 122619765.072 7  95547879.35943  23333778.039                    23333788.426
 11  8 23 17 26  0.0000000  0 10G11G28G08G07G01G24G03G19G13G23
 117090851.496 7  91239701.86545  22281643.359                    22281653.859
 120153217.817 7  93625797.12845  22864357.039                    22864366.492
 114309202.440 8  89072171.24045  21752308.984                    21752319.020
 108219317.841 8  84326785.937 7  20593447.313                    20593456.008
 125251009.318 6  97598314.976 6  23834493.117                    23834509.961
 124512124.766 7  97022518.06944  23693868.227                    23693883.441
 125629974.345 7  97893514.41843  23906596.055                    23906607.445
 114652692.626 7  89339778.38845  21817681.898                    21817689.367
 113129342.730 8  88152766.67145  21527802.961                    21527812.305
 122732001.696 7  95635336.29244  23355136.203                    23355146.484
 11  8 23 17 26 30.0000000  0 10G11G28G08G07G01G24G03G19G13G23
 117032059.368 7  91193889.85845  22270455.766                    22270465.945
 120116584.623 7  93597251.79544  22857386.078                    22857394.961
 114239545.715 7  89017893.28645  21739053.836                    21739063.363
 108187566.444 8  84302044.577 7  20587405.156                    20587413.727
 125174444.222 6  97538653.974 6  23819923.508                    23819939.875
 124440318.829 6  96966565.47343  23680203.625                    23680218.887
 125738873.922 6  97978371.16143  23927319.023                    23927330.191
 114723800.779 7  89395187.29645  21831213.344                    21831221.004
 113217813.217 7  88221704.64845  21544638.375                    21544648.102
 122844344.921 7  95722876.23343  23376514.703                    23376524.453
 11  8 23 17 27  0.0000000  0 10G11G28G08G07G01G24G03G19G13G23
 116973606.675 7  91148342.34845  22259332.539                    22259342.434
 120080105.549 7  93568826.56144  22850443.852                    22850453.770
 114169980.726 7  88963686.81645  21725815.813                    21725825.645
 108156099.418 8  84277524.807 7  20581417.266                    20581425.680
 125097925.378 6  97479029.044 6  23805362.063                    23805378.508
 124368578.815 6  96910664.30443  23666551.648                    23666566.203
 125847892.063 6  98063320.30543  23948064.789                    23948076.039
 114795345.696 8  89450936.53545  21844827.945                    21844835.777
 113306650.251 7  88290928.24445  21561543.727                    21561553.148
 122956791.671 7  95810496.88443  23397912.719                    23397922.961
 11  8 23 17 27 30.0000000  0 10G11G28G08G07G01G24G03G19G13G23
 116915496.433 7  91103061.68944  22248274.133                    22248284.242
 120043779.387 7  93540520.47845  22843530.945                    22843540.973
 114100509.343 8  88909553.29145  21712595.953                    21712606.008
 108124918.467 8  84253227.963 7  20575484.016                    20575492.043
 125021456.004 6  97419442.638 6  23790810.859                    23790826.539
 124296907.677 7  96854816.78343  23652912.266                    23652928.270
 125957026.327 6  98148359.90143  23968831.250                    23968843.563
 114867325.067 8  89507024.31845  21858525.453                    21858532.508
 113395851.156 8  88360435.37045  21578517.953                    21578527.422
 123069338.945 7  95898195.85444  23419330.234                    23419340.723
 11  8 23 17 28  0.0000000  0 10G11G28G08G07G01G24G03G19G13G23
 116857731.341 7  91058049.96844  22237281.852                    22237291.691
 120007605.370 7  93512332.94445  22836647.469                    22836656.883
 114031133.828 8  88855494.45745  21699394.242                    21699404.059
 108094025.856 8  84229155.795 7  20569605.039                    20569613.480
 124945039.096 7  97359897.150 7  23776269.047                    23776285.406
 124225308.742 7  96799025.50943  23639287.977                    23639303.254
 126066274.215 6  98233488.03043  23989620.789                    23989632.523
 114939736.445 8  89563448.73445  21872304.469                    21872311.867
 113485413.235 8  88430223.92445  21595560.852                    21595571.211
 123181983.873 7  95985970.90944  23440765.563                    23440775.949
 11  8 23 17 28 30.0000000  0 10G11G28G08G07G01G24G03G19G13G23
 116800314.442 7  91013309.56845  22226355.922                    22226365.734
 119971582.392 7  93484263.10944  22829792.641                    22829802.527
 113961855.917 8  88801511.67545  21686211.391                    21686220.781
 108063423.392 8  84205309.711 7  20563781.609                    20563790.012
 124868677.470 7  97300394.727 7  23761737.758                    23761753.766
 124153784.901 6  96743292.75043  23625677.281                    23625691.805
 126175633.224 6  98318702.69642  24010431.273                    24010442.898
 115012576.979 8  89620207.55445  21886166.219                    21886173.367
 113575333.360 7  88500291.48245  21612672.570                    21612681.688
 123294723.576 7  96073819.81144  23462218.977                    23462230.406
 11  8 23 17 29  0.0000000  0 10G11G28G08G07G01G24G03G19G13G23
 116743248.560 7  90968842.69145  22215496.531                    22215506.758
 119935709.667 7  93456310.34044  22822966.633                    22822976.137
 113892677.996 8  88747606.82445  21673047.570                    21673057.004
 108033113.467 8  84181691.578 8  20558013.867                    20558022.266
 124792374.600 7  97240938.099 7  23747217.781                    23747233.730
 124082339.553 7  96687621.19043  23612082.609                    23612096.211
 126285100.782 6  98404002.02042  24031261.719                    24031274.059
 115085844.264 8  89677298.89345  21900108.414                    21900115.563
 113665609.059 7  88570636.11145  21629851.688                    21629861.094
 123407555.472 6  96161740.52644  23483690.859                    23483701.563
 11  8 23 17 29 30.0000000  0 10G11G28G08G07G01G24G03G19G13G23
 116686536.375 7  90924651.41345  22204705.055                    22204714.672
 119899986.190 7  93428473.88544  22816168.211                    22816177.332
 113823601.496 8  88693780.98745  21659902.188                    21659912.004
 108003097.387 8  84158302.422 7  20552302.438                    20552310.516
 124716132.842 7  97181529.075 7  23732709.008                    23732725.316
 124010975.282 7  96632012.76943  23598502.227                    23598516.129
 126394674.279 6  98489383.89442  24052113.313                    24052125.824
 115159535.241 8  89734720.40145  21914131.055                    21914138.680
 113756237.113 7  88641255.29145  21647097.117                    21647107.160
 123520476.015 7  96249730.27744  23505178.961                    23505190.223
 11  8 23 17 30  0.0000000  0 10G11G28G08G07G01G24G03G19G13G23
 116630180.897 7  90880738.08845  22193980.344                    22193990.637
 119864411.307 7  93400753.21444  22809398.805                    22809408.238
 113754628.697 8  88640035.95745  21646777.297                    21646786.523
 107973377.738 8  84135144.242 8  20546646.531                    20546655.063
 124639955.765 6  97122170.469 7  23718213.609                    23718229.625
 123939695.316 7  96576470.05043  23584937.875                    23584952.465
 126504350.940 6  98574846.12242  24072985.203                    24072996.441
 115233647.746 8  89792470.36145  21928234.398                    21928241.898
 113847214.812 7  88712146.92045  21664409.672                    21664419.867
 123633482.909 7  96337787.36244  23526683.156                    23526694.688
 11  8 23 17 30 30.0000000  0 10G11G28G08G07G01G24G03G19G13G23
 116574184.797 7  90837104.80745  22183324.656                    22183334.934
 119828984.016 7  93373147.55244  22802657.172                    22802666.797
 113685761.539 8  88586373.25045  21633672.320                    21633681.703
 107943956.270 8  84112218.415 7  20541048.117                    20541056.352
 124563846.951 6  97062865.056 7  23703729.547                    23703745.969
 123868502.609 7  96520995.35543  23571390.406                    23571403.863
 126614128.267 6  98660386.89642  24093874.250                    24093886.059
 115308178.959 8  89850546.58745  21942417.180                    21942425.004
 113938539.341 7  88783308.82445  21681788.273                    21681798.289
 123746573.057 7  96425909.30644  23548203.953                    23548215.395
 11  8 23 17 31  0.0000000  0 10G11G28G08G07G01G24G03G19G13G23
 116518550.676 7  90793753.58445  22172738.117                    22172748.227
 119793703.171 7  93345655.99245  22795943.344                    22795952.344
 113617001.712 8  88532794.16645  21620587.859                    21620596.734
 107914834.454 8  84089526.088 7  20535505.945                    20535514.660
 124487807.847 6  97003613.954 6  23689259.594                    23689275.660
 123797400.148 7  96465590.97343  23557859.625                    23557874.207
 126724003.594 6  98746003.92642  24114782.883                    24114794.586
 115383125.903 8  89908946.75745  21956679.180                    21956686.883
 114030207.541 7  88854738.50645  21699232.109                    21699241.734
 123859743.253 7  96514093.61044  23569740.344                    23569751.320
 11  8 23 17 31 30.0000000  0 10G11G28G08G07G01G24G03G19G13G23
 116463281.501 7  90750686.75045  22162220.508                    22162230.379
 119758567.720 7  93318277.73644  22789256.984                    22789266.457
 113548351.634 8  88479300.60945  21607524.203                    21607533.445
 107886014.569 8  84067069.023 7  20530022.000                    20530030.176
 124411842.156 6  96944420.048 6  23674804.031                    23674819.535
 123726391.367 7  96410259.59243  23544346.398                    23544361.320
 126833974.538 6  98831695.50943  24135709.680                    24135721.398
 115458486.037 8  89967668.89945  21971019.648                    21971027.211
 114122216.558 8  88926433.76845  21716741.156                    21716751.254
 123972990.885 7  96602338.28143  23591290.750                    23591301.547
 11  8 23 17 32  0.0000000  0 10G11G28G08G07G01G24G03G19G13G23
 116408380.176 7  90707906.54545  22151773.359                    22151783.047
 119723577.045 7  93291012.29445  22782598.859                    22782608.270
 113479813.331 8  88425894.15545  21594481.531                    21594490.848
 107857498.491 8  84044848.692 8  20524595.625                    20524603.961
 124335953.030 7  96885285.783 6  23660362.313                    23660378.805
 123655479.125 7  96355003.45343  23530851.875                    23530866.719
 126944038.387 6  98917459.50643  24156654.133                    24156666.355
 115534257.003 7  90026711.16445  21985438.563                    21985446.098
 114214564.097 7  88998392.80745  21734314.234                    21734324.043
 124086313.162 7  96690641.12844  23612855.469                    23612866.676
 11  8 23 17 32 30.0000000  0  9G11G28G08G07G01G24G19G13G23
 116353849.615 7  90665415.24045  22141396.352                    22141406.441
 119688730.124 7  93263858.86845  22775967.570                    22775976.516
 113411388.749 8  88372576.31045  21581460.703                    21581470.273
 107829288.552 8  84022866.920 8  20519227.234                    20519236.145
 124260143.470 6  96826213.513 6  23645936.852                    23645952.398
 123584666.581 7  96299825.01043  23517377.164                    23517390.965
 115610436.397 7  90086071.68145  21999934.852                    21999942.266
 114307246.354 7  89070612.66645  21751951.336                    21751961.305
 124199707.330 7  96778999.95443  23634433.438                    23634444.656
 11  8 23 17 33  0.0000000  0  9G11G28G08G07G01G24G19G13G23
 116299692.529 7  90623214.95145  22131090.547                    22131100.883
 119654026.366 7  93236816.99844  22769364.141                    22769372.863
 113343080.007 8  88319348.72545  21568462.078                    21568471.832
 107801386.717 8  84001125.223 7  20513917.680                    20513926.578
 124184416.910 7  96767205.929 6  23631526.102                    23631541.707
 123513956.924 7  96244726.69243  23503921.617                    23503935.285
 115687021.228 7  90145748.12145  22014508.922                    22014516.371
 114400261.138 7  89143091.62945  21769651.656                    21769661.438
 124313170.551 6  96867412.60343  23656024.984                    23656036.313
 11  8 23 17 33 30.0000000  0  9G11G28G08G07G01G24G19G13G23
 116245911.373 7  90581307.59945  22120856.086                    22120866.027
 119619464.375 7  93209885.59745  22762786.859                    22762796.324
 113274889.097 8  88266212.96545  21555486.055                    21555495.492
 107773794.343 8  83979624.657 7  20508667.328                    20508675.500
 124108775.892 7  96708265.004 6  23617132.227                    23617147.941
 123443352.881 7  96189710.64743  23490486.328                    23490499.676
 115764008.280 7  90205737.98245  22029158.688                    22029166.152
 114493605.023 7  89215827.02445  21787414.148                    21787424.121
 124426699.494 6  96955876.48043  23677628.656                    23677639.957
 11  8 23 17 34  0.0000000  0  9G11G28G08G07G01G24G19G13G23
 116192508.281 7  90539694.85245  22110694.203                    22110703.965
 119585042.941 7  93183063.70945  22756236.484                    22756245.609
 113206817.704 8  88213170.32345  21542532.297                    21542541.566
 107746512.971 8  83958366.432 7  20503475.703                    20503484.148
 124033222.869 7  96649392.637 7  23602754.930                    23602770.645
 123372857.138 6  96134779.02043  23477071.227                    23477084.660
 115841394.727 7  90266039.06545  22043884.813                    22043892.695
 114587274.543 7  89288816.16445  21805239.125                    21805249.047
 124540291.245 6  97044389.23943  23699244.703                    23699256.152
 11  8 23 17 34 30.0000000  0  9G11G28G08G07G01G24G19G13G23
 116139486.556 7  90498379.26945  22100604.461                    22100614.387
 119550761.576 7  93156350.95945  22749713.430                    22749722.152
 113138868.222 8  88160222.68846  21529602.016                    21529611.672
 107719545.005 8  83937352.422 8  20498343.914                    20498352.516
 123957761.516 6  96590591.723 6  23588395.453                    23588410.645
 123302473.013 6  96079934.34843  23463677.953                    23463691.539
 115919178.191 7  90326649.52045  22058686.828                    22058694.258
 114681267.289 7  89362057.17545  21823125.258                    21823135.594
 124653943.106 6  97132948.87143  23720872.250                    23720884.020
 11  8 23 17 35  0.0000000  0  9G11G28G08G07G01G24G19G13G23
 116086848.986 7  90457363.02145  22090587.672                    22090597.703
 119516619.205 7  93129746.52745  22743215.898                    22743225.129
 113071042.409 8  88107371.42145  21516695.133                    21516704.508
 107692892.383 8  83916584.142 8  20493272.016                    20493280.816
 123882394.699 7  96531864.469 7  23574052.742                    23574068.770
 123232203.741 6  96025179.19143  23450304.852                    23450319.594
 115997356.062 7  90387567.28345  22073563.594                    22073571.391
 114775580.473 7  89435547.87245  21841072.430                    21841082.145
 124767652.224 7  97221553.08543  23742510.422                    23742522.383
 11  8 23 17 35 30.0000000  0  9G11G28G08G07G01G24G19G13G23
 116034598.407 7  90416648.30745  22080644.539                    22080654.930
 119482615.052 7  93103249.79345  22736745.594                    22736754.734
 113003342.820 8  88054618.50845  21503812.148                    21503821.617
 107666557.377 8  83896063.346 8  20488260.859                    20488269.195
 123807125.704 7  96473213.434 7  23559729.828                    23559745.344
 123162052.558 6  95970516.08343  23436955.844                    23436970.656
 116075925.804 7  90448790.42045  22088515.000                    22088522.625
 114870211.348 7  89509286.10845  21859079.969                    21859090.223
 124881415.939 7  97310199.82743  23764159.453                    23764171.402
 11  8 23 17 36  0.0000000  0  9G11G28G08G07G01G24G19G13G23
 115982736.977 7  90376236.82845  22070775.961                    22070785.426
 119448747.868 7  93076859.79945  22730300.883                    22730309.652
 112935771.209 8  88001965.30545  21490953.898                    21490963.492
 107640541.416 8  83875791.166 7  20483309.867                    20483318.609
 123731957.315 7  96414640.730 6  23545425.609                    23545441.309
 123092022.329 7  95915947.18643  23423629.391                    23423643.895
 116154884.432 7  90510316.58045  22103540.164                    22103547.797
 114965156.590 7  89583269.31345  21877147.922                    21877157.941
 124995231.067 7  97398886.68844  23785818.313                    23785829.727
 11  8 23 17 36 30.0000000  0 10G11G28G08G07G01G17G24G19G13G23
 115931267.343 7  90336130.64545  22060981.250                    22060991.277
 119415016.652 7  93050575.74445  22723881.938                    22723891.086
 112868329.553 8  87949413.37945  21478120.172                    21478129.578
 107614846.206 8  83855768.913 8  20478420.406                    20478428.965
 123656892.544 7  96356148.806 6  23531141.344                    23531156.473
 129516257.59117 100921822.20615  24646134.453                    24646148.512
 123022115.869 6  95861474.74943  23410326.398                    23410340.805
 116234228.840 7  90572143.34245  22118639.180                    22118646.582
 115060412.764 7  89657494.80945  21895274.680                    21895284.723
 125109094.689 7  97487611.30844  23807486.102                    23807498.012
 11  8 23 17 37  0.0000000  0 10G11G28G08G07G01G17G24G19G13G23
 115880192.295 7  90296331.93945  22051262.102                    22051272.008
 119381420.585 7  93024397.00945  22717488.375                    22717497.883
 112801019.958 8  87896964.35646  21465311.727                    21465320.836
 107589473.535 8  83835997.982 7  20473592.281                    20473600.574
 123581934.346 7  96297739.889 6  23516877.492                    23516892.121
 129411725.319 6 100840368.632 6  24626242.438                    24626256.434
 122952336.371 7  95807101.23243  23397047.719                    23397061.973
 116313956.271 7  90634268.57445  22133810.203                    22133818.145
 115155977.147 7  89731960.46545  21913460.133                    21913469.813
 125223004.172 6  97576371.65043  23829162.281                    23829174.406
 11  8 23 17 37 30.0000000  0 10G11G28G08G07G01G17G24G19G13G23
 115829515.471 7  90256843.53745  22041618.633                    22041628.500
 119347959.537 7  92998323.46745  22711121.008                    22711130.406
 112733845.316 8  87844620.49046  21452528.656                    21452537.930
 107564426.689 8  83816480.936 8  20468826.008                    20468834.141
 123507086.768 7  96239417.176 6  23502633.664                    23502649.609
 129307294.229 6 100758993.895 5  24606370.227                    24606384.180
 122882687.794 7  95752829.69643  23383794.422                    23383808.031
 116394065.004 7  90696690.91545  22149054.703                    22149062.723
 115251848.044 7  89806664.95245  21931704.148                    21931714.012
 125336957.454 6  97665166.11143  23850847.406                    23850858.879
 11  8 23 17 38  0.0000000  0 10G11G28G08G07G01G17G24G19G13G23
 115779238.760 7  90217666.90045  22032050.750                    22032061.000
 119314631.928 7  92972353.92245  22704778.977                    22704788.238
 112666807.257 8  87792383.05846  21439771.641                    21439781.641
 107539706.915 8  83797218.764 8  20464121.633                    20464130.414
 123432351.927 7  96181182.319 7  23488412.188                    23488428.285
 129202966.251 6 100677699.549 6  24586516.727                    24586530.938
 122813172.548 7  95698662.05443  23370566.266                    23370579.781
 116474551.514 7  90759407.62845  22164371.172                    22164378.559
 115348021.253 7  89881605.01345  21950004.828                    21950014.824
 125450950.798 6  97753991.83443  23872539.688                    23872551.441
 11  8 23 17 38 30.0000000  0 10G11G28G08G07G01G17G24G19G13G23
 115729364.744 7  90178804.06145  22022560.367                    22022570.453
 119281436.642 7  92946487.47345  22698462.469                    22698471.492
 112599907.899 8  87740253.69146  21427041.078                    21427051.180
 107515315.757 8  83778212.657 8  20459480.555                    20459489.141
 123357733.352 6  96123038.079 6  23474212.398                    23474227.934
 129098742.687 6 100596486.569 6  24566682.695                    24566697.273
 122743793.667 6  95644600.70443  23357363.500                    23357377.344
 116555413.153 7  90822416.65345  22179758.492                    22179766.410
 115444493.871 7  89956778.38245  21968363.094                    21968373.516
 125564981.510 6  97842846.65043  23894239.078                    23894251.000
 11  8 23 17 39  0.0000000  0 10G11G28G08G07G01G17G24G19G13G23
 115679895.472 7  90140256.59945  22013146.586                    22013156.559
 119248372.344 7  92920723.09045  22692170.422                    22692179.531
 112533148.859 8  87688233.67245  21414337.500                    21414346.723
 107491254.930 8  83759463.939 8  20454901.719                    20454910.242
 123283233.363 7  96064986.241 7  23460035.711                    23460051.418
 128994625.812 6 100515356.717 6  24546870.258                    24546884.910
 122674554.062 6  95590647.85743  23344187.617                    23344201.398
 116636646.890 7  90885715.63745  22195216.836                    22195224.613
 115541262.400 7  90032182.32845  21986777.633                    21986787.559
 125679046.651 6  97931728.24943  23915944.563                    23915957.398
 11  8 23 17 39 30.0000000  0 10G11G28G08G07G01G17G24G19G13G23
 115630834.114 7  90102026.99045  22003810.563                    22003820.652
 119215438.424 7  92895060.31145  22685903.211                    22685912.605
 112466532.727 8  87636325.00145  21401660.391                    21401669.934
 107467526.300 8  83740974.090 8  20450386.383                    20450395.145
 123208855.481 7  96007029.560 7  23445882.234                    23445897.535
 128890617.493 6 100434311.486 6  24527077.695                    24527092.867
 122605456.769 7  95536805.95944  23331038.430                    23331052.594
 116718250.012 7  90949302.43345  22210745.414                    22210752.902
 115638324.123 7  90107814.73145  22005248.242                    22005257.988
 125793143.432 6  98020634.51043  23937657.594                    23937669.254
 11  8 23 17 40  0.0000000  0 10G11G28G08G07G01G17G24G19G13G23
 115582183.190 8  90064117.20545  21994552.203                    21994562.691
 119182634.035 7  92869498.45645  22679660.875                    22679670.184
 112400061.468 8  87584529.22746  21389011.320                    21389021.176
 107444131.899 8  83722744.668 8  20445934.617                    20445943.469
 123134602.611 7  95949170.268 7  23431751.992                    23431767.754
 128786720.366 6 100353352.871 6  24507307.031                    24507321.477
 122536504.906 6  95483077.34944  23317917.352                    23317931.797
 116800219.808 7  91013174.95845  22226343.641                    22226351.625
 115735676.487 7  90183673.60045  22023773.258                    22023783.699
 125907269.083 6  98109563.25943  23959375.125                    23959387.301
 11  8 23 17 40 30.0000000  0 10G11G28G08G07G01G17G24G19G13G23
 115533945.112 8  90026529.12545  21985373.109                    21985382.973
 119149958.075 7  92844036.69145  22673442.383                    22673451.988
 112333737.672 8  87532848.36246  21376390.352                    21376399.969
 107421073.596 8  83704777.154 8  20441546.711                    20441555.094
 123060478.009 7  95891410.943 6  23417646.898                    23417661.586
 128682936.362 6 100272482.408 6  24487557.523                    24487571.855
 122467701.598 7  95429464.49443  23304824.484                    23304838.637
 116882553.369 7  91077330.93045  22242010.688                    22242019.574
 115833315.961 7  90259756.20045  22042353.930                    22042363.953
 126021420.354 6  98198512.00743  23981097.352                    23981109.340
 11  8 23 17 41  0.0000000  0 10G11G28G08G07G01G17G24G19G13G23
 115486122.894 8  89989265.09645  21976273.570                    21976282.992
 119117410.000 7  92818674.57145  22667249.180                    22667258.164
 112267563.486 7  87481284.06546  21363797.977                    21363807.309
 107398353.522 8  83687073.195 8  20437223.180                    20437232.109
 122986484.604 7  95833753.845 6  23403566.398                    23403581.465
 128579267.788 6 100191701.892 6  24467830.563                    24467844.281
 122399050.197 6  95375970.02744  23291760.859                    23291774.496
 116965247.871 7  91141768.14945  22257747.383                    22257755.801
 115931239.690 7  90336060.30045  22060988.063                    22060998.598
 126135595.039 6  98287478.94043  24002824.813                    24002837.016
 11  8 23 17 41 30.0000000  0 10G11G28G08G07G01G17G24G19G13G23
 115438718.682 8  89952326.79045  21967252.438                    21967262.035
 119084988.442 7  92793411.02845  22661079.227                    22661088.902
 112201540.953 8  87429837.94746  21351234.211                    21351243.609
 107375973.413 8  83669634.139 8  20432964.555                    20432972.902
 122912625.093 7  95776201.075 7  23389510.352                    23389526.504
 128475716.299 6 100111012.625 6  24448124.695                    24448138.738
 122330553.820 7  95322596.33043  23278726.422                    23278740.184
 117048300.816 7  91206484.67945  22273552.586                    22273560.387
 116029444.790 7  90412583.63945  22079676.164                    22079686.379
 126249790.014 7  98376461.70243  24024555.477                    24024568.445
 11  8 23 17 42  0.0000000  0 10G11G28G08G07G01G17G24G19G13G23
 115391735.290 7  89915716.40245  21958311.711                    21958321.539
 119052692.539 7  92768245.40145  22654933.305                    22654942.914
 112135672.040 8  87378511.53346  21338700.242                    21338709.426
 107353935.187 8  83652461.474 8  20428770.344                    20428779.441
 122838903.296 7  95718755.605 6  23375481.781                    23375497.781
 128372284.238 7 100030416.400 6  24428442.289                    24428456.004
 122262215.652 7  95269345.92244  23265721.836                    23265735.273
 117131709.288 7  91271478.24745  22289424.273                    22289431.867
 116127928.386 7  90489323.98945  22098416.859                    22098427.328
 126364002.691 6  98465458.28443  24046289.609                    24046302.148
 11  8 23 17 42 30.0000000  0 10G11G28G08G07G01G17G24G19G13G23
 115345174.561 7  89879435.34845  21949450.852                    21949460.730
 119020521.184 7  92743176.82345  22648811.594                    22648820.621
 112069959.045 8  87327306.61146  21326195.156                    21326204.738
 107332240.351 8  83635556.385 8  20424642.180                    20424650.613
 122765321.615 7  95661419.329 6  23361479.508                    23361495.313
 128268973.485 7  99949914.673 6  24408782.680                    24408796.328
 122194038.296 7  95216220.82144  23252748.156                    23252761.980
 117215470.305 7  91336746.52945  22305363.219                    22305371.160
 116226686.961 7  90566278.61745  22117209.945                    22117220.844
 126478230.019 6  98554466.23343  24068027.102                    24068039.285
 11  8 23 17 43  0.0000000  0 10G11G28G08G07G01G17G24G19G13G23
 115299039.196 7  89843485.74645  21940672.211                    21940682.145
 118988473.485 7  92718204.61445  22642713.164                    22642722.355
 112004404.250 8  87276224.96846  21313720.430                    21313729.680
 107310891.028 8  83618920.537 8  20420579.836                    20420588.070
 122691883.387 7  95604194.846 7  23347505.289                    23347519.965
 128165786.524 7  99869509.382 6  24389146.969                    24389160.832
 122126024.879 7  95163223.47944  23239804.625                    23239819.211
 117299581.066 7  91402287.32445  22321369.281                    22321376.543
 116325717.320 7  90643445.00945  22136055.023                    22136065.574
 126592469.224 6  98643483.45143  24089766.133                    24089778.738
 11  8 23 17 43 30.0000000  0 10G11G28G08G07G01G17G24G19G13G23
 115253332.181 8  89807869.92245  21931974.188                    21931983.988
 118956548.888 7  92693328.30745  22636638.219                    22636647.418
 111939009.963 8  87225268.39346  21301276.156                    21301285.730
 107289889.678 8  83602555.836 8  20416583.375                    20416591.789
 122618591.916 6  95547084.731 7  23333557.500                    23333573.227
 128062725.235 7  99789202.033 6  24369534.352                    24369548.355
 122058178.916 6  95110356.61344  23226894.883                    23226908.523
 117384039.297 7  91468098.88145  22337440.984                    22337449.523
 116425017.237 7  90720821.45745  22154951.469                    22154961.664
 126706718.135 6  98732508.21543  24111506.883                    24111519.645
 11  8 23 17 44  0.0000000  0 10G11G28G08G07G01G17G24G19G13G23
 115208055.970 8  89772589.79645  21923358.727                    21923368.117
 118924746.251 7  92668547.03445  22630586.109                    22630595.398
 111873778.072 8  87174438.35146  21288862.953                    21288872.391
 107269237.167 8  83586462.952 8  20412653.344                    20412661.883
 122545450.121 7  95490091.220 7  23319639.031                    23319654.996
 127959791.638 6  99708994.176 6  24349946.984                    24349960.508
 121990503.273 7  95057622.46444  23214015.969                    23214029.906
 117468841.609 7  91534178.54245  22353578.672                    22353586.313
 116524583.311 7  90798405.31445  22173898.477                    22173908.512
 126820973.302 6  98821537.87743  24133249.461                    24133261.762
 11  8 23 17 44 30.0000000  0 10G11G28G08G07G01G17G24G19G13G23
 115163212.307 8  89737646.71845  21914824.984                    21914834.660
 118893063.989 7  92643859.56945  22624557.328                    22624566.254
 111808711.134 8  87123736.85146  21276481.375                    21276490.199
 107248935.047 8  83570643.101 8  20408790.297                    20408798.258
 122472460.426 7  95433216.238 7  23305749.695                    23305764.934
 127856987.463 6  99628887.162 6  24330383.063                    24330397.324
 121923000.590 7  95005023.07844  23201170.828                    23201184.797
 117553984.806 7  91600523.82445  22369780.797                    22369788.395
 116624411.645 7  90876193.52145  22192894.719                    22192905.348
 126935231.757 6  98910570.06743  24154991.891                    24155004.855
 11  8 23 17 45  0.0000000  0 10G11G28G08G07G01G17G24G19G13G23
 115118804.303 8  89703043.10745  21906374.289                    21906384.027
 118861501.743 7  92619265.60745  22618550.938                    22618560.535
 111743811.645 8  87073165.83046  21264131.133                    21264140.996
 107228985.977 8  83555098.349 8  20404994.141                    20405002.227
 122399627.110 7  95376463.094 7  23291890.297                    23291905.188
 127754315.144 6  99548882.933 6  24310845.703                    24310859.762
 121855674.342 7  94952561.17844  23188358.750                    23188372.703
 117639466.700 7  91667133.03945  22386047.180                    22386055.074
 116724499.999 7  90954184.34745  22211941.219                    22211951.605
 127049491.579 6  98999603.32442  24176734.977                    24176747.992
 11  8 23 17 45 30.0000000  0 10G11G28G08G07G01G17G24G19G13G23
 115074834.230 8  89668780.74845  21898007.289                    21898016.801
 118830058.676 7  92594764.52945  22612568.008                    22612577.230
 111679081.343 8  87022726.64846  21251813.273                    21251822.691
 107209391.673 8  83539830.042 8  20401265.109                    20401273.590
 122326952.609 7  95319833.717 7  23278060.766                    23278075.734
 127651776.816 6  99468983.108 6  24291333.109                    24291347.301
 121788527.701 7  94900239.24844  23175581.156                    23175594.758
 117725284.398 7  91734003.90045  22402377.805                    22402386.133
 116824845.424 7  91032375.47445  22231036.711                    22231047.406
 127163749.483 6  99088635.10142  24198478.328                    24198491.250
 11  8 23 17 46  0.0000000  0 10G11G28G08G07G01G17G24G19G13G23
 115031304.455 8  89634861.47245  21889723.984                    21889733.344
 118798733.906 7  92570355.62245  22606606.844                    22606616.059
 111614522.710 8  86972421.22646  21239528.633                    21239537.492
 107190154.214 8  83524839.792 8  20397604.516                    20397613.203
 122254440.193 7  95263330.623 7  23264262.141                    23264277.105
 127549374.643 6  99389189.320 6  24271846.531                    24271860.281
 121721563.913 7  94848059.77243  23162838.227                    23162851.746
 117811435.057 7  91801134.22245  22418771.852                    22418779.816
 116925444.888 7  91110764.54944  22250179.930                    22250190.980
 127278002.848 6  99177663.39343  24220220.453                    24220232.969
 11  8 23 17 46 30.0000000  0 10G11G28G08G07G01G17G24G19G13G23
 114988217.428 8  89601287.19745  21881524.813                    21881533.813
 118767525.951 7  92546037.75045  22600668.172                    22600677.449
 111550137.859 8  86922251.22546  21227276.328                    21227285.809
 107171274.924 8  83510128.644 8  20394011.961                    20394020.633
 122182092.379 7  95206955.808 7  23250494.102                    23250509.727
 127447110.477 6  99309503.070 6  24252386.258                    24252399.445
 121654785.799 6  94796024.98343  23150131.367                    23150144.090
 117897915.820 7  91868521.78445  22435228.781                    22435236.582
 117026294.854 7  91189348.81145  22269371.023                    22269381.785
 127392248.724 6  99266685.82243  24241960.844                    24241973.434
 11  8 23 17 47  0.0000000  0 10G11G28G08G07G01G17G24G19G13G23
 114945575.149 8  89568059.48845  21873410.070                    21873419.613
 118736433.978 7  92521810.24645  22594751.555                    22594760.977
 111485929.158 8  86872218.46346  21215057.930                    21215067.566
 107152755.390 8  83495697.829 8  20390487.813                    20390496.543
 122109912.494 7  95150711.835 7  23236758.570                    23236774.109
 127344986.180 6  99229925.839 6  24232952.898                    24232965.957
 121588196.441 7  94744137.27843  23137459.148                    23137472.453
 117984723.506 7  91936164.07545  22451748.133                    22451756.207
 117127392.082 7  91268125.75245  22288609.336                    22288620.258
 127506484.366 6  99355700.23543  24263699.141                    24263712.578
 11  8 23 17 47 30.0000000  0 10G11G28G08G07G01G17G24G19G13G23
 114903380.427 8  89535180.51245  21865380.336                    21865389.941
 118705457.323 7  92497672.60045  22588857.008                    22588865.957
 111421899.107 8  86822324.92246  21202873.523                    21202882.594
 107134598.268 8  83481549.409 8  20387032.563                    20387041.039
 122037903.702 7  95094601.185 7  23223055.742                    23223071.215
 127243004.167 6  99150459.487 6  24213545.016                    24213559.273
 121521799.162 7  94692399.23044  23124824.109                    23124837.008
 118071855.929 7  92004059.41345  22468328.836                    22468336.645
 117228734.132 7  91347093.46944  22307894.078                    22307904.848
 127620707.522 6  99444704.90743  24285435.648                    24285449.543
 11  8 23 17 48  0.0000000  0 10G11G28G08G07G01G17G24G19G13G23
 114861635.590 8  89502652.08745  21857437.016                    21857446.238
 118674594.875 7  92473623.94945  22582983.922                    22582993.023
 111358049.890 8  86772572.28746  21190723.320                    21190732.809
 107116804.663 8  83467684.251 8  20383646.500                    20383655.340
 121966069.295 7  95038626.434 7  23209386.820                    23209401.078
 127141166.342 6  99071105.480 6  24194167.141                    24194180.109
 121455596.657 7  94640812.95643  23112226.539                    23112239.430
 118159309.848 7  92072205.26245  22484970.906                    22484978.531
 117330317.812 7  91426249.44944  22327224.977                    22327236.063
 127734914.863 6  99533697.28743  24307168.891                    24307182.621
 11  8 23 17 48 30.0000000  0 10G11G28G08G07G01G17G24G19G13G23
 114820342.622 8  89470475.76745  21849578.859                    21849588.828
 118643845.587 7  92449663.47745  22577132.289                    22577141.875
 111294383.604 8  86722962.19646  21178607.883                    21178617.375
 107099376.232 8  83454103.637 8  20380329.914                    20380338.500
 121894411.878 7  94982789.594 7  23195750.055                    23195766.082
 127039474.461 7  98991865.192 6  24174815.688                    24174828.848
 121389591.820 7  94589380.72044  23099666.047                    23099679.074
 118247082.269 7  92140599.30345  22501672.836                    22501680.680
 117432139.507 7  91505590.90245  22346601.367                    22346611.996
 127849103.731 6  99622675.26443  24328898.633                    24328912.328
 11  8 23 17 49  0.0000000  0 10G11G28G08G07G01G17G24G19G13G23
 114779504.215 8  89438653.64145  21841807.648                    21841817.246
 118613208.649 7  92425790.54945  22571302.672                    22571311.961
 111230902.514 8  86673496.42346  21166527.695                    21166537.617
 107082315.175 8  83440809.290 8  20377083.656                    20377092.219
 121822934.885 7  94927093.344 7  23182148.195                    23182163.941
 126937930.837 7  98912740.428 6  24155492.344                    24155505.871
 121323788.293 7  94538105.35043  23087143.695                    23087156.910
 118335170.618 7  92209239.51145  22518435.695                    22518443.727
 117534196.819 7  91585115.95844  22366022.219                    22366033.141
 127963271.805 6  99711637.05443  24350623.703                    24350638.531
 11  8 23 17 49 30.0000000  0 10G11G28G08G07G01G17G24G19G13G23
 114739122.874 8  89407187.68345  21834123.188                    21834133.223
 118582683.232 7  92402004.53045  22565493.695                    22565502.457
 111167609.466 8  86624177.15746  21154483.555                    21154492.984
 107065623.601 8  83427802.854 8  20373907.398                    20373915.711
 121751641.356 7  94871540.064 7  23168581.859                    23168596.996
 126836537.875 6  98833733.072 6  24136197.859                    24136210.832
 121258189.448 6  94486989.44844  23074660.531                    23074673.734
 118423572.089 7  92278123.72145  22535258.297                    22535266.477
 117636486.777 7  91664822.28344  22385487.492                    22385498.027
 128077416.471 6  99800580.55143  24372345.266                    24372359.613
 11  8 23 17 50  0.0000000  0 10G11G28G08G07G01G17G24G19G13G23
 114699200.483 8  89376079.34445  21826526.258                    21826535.926
 118552268.343 7  92378304.62845  22559705.648                    22559715.102
 111104506.507 8  86575006.02646  21142475.297                    21142484.633
 107049302.825 8  83415085.347 8  20370801.430                    20370809.781
 121680534.374 7  94816132.129 7  23155050.758                    23155065.043
 126735297.154 7  98754844.330 6  24116932.430                    24116945.090
 121192797.673 7  94436034.92143  23062215.938                    23062229.465
 118512283.800 7  92347249.66845  22552139.906                    22552148.074
 117739005.715 7  91744707.04944  22404996.398                    22405006.922
 128191534.569 6  99889503.33143  24394061.398                    24394076.078
 11  8 23 17 50 30.0000000  0 10G11G28G08G07G01G17G24G19G13G23
 114659739.463 8  89345330.51145  21819016.992                    21819026.543
 118521963.036 7  92354690.11445  22553938.797                    22553948.551
 111041595.842 8  86525984.74146  21130503.797                    21130513.711
 107033354.883 8  83402658.359 8  20367766.750                    20367775.152
 121609616.829 7  94760871.798 7  23141555.344                    23141570.316
 126634211.103 7  98676076.116 6  24097695.883                    24097708.945
 121127616.530 6  94385244.49144  23049812.891                    23049826.563
 118601302.886 7  92416615.12045  22569079.063                    22569087.672
 117841751.029 7  91824768.20344  22424548.203                    22424558.938
 128305623.773 6  99978403.60243  24415772.422                    24415787.086
 11  8 23 17 51  0.0000000  0 10G11G28G08G07G01G17G24G19G13G23
 114620741.676 8  89314942.64345  21811596.188                    21811605.828
 118491766.250 7  92331160.16345  22548192.656                    22548201.824
 110978879.719 8  86477115.03546  21118569.227                    21118579.035
 107017780.952 8  83390522.821 8  20364803.047                    20364811.352
 121538892.220 7  94705761.802 7  23128097.172                    23128111.852
 126533280.891 7  98597429.346 6  24078489.711                    24078502.387
 121062648.758 7  94334620.34044  23037450.320                    23037463.492
 118690626.270 7  92486217.72345  22586076.961                    22586085.457
 117944718.933 7  91905002.80844  22444142.125                    22444153.320
 128419680.809 6 100067278.86743  24437477.563                    24437491.773
 11  8 23 17 51 30.0000000  0 10G11G28G08G07G01G17G24G19G13G23
 114582210.199 8  89284918.13545  21804264.094                    21804273.254
 118461677.337 7  92307714.26545  22542467.203                    22542476.313
 110916361.214 7  86428399.32246  21106672.641                    21106682.047
 107002583.681 8  83378680.773 8  20361911.078                    20361920.020
 121468363.731 7  94650804.633 7  23114675.422                    23114690.492
 126432509.708 6  98518906.500 6  24059313.805                    24059326.309
 120997898.102 6  94284165.37944  23025128.281                    23025141.598
 118780251.887 7  92556055.80645  22603132.078                    22603139.918
 118047907.322 7  91985409.19844  22463778.461                    22463789.480
 128533703.821 6 100156127.57643  24459176.000                    24459189.801
 11  8 23 17 52  0.0000000  0  9G11G28G08G07G01G17G24G19G13
 114544146.889 8  89255258.42545  21797020.867                    21797030.113
 118431695.486 7  92284351.80045  22536761.453                    22536770.949
 110854042.502 8  86379839.30046  21094813.953                    21094823.180
 106987764.440 8  83367133.302 8  20359090.930                    20359099.516
 121398034.436 7  94596002.686 7  23101291.977                    23101307.250
 126331899.056 6  98440508.734 6  24040167.234                    24040180.344
 120933367.137 7  94233881.60744  23012848.969                    23012861.523
 118870176.724 7  92626127.05345  22620244.609                    22620252.613
 118151312.797 7  92065984.76744  22483455.797                    22483467.102
 11  8 23 17 52 30.0000000  0  9G11G28G08G07G01G17G24G19G13
 114506554.092 7  89225965.35245  21789866.938                    21789876.227
 118401819.257 7  92261071.62645  22531076.445                    22531085.512
 110791925.599 7  86331436.53146  21082993.469                    21083002.664
 106973324.869 8  83355881.673 8  20356343.313                    20356352.012
 121327906.711 7  94541357.813 7  23087947.492                    23087961.992
 126231450.799 6  98362237.548 6  24021052.273                    24021066.020
 120869058.896 6  94183771.37944  23000610.711                    23000624.672
 118960397.636 7  92696429.00045  22637413.234                    22637421.352
 118254932.288 7  92146727.08644  22503174.500                    22503185.676
 11  8 23 17 53  0.0000000  0  9G11G28G08G07G01G17G24G19G13
 114469433.695 7  89197040.38945  21782803.000                    21782812.699
 118372047.799 7  92237873.10245  22525411.297                    22525419.984
 110730012.611 7  86283192.65146  21071211.711                    21071221.480
 106959266.805 8  83344927.319 8  20353667.695                    20353676.563
 121257983.866 7  94486872.580 7  23074641.320                    23074655.867
 126131167.126 6  98284094.530 6  24001969.492                    24001982.301
 120804976.438 6  94133837.09244  22988416.492                    22988430.195
 119050911.635 7  92766959.34645  22654637.125                    22654645.227
 118358762.408 7  92227633.52644  22522932.070                    22522943.973
 11  8 23 17 53 30.0000000  0  9G11G28G08G07G01G17G24G19G13
 114432787.805 7  89168485.17145  21775829.383                    21775839.465
 118342380.319 7  92214755.59745  22519765.633                    22519774.445
 110668305.933 8  86235109.53546  21059469.242                    21059478.754
 106945591.673 8  83334271.357 8  20351065.844                    20351074.309
 121188268.801 7  94432549.237 7  23061375.375                    23061389.871
 126031049.857 6  98206081.210 6  23982917.789                    23982930.352
 120741122.700 7  94084081.02343  22976265.281                    22976278.375
 119141715.607 7  92837715.62345  22671916.641                    22671924.672
 118462799.940 7  92308701.57744  22542730.531                    22542741.863
 11  8 23 17 54  0.0000000  0 10G11G28G08G07G01G17G24G26G19G13
 114396618.523 7  89140301.33145  21768947.078                    21768956.367
 118312815.685 7  92191718.23145  22514139.453                    22514148.363
 110606808.083 8  86187189.14646  21047766.469                    21047776.215
 106932301.099 8  83323915.040 8  20348536.750                    20348545.523
 121118764.675 7  94378390.267 7  23048149.008                    23048163.930
 125931100.692 6  98128198.895 6  23963897.445                    23963911.223
 120677500.773 6  94034505.58144  22964158.445                    22964171.375
 127477415.08416  99333136.64853  24258154.961                    24258167.383
 119232806.922 7  92908695.82345  22689250.930                    22689258.758
 118567041.804 7  92389928.86644  22562566.563                    22562578.480
 11  8 23 17 54 30.0000000  0 10G11G28G08G07G01G17G24G26G19G13
 114360927.800 7  89112490.40745  21762155.086                    21762164.262
 118283352.609 7  92168759.99545  22508533.016                    22508541.715
 110545521.077 7  86139433.03346  21036103.961                    21036113.473
 106919396.657 8  83313859.613 8  20346081.328                    20346090.063
 121049474.601 7  94324398.081 7  23034963.180                    23034977.898
 125831321.791 6  98050449.277 6  23944909.898                    23944923.691
 120614113.396 6  93985112.88644  22952096.469                    22952109.633
 127390222.725 6  99265194.61843  24241563.250                    24241575.992
 119324182.656 7  92979897.62545  22706639.570                    22706648.059
 118671484.746 7  92471312.82044  22582441.695                    22582453.371
 11  8 23 17 55  0.0000000  0 10G11G28G08G07G01G17G24G26G19G13
 114325717.902 8  89085054.13945  21755454.328                    21755463.969
 118253990.578 7  92145880.51845  22502945.445                    22502953.930
 110484448.060 8  86091843.67646  21024482.148                    21024491.582
 106906880.327 8  83304106.609 8  20343699.367                    20343708.152
 120980401.886 7  94270575.269 7  23021818.719                    23021834.113
 125731715.477 7  97972834.113 6  23925955.602                    23925968.289
 120550964.122 6  93935905.73144  22940078.883                    22940092.363
 127303413.457 6  99197551.04642  24225043.297                    24225056.398
 119415840.072 7  93051318.93845  22724080.859                    22724089.387
 118776125.894 7  92552851.23744  22602354.414                    22602366.164
 11  8 23 17 55 30.0000000  0 10G11G28G08G07G01G17G24G26G19G13
 114290991.133 7  89057994.32745  21748846.664                    21748856.582
 118224728.881 7  92123079.20145  22497377.227                    22497386.105
 110423590.930 8  86044422.53846  21012901.602                    21012910.953
 106894753.725 8  83294657.290 8  20341392.078                    20341400.508
 120911549.011 6  94216923.766 7  23008716.602                    23008731.602
 125632283.342 6  97895354.649 6  23907034.266                    23907047.523
 120488055.921 6  93886886.43144  22928108.305                    22928121.809
 127216990.000 6  99130208.12243  24208598.031                    24208609.926
 119507776.127 7  93122957.37045  22741575.859                    22741584.207
 118880962.204 7  92634541.70744  22622304.102                    22622315.668
 11  8 23 17 56  0.0000000  0 10G11G28G08G07G01G17G24G26G19G13
 114256749.523 7  89031312.56445  21742330.445                    21742340.297
 118195566.325 7  92100355.16045  22491827.555                    22491836.410
 110362952.010 8  85997171.44446  21001362.500                    21001371.848
 106883018.575 8  83285513.006 8  20339158.672                    20339167.281
 120842919.689 7  94163446.466 7  22995656.711                    22995671.973
 125533027.227 7  97818012.337 6  23888146.656                    23888159.211
 120425391.579 7  93838057.16044  22916183.531                    22916197.141
 127130955.114 6  99063168.02543  24192225.547                    24192238.141
 119599988.356 7  93194810.96845  22759123.258                    22759131.852
 118985990.536 7  92716381.82244  22642290.406                    22642301.965
 11  8 23 17 56 30.0000000  0 10G11G28G08G07G01G17G24G26G19G13
 114222995.249 7  89005010.54645  21735907.313                    21735917.098
 118166502.206 7  92077707.81545  22486296.891                    22486306.254
 110302534.435 7  85950092.82146  20989865.453                    20989874.734
 106871676.730 8  83276675.192 8  20337000.320                    20337008.754
 120774516.333 7  94110145.241 7  22982640.453                    22982654.848
 125433949.576 7  97740809.083 6  23869292.492                    23869305.273
 120362974.608 6  93789420.63044  22904306.188                    22904319.391
 127045311.680 6  98996432.92743  24175928.500                    24175940.898
 119692474.026 7  93266877.67145  22776722.406                    22776731.395
 119091207.835 7  92798369.19144  22662313.219                    22662324.406
 11  8 23 17 57  0.0000000  0 10G11G28G08G07G01G17G24G26G19G13
 114189730.241 7  88979089.77245  21729577.453                    21729586.977
 118137535.527 7  92055136.40145  22480784.734                    22480793.914
 110242340.100 8  85903188.14646  20978410.477                    20978420.020
 106860729.809 8  83268145.108 8  20334917.094                    20334925.789
 120706342.474 7  94057022.833 7  22969667.102                    22969681.590
 125335052.287 6  97663746.410 6  23850472.477                    23850485.672
 120300807.927 7  93740979.14444  22892475.906                    22892489.918
 126960062.315 6  98930004.81843  24159706.414                    24159718.246
 119785230.123 7  93339155.07645  22794373.594                    22794382.121
 119196611.351 7  92880501.64544  22682370.820                    22682382.160
 11  8 23 17 57 30.0000000  0 10G11G28G08G07G01G17G24G26G19G13
 114156956.185 7  88953551.55945  21723340.484                    21723350.348
 118108665.118 7  92032640.00645  22475290.523                    22475299.809
 110182371.188 8  85856459.12946  20966998.734                    20967008.219
 106850179.220 8  83259923.845 8  20332909.609                    20332918.156
 120638400.908 7  94004081.437 7  22956738.523                    22956753.152
 125236337.170 7  97586825.675 6  23831688.195                    23831701.074
 120238894.274 7  93692734.81944  22880694.008                    22880707.359
 126875209.591 6  98863885.88843  24143558.961                    24143571.695
 119878253.700 7  93411640.92745  22812075.148                    22812084.047
 119302197.616 7  92962776.49144  22702463.344                    22702474.992
 11  8 23 17 58  0.0000000  0 10G11G28G08G07G01G17G24G26G19G13
 114124675.389 7  88928397.70845  21717197.289                    21717207.195
 118079890.250 7  92010218.04145  22469815.180                    22469824.629
 110122630.147 8  85809907.68046  20955630.461                    20955640.270
 106840026.687 8  83252012.766 8  20330977.094                    20330986.168
 120570695.006 6  93951323.673 7  22943853.742                    22943868.895
 125137806.165 6  97510048.403 6  23812938.125                    23812950.770
 120177236.664 7  93644690.00644  22868960.727                    22868973.938
 126790756.409 6  98798078.26443  24127487.961                    24127500.715
 119971541.753 7  93484332.83145  22829827.633                    22829836.453
 119407963.794 7  93045191.55744  22722589.898                    22722601.160
 11  8 23 17 58 30.0000000  0 10G11G28G08G07G01G17G24G26G19G13
 114092889.744 7  88903629.69045  21711148.547                    21711158.379
 118051209.909 7  91987869.73145  22464357.563                    22464366.418
 110063119.731 8  85763535.92946  20944306.039                    20944315.688
 106830273.728 8  83244413.034 8  20329121.609                    20329130.543
 120503227.757 7  93898751.889 7  22931016.000                    22931030.016
 125039461.055 6  97433415.997 6  23794223.688                    23794236.195
 120115838.391 7  93596847.27844  22857277.023                    22857290.195
 126706705.292 6  98732583.89343  24111494.102                    24111505.934
 120065091.665 7  93557228.81745  22847629.727                    22847638.531
 119513906.569 7  93127744.19244  22742750.164                    22742762.047
 11  8 23 17 59  0.0000000  0 10G11G28G08G07G01G17G24G26G19G13
 114061601.316 7  88879249.11845  21705195.141                    21705204.750
 118022623.376 7  91965594.53045  22458917.617                    22458927.090
 110003842.146 8  85717345.60046  20933026.008                    20933035.379
 106820922.214 8  83237126.115 8  20327342.109                    20327350.586
 120436001.444 7  93846367.828 7  22918222.930                    22918237.254
 124941304.213 6  97356930.300 6  23775544.883                    23775557.379
 120054702.418 7  93549208.94744  22845643.320                    22845656.219
 126623059.158 6  98667405.16742  24095576.172                    24095588.438
 120158900.573 7  93630326.61445  22865481.352                    22865489.289
 119620022.780 7  93210431.97944  22762943.820                    22762955.195
 11  8 23 17 59 30.0000000  0 10G11G28G08G07G01G17G24G26G19G13
 114030811.875 8  88855257.35745  21699336.125                    21699345.770
 117994129.313 7  91943391.36645  22453495.367                    22453504.281
 109944799.800 8  85671338.58246  20921790.617                    20921800.141
 106811973.480 8  83230153.057 8  20325639.211                    20325648.297
 120369019.853 7  93794174.483 7  22905476.680                    22905491.109
 124843337.118 7  97280592.432 6  23756902.305                    23756914.621
 119993831.773 7  93501777.36044  22834060.320                    22834072.891
 126539820.625 6  98602544.02943  24079737.148                    24079748.910
 120252965.716 7  93703624.06345  22883380.836                    22883390.047
 119726309.296 7  93293252.47544  22783169.367                    22783180.449
 11  8 23 18  0  0.0000000  0 10G11G28G08G07G01G17G24G26G19G13
 114000523.593 8  88831656.11345  21693572.398                    21693582.086
 117965727.223 7  91921259.87545  22448090.734                    22448100.113
 109885995.634 8  85625517.14746  20910600.445                    20910610.047
 106803429.559 8  83223495.437 8  20324013.508                    20324022.129
 120302286.177 7  93742174.279 7  22892777.672                    22892792.477
 124745562.024 7  97204404.171 6  23738296.273                    23738309.277
 119933229.636 7  93454555.01344  22822527.914                    22822540.875
 126456992.404 6  98538002.58642  24063974.180                    24063987.688
 120347284.358 7  93777119.04644  22901329.492                    22901337.828
 119832763.366 7  93376203.53944  22803427.195                    22803438.566
 11  8 23 18  0 30.0000000  0 10G11G28G08G07G01G17G24G26G19G13
 113970738.102 8  88808446.65045  21687904.336                    21687913.953
 117937416.189 7  91899199.33745  22442703.156                    22442712.625
 109827431.671 8  85579882.90246  20899456.391                    20899465.820
 106795291.831 8  83217154.334 8  20322465.094                    20322473.805
 120235803.209 7  93690369.437 7  22880125.820                    22880140.770
 124647980.738 7  97128366.934 6  23719726.555                    23719739.711
 119872898.813 7  93407544.05544  22811046.695                    22811059.766
 126374577.095 6  98473782.90543  24048291.492                    24048303.922
 120441853.535 7  93850809.25745  22919325.563                    22919333.852
 119939381.795 7  93459282.67444  22823716.469                    22823727.762
 11  8 23 18  1  0.0000000  0 10G11G28G08G07G01G17G24G26G19G13
 113941457.547 8  88785630.64645  21682332.281                    21682341.789
 117909195.008 7  91877208.81345  22437332.883                    22437342.000
 109769110.402 8  85534437.75446  20888358.117                    20888367.711
 106787561.681 8  83211130.828 8  20320994.016                    20321002.453
 120169573.746 7  93638762.141 7  22867522.867                    22867537.746
 124550595.061 7  97052482.101 6  23701195.070                    23701207.250
 119812842.274 7  93360746.84844  22799619.133                    22799632.082
 126292577.269 6  98409886.98543  24032687.930                    24032700.527
 120536670.475 7  93924692.52845  22937368.570                    22937376.781
 120046161.429 7  93542487.42844  22844035.883                    22844046.949
 11  8 23 18  1 30.0000000  0 10G11G28G08G07G01G17G24G26G19G13
 113912683.576 7  88763209.38545  21676856.711                    21676866.270
 117881063.351 7  91855288.04445  22431979.555                    22431988.855
 109711034.163 8  85489183.53846  20877306.336                    20877315.992
 106780240.502 8  83205426.003 8  20319600.813                    20319609.273
 120103600.841 7  93587354.746 7  22854968.734                    22854983.059
 124453407.091 7  96976751.324 6  23682700.398                    23682713.313
 119753062.811 7  93314165.51844  22788242.930                    22788255.836
 126210995.628 6  98346316.92643  24017163.000                    24017176.008
 120631732.171 7  93998766.52845  22955458.031                    22955466.465
 120153098.921 7  93625815.19144  22864385.859                    22864397.199
 11  8 23 18  2  0.0000000  0 10G11G28G08G07G01G17G24G26G19G13
 113884418.327 7  88741184.53445  21671477.656                    21671487.527
 117853020.338 7  91833436.34345  22426643.320                    22426652.508
 109653205.769 8  85444122.45046  20866301.945                    20866311.430
 106773330.462 8  83200041.532 8  20318285.961                    20318294.520
 120037887.821 7  93536149.894 7  22842463.391                    22842478.281
 124356418.800 7  96901176.161 6  23664244.250                    23664257.004
 119693563.751 6  93267802.70944  22776920.961                    22776933.320
 126129834.857 6  98283074.79643  24001718.500                    24001730.977
 120727035.864 7  94073029.08244  22973593.930                    22973602.605
 120260191.867 7  93709264.06444  22884764.195                    22884776.613
 11  8 23 18  2 30.0000000  0 10G11G28G08G07G01G17G24G26G19G13
 113856663.455 7  88719557.38545  21666196.148                    21666205.836
 117825064.285 7  91811652.42045  22421323.305                    22421332.418
 109595627.380 8  85399256.17546  20855345.438                    20855355.000
 106766832.635 8  83194978.273 8  20317049.500                    20317057.961
 119972437.377 7  93485149.618 7  22830008.602                    22830023.602
 124259631.923 7  96825757.951 6  23645826.508                    23645839.242
 119634348.049 6  93221660.71144  22765652.156                    22765664.578
 126049097.681 6  98220162.80343  23986354.766                    23986367.336
 120822578.799 7  94147478.07344  22991774.289                    22991783.805
 120367436.492 7  93792831.13844  22905173.055                    22905184.711
 11  8 23 18  3  0.0000000  0 10G11G28G08G07G01G17G24G26G19G13
 113829420.699 7  88698329.28745  21661012.352                    21661022.156
 117797194.968 7  91789936.07245  22416019.953                    22416029.770
 109538301.842 8  85354586.91946  20844436.602                    20844446.313
 106760748.887 8  83190237.678 8  20315891.859                    20315900.703
 119907252.891 7  93434356.576 7  22817604.484                    22817619.414
 124163048.425 7  96750498.227 6  23627446.656                    23627459.645
 119575418.811 6  93175741.92344  22754438.125                    22754451.254
 125968786.621 6  98157582.79443  23971072.070                    23971085.070
 120918358.302 7  94222111.38344  23010001.688                    23010010.125
 120474830.077 7  93876514.26044  22925609.055                    22925620.988
 11  8 23 18  3 30.0000000  0 10G11G28G08G07G01G17G24G26G19G13
 113802691.927 7  88677501.69245  21655926.180                    21655935.871
 117769411.453 7  91768286.59245  22410733.219                    22410742.176
 109481231.215 8  85310116.29846  20833576.500                    20833585.988
 106755080.904 8  83185821.039 8  20314813.211                    20314821.723
 119842337.561 7  93383773.268 7  22805251.797                    22805266.734
 124066670.379 7  96675398.581 6  23609106.734                    23609119.227
 119516778.754 7  93130048.46744  22743279.133                    22743291.699
 125888904.309 6  98095336.87443  23955870.805                    23955883.227
 121014371.547 7  94296926.85144  23028271.734                    23028281.066
 120582369.572 7  93960311.07944  22946073.477                    22946085.395
 11  8 23 18  4  0.0000000  0 10G11G28G08G07G01G17G24G26G19G13
 113776478.891 7  88657075.95445  21650938.016                    21650947.434
 117741712.733 7  91746703.18145  22405461.992                    22405471.316
 109424418.207 8  85265846.42346  20822765.328                    20822774.914
 106749829.875 8  83181729.315 8  20313814.109                    20313823.023
 119777693.600 7  93333401.439 7  22792950.047                    22792965.402
 123970499.410 6  96600460.300 6  23590805.109                    23590818.234
 119458430.993 7  93084582.75844  22732175.391                    22732188.516
 125809453.174 6  98033426.99443  23940752.227                    23940764.449
 121110615.742 7  94371922.25744  23046587.188                    23046595.422
 120690051.859 7  94044219.17044  22966564.891                    22966576.582
 11  8 23 18  4 30.0000000  0 10G11G28G08G07G01G17G24G26G19G13
 113750783.155 7  88637053.32045  21646047.961                    21646058.008
 117714097.403 7  91725184.76445  22400206.891                    22400215.984
 109367865.338 8  85221779.25646  20812003.742                    20812013.332
 106744997.065 8  83177963.473 8  20312894.430                    20312903.383
 119713324.226 7  93283243.552 7  22780700.922                    22780715.715
 123874537.547 6  96525684.979 6  23572544.109                    23572557.527
 119400378.397 7  93039347.06844  22721128.750                    22721141.535
 125730435.599 6  97971854.92743  23925715.859                    23925728.074
 121207087.894 6  94447095.30144  23064944.641                    23064953.836
 120797873.829 7  94128236.10744  22987082.922                    22987095.035
 11  8 23 18  5  0.0000000  0 10G11G28G08G07G01G17G24G26G19G13
 113725606.465 7  88617435.11545  21641257.266                    21641266.492
 117686565.309 7  91703731.19545  22394967.977                    22394977.031
 109311574.668 8  85177916.39946  20801291.711                    20801301.379
 106740584.026 8  83174524.726 8  20312054.539                    20312063.211
 119649232.280 7  93233301.857 7  22768504.602                    22768519.203
 123778785.995 6  96451073.542 6  23554323.336                    23554336.746
 119342623.798 6  92994343.56244  22710138.984                    22710151.500
 125651854.552 6  97910623.00443  23910761.313                    23910774.410
 121303785.064 7  94522443.65945  23083345.898                    23083354.570
 120905832.240 7  94212359.37044  23007626.617                    23007639.109
 11  8 23 18  5 30.0000000  0 10G11G28G08G07G01G17G24G26G19G13
 113700950.253 7  88598222.49445  21636565.250                    21636574.879
 117659115.172 7  91682341.49145  22389744.234                    22389753.805
 109255549.042 8  85134260.07846  20790630.469                    20790640.348
 106736592.163 8  83171414.168 8  20311294.914                    20311303.703
 119585421.019 7  93183578.839 7  22756362.055                    22756376.266
 123683247.205 7  96376627.860 6  23536143.188                    23536155.672
 119285170.377 7  92949574.74644  22699205.344                    22699218.484
 125573712.270 6  97849733.01743  23895891.336                    23895904.660
 121400704.416 7  94597965.15744  23101789.250                    23101798.086
 121013923.996 7  94296586.56644  23028196.141                    23028207.906
 11  8 23 18  6  0.0000000  0 10G11G28G08G07G01G17G24G26G19G13
 113676816.551 7  88579417.03445  21631972.766                    21631982.531
 117631746.332 7  91661015.13845  22384535.969                    22384545.461
 109199790.802 8  85090812.09946  20780019.930                    20780029.809
 106733023.278 8  83168633.195 8  20310615.781                    20310624.559
 119521893.416 7  93134076.876 7  22744272.648                    22744287.371
 123587922.839 7  96302349.273 6  23518002.719                    23518015.801
 119228020.807 7  92905042.70844  22688330.289                    22688342.617
 125496011.380 7  97789186.92043  23881106.156                    23881118.129
 121497843.495 6  94673657.88944  23120274.203                    23120282.879
 121122145.970 7  94380915.20944  23048790.883                    23048802.266
 11  8 23 18  6 30.0000000  0 10G11G28G08G07G01G17G24G26G19G13
 113653206.918 7  88561019.92845  21627480.008                    21627489.746
 117604457.792 7  91639751.35245  22379343.133                    22379352.465
 109144302.281 8  85047574.30446  20769460.938                    20769470.801
 106729878.538 8  83166182.723 8  20310017.469                    20310026.074
 119458651.884 7  93084797.809 7  22732238.289                    22732252.809
 123492814.683 7  96228239.146 6  23499905.203                    23499917.219
 119171178.087 7  92860749.76944  22677513.414                    22677526.059
 125418754.075 7  97728986.45843  23866403.727                    23866416.184
 121595199.549 7  94749519.70044  23138800.539                    23138808.832
 121230495.129 7  94465342.94944  23069408.398                    23069420.773
 11  8 23 18  7  0.0000000  0 10G11G28G08G07G01G17G24G26G19G13
 113630123.044 7  88543032.49645  21623087.047                    21623096.625
 117577248.654 7  91618549.44045  22374165.680                    22374174.773
 109089086.089 8  85004548.71846  20758953.492                    20758963.305
 106727159.556 8  83164064.004 8  20309500.008                    20309508.996
 119395700.082 7  93035744.515 7  22720259.086                    22720274.203
 123397924.990 7  96154299.230 6  23481847.766                    23481860.250
 119114645.224 7  92816698.27844  22666755.203                    22666768.098
 125341943.197 6  97669133.88943  23851786.992                    23851800.215
 121692769.406 7  94825548.09445  23157367.313                    23157376.512
 121338968.739 7  94549867.65744  23090050.508                    23090062.344
 11  8 23 18  7 30.0000000  0 10G11G28G08G07G01G17G24G26G19G13
 113607566.294 7  88525455.81745  21618794.852                    21618804.504
 117550118.074 7  91597408.73845  22369002.828                    22369012.086
 109034144.542 8  84961737.13046  20748498.422                    20748508.344
 106724867.256 8  83162277.780 8  20309063.680                    20309072.664
 119333040.681 7  92986919.074 7  22708335.203                    22708350.191
 123303254.861 7  96080530.420 6  23463832.898                    23463845.203
 119058425.095 7  92772890.46244  22656056.672                    22656069.844
 125265581.241 7  97609631.17743  23837254.883                    23837268.871
 121790550.199 7  94901740.86044  23175974.477                    23175983.164
 121447563.218 7  94634486.56744  23110715.578                    23110727.777
 11  8 23 18  8  0.0000000  0 10G11G28G08G07G01G17G24G26G19G13
 113585538.409 7  88508291.23845  21614603.094                    21614613.055
 117523065.451 7  91576328.77845  22363854.742                    22363864.563
 108979480.539 8  84919141.81946  20738096.570                    20738106.098
 106723003.753 8  83160825.676 8  20308709.227                    20308717.957
 119270676.803 7  92938323.905 7  22696467.867                    22696482.148
 123208806.520 7  96006934.413 6  23445859.492                    23445871.703
 119002520.678 7  92729328.65044  22645418.688                    22645431.680
 125189670.824 6  97550480.24543  23822810.773                    23822822.836
 121888539.691 7  94978096.23445  23194620.750                    23194630.383
 121556275.941 7  94719197.56044  23131402.461                    23131415.414
 11  8 23 18  8 30.0000000  0 10G11G28G08G07G01G17G24G26G19G13
 113564041.163 7  88491540.14245  21610512.109                    21610522.070
 117496089.872 7  91555308.85945  22358721.242                    22358730.754
 108925097.031 8  84876765.07346  20727747.648                    20727757.164
 106721570.456 8  83159708.797 8  20308436.375                    20308445.223
 119208611.788 7  92889961.610 7  22684656.602                    22684672.121
 123114582.128 7  95933512.925 6  23427929.398                    23427941.352
 118946935.035 7  92686015.24244  22634840.703                    22634853.406
 125114214.480 6  97491683.18043  23808451.867                    23808464.445
 121986735.092 7  95054612.06144  23213307.531                    23213316.070
 121665104.206 7  94803998.63544  23152112.570                    23152124.250
 11  8 23 18  9  0.0000000  0 10G11G28G08G07G01G17G24G26G19G13
 113543075.951 7  88475203.63345  21606522.352                    21606532.027
 117469190.719 7  91534348.49545  22353602.680                    22353612.242
 108870996.272 8  84834608.65046  20717452.430                    20717462.254
 106720568.676 8  83158928.161 8  20308245.727                    20308254.805
 119146848.226 7  92841834.224 7  22672904.180                    22672918.379
 123020583.466 6  95860267.323 6  23410041.063                    23410054.039
 118891670.932 7  92642952.38444  22624324.828                    22624337.230
 125039214.601 6  97433241.74543  23794180.180                    23794192.402
 122085133.301 7  95131285.93644  23232032.070                    23232040.746
 121774044.629 7  94888887.08744  23172843.211                    23172855.871
 11  8 23 18  9 30.0000000  0 10G11G28G08G07G01G17G24G26G19G13
 113522644.391 7  88459282.94145  21602634.633                    21602644.352
 117442366.639 7  91513446.63345  22348498.313                    22348507.543
 108817180.074 8  84792673.96146  20707211.781                    20707221.309
 106719999.803 7  83158484.864 8  20308137.594                    20308146.629
 119085388.701 7  92793943.746 7  22661208.727                    22661223.156
 122926811.928 6  95787198.709 6  23392197.375                    23392209.191
 118836731.227 7  92600142.30044  22613869.805                    22613882.496
 124964673.488 6  97375157.86443  23779994.609                    23780007.242
 122183731.878 6  95208115.94144  23250794.281                    23250803.367
 121883094.263 7  94973860.64144  23193594.883                    23193607.129
 11  8 23 18 10  0.0000000  0 10G11G28G08G07G01G17G24G26G19G13
 113502748.186 8  88443779.41745  21598848.320                    21598857.887
 117415616.779 7  91492602.60645  22343407.750                    22343417.176
 108763651.625 8  84750963.49046  20697025.266                    20697034.863
 106719864.772 8  83158379.619 8  20308111.938                    20308121.063
 119024236.371 7  92746292.636 7  22649571.820                    22649586.305
 122833269.496 6  95714308.640 6  23374396.625                    23374409.086
 118782118.797 7  92557587.23744  22603477.172                    22603490.148
 124890593.537 6  97317433.31143  23765897.180                    23765910.609
 122282527.914 6  95285099.79844  23269594.609                    23269604.051
 121992249.687 7  95058916.62344  23214366.523                    23214379.430
 11  8 23 18 10 30.0000000  0 10G11G28G08G07G01G17G24G26G19G13
 113483388.290 8  88428693.79645  21595164.297                    21595173.719
 117388940.519 7  91471815.91345  22338331.414                    22338340.754
 108710412.991 8  84709478.84346  20686894.289                    20686904.008
 106720165.102 8  83158613.617 8  20308169.000                    20308178.094
 118963393.769 7  92698882.866 7  22637993.734                    22638008.207
 122739958.044 7  95641598.517 6  23356640.000                    23356652.215
 118727836.317 7  92515289.27044  22593147.336                    22593160.363
 124816977.104 6  97260069.91343  23751889.500                    23751901.641
 122381518.628 6  95362235.33944  23288432.688                    23288441.262
 122101507.953 7  95144052.73943  23235157.656                    23235170.105
 11  8 23 18 11  0.0000000  0 10G11G28G08G07G01G17G24G26G19G13
 113464566.236 8  88414027.26545  21591582.805                    21591592.223
 117362337.425 7  91451086.25445  22333269.156                    22333278.473
 108657467.060 8  84668222.27946  20676819.148                    20676828.699
 106720902.405 8  83159188.118 8  20308309.195                    20308318.285
 118902864.418 7  92651717.184 7  22626475.000                    22626489.965
 122646878.972 7  95569069.497 6  23338927.664                    23338939.898
 118673887.116 7  92473251.00244  22582881.797                    22582894.383
 124743826.756 6  97203069.70843  23737968.734                    23737981.578
 122480701.366 6  95439520.52444  23307305.953                    23307314.949
 122210866.106 7  95229266.68843  23255968.133                    23255980.590
 11  8 23 18 11 30.0000000  0 10G11G28G08G07G01G17G24G26G19G13
 113446283.652 8  88399781.10745  21588103.398                    21588113.422
 117335806.245 7  91430412.61945  22328220.313                    22328229.547
 108604816.234 8  84627195.67346  20666799.969                    20666809.797
 106722077.911 8  83160104.068 8  20308533.195                    20308542.211
 118842651.002 7  92604797.705 7  22615016.813                    22615031.285
 122554034.398 7  95496723.204 6  23321259.992                    23321272.094
 118620273.688 7  92431474.37544  22572679.156                    22572691.754
 124671144.822 6  97146434.50043  23724138.820                    23724150.773
 122580073.369 6  95516953.20844  23326215.891                    23326224.867
 122320321.187 7  95314556.17743  23276796.734                    23276809.574
 11  8 23 18 12  0.0000000  0 10G11G28G08G07G01G17G24G26G19G13
 113428541.675 8  88385956.18945  21584727.531                    21584737.266
 117309346.423 7  91409794.60145  22323185.070                    22323194.809
 108552462.682 8  84586400.71046  20656837.594                    20656847.570
 106723692.885 8  83161362.467 8  20308840.156                    20308849.555
 118782756.350 7  92558126.617 7  22603619.117                    22603633.309
 122461426.059 7  95424560.992 7  23303637.148                    23303648.969
 118566998.688 7  92389961.43944  22562540.672                    22562554.172
 124598933.616 6  97090166.05043  23710396.594                    23710409.047
 122679631.864 6  95594531.17744  23345161.539                    23345170.672
 122429869.889 7  95399918.61643  23297643.445                    23297656.375
 11  8 23 18 12 30.0000000  0 10G11G28G08G07G01G17G24G26G19G13
 113411341.737 8  88372553.64845  21581454.539                    21581463.672
 117282956.502 7  91389231.03845  22318163.414                    22318172.809
 108500409.136 8  84545839.50246  20646932.133                    20646941.516
 106725748.344 8  83162964.105 8  20309231.719                    20309240.715
 118723183.443 6  92511706.235 7  22592282.813                    22592296.871
 122369055.478 7  95352584.010 6  23286059.805                    23286071.453
 118514065.223 7  92348714.63944  22552467.625                    22552480.883
 124527195.178 6  97034266.01743  23696745.836                    23696757.176
 122779373.926 7  95672252.19444  23364141.461                    23364150.836
 122539509.503 7  95485351.89544  23318507.406                    23318519.688
 11  8 23 18 13  0.0000000  0 10G11G28G08G07G01G17G24G26G19G13
 113394685.431 8  88359574.71345  21578284.719                    21578294.195
 117256636.455 7  91368721.92245  22313154.992                    22313164.797
 108448658.560 8  84505514.38446  20637084.547                    20637094.016
 106728246.337 7  83164910.574 8  20309707.055                    20309715.926
 118663935.252 7  92465538.864 7  22581007.852                    22581022.543
 122276924.710 7  95280793.865 6  23268527.336                    23268539.320
 118461476.288 7  92307736.28844  22542460.469                    22542474.195
 124455932.476 7  96978736.67043  23683184.930                    23683196.488
 122879297.138 6  95750114.37344  23383156.703                    23383165.559
 122649237.228 7  95570853.83843  23339388.578                    23339401.211
 11  8 23 18 13 30.0000000  0 10G11G28G08G07G01G17G24G26G19G13
 113378573.813 8  88347020.22045  21575218.578                    21575228.199
 117230385.033 7  91348266.28445  22308159.617                    22308168.832
 108397212.975 8  84465426.92546  20627294.602                    20627304.406
 106731187.604 8  83167202.439 8  20310266.750                    20310275.680
 118605014.456 7  92419626.615 7  22569795.789                    22569810.148
 122185035.222 7  95209191.765 6  23251041.742                    23251053.996
 118409234.444 7  92267028.41045  22532519.719                    22532532.164
 124385147.730 7  96923579.77443  23669714.641                    23669726.891
 122979398.593 7  95828115.43044  23402205.867                    23402214.297
 122759049.612 7  95656421.71743  23360284.719                    23360297.293
 11  8 23 18 14  0.0000000  0 10G11G28G08G07G01G17G24G26G19G13
 113363008.583 8  88334891.47945  21572256.984                    21572266.461
 117204201.256 7  91327863.35445  22303176.359                    22303186.199
 108346074.694 8  84425578.92146  20617563.117                    20617572.527
 106734573.264 8  83169840.597 8  20310910.656                    20310920.098
 118546424.067 7  92373971.831 7  22558646.445                    22558661.012
 122093388.884 7  95137779.118 6  23233601.781                    23233613.227
 118357342.591 7  92226593.25944  22522644.750                    22522657.672
 124314842.845 7  96868796.79343  23656336.438                    23656348.234
 123079675.216 7  95906252.99744  23421287.953                    23421296.348
 122868943.674 7  95742053.25743  23381196.977                    23381210.352
 11  8 23 18 14 30.0000000  0 10G11G28G08G07G01G17G24G26G19G13
 113347990.404 8  88323189.02545  21569398.641                    21569408.750
 117178084.575 7  91307512.71145  22298206.867                    22298216.410
 108295246.508 8  84385972.55146  20607890.648                    20607900.227
 106738404.412 8  83172825.883 8  20311639.859                    20311649.313
 118488166.592 7  92328576.454 7  22547559.859                    22547574.574
 122001987.085 7  95066557.008 6  23216208.633                    23216220.242
 118305803.478 7  92186432.96144  22512836.797                    22512849.992
 124245020.155 7  96814389.52443  23643049.484                    23643061.211
 123180124.694 7  95984525.25844  23440402.750                    23440411.875
 122978916.365 7  95827746.04643  23402124.055                    23402137.129
 11  8 23 18 15  0.0000000  0 10G11G28G08G07G01G17G24G26G19G13
 113333520.945 8  88311914.12745  21566645.727                    21566655.180
 117152034.229 7  91287213.75145  22293249.414                    22293259.297
 108244730.746 8  84346609.62246  20598277.813                    20598287.848
 106742682.651 8  83176159.559 8  20312453.906                    20312463.227
 118430245.103 7  92283442.894 7  22536538.430                    22536552.316
 121910831.837 7  94995527.030 6  23198862.023                    23198873.773
 118254619.888 7  92146549.69844  22503096.727                    22503109.586
 124175682.213 7  96760359.99444  23629854.930                    23629866.977
 123280744.196 7  96062929.98944  23459550.188                    23459558.559
 123088964.643 6  95913497.71743  23423065.461                    23423079.133
 11  8 23 18 15 30.0000000  0 10G11G28G08G07G01G17G24G26G19G13
 113319601.458 8  88301067.79145  21563996.633                    21564006.246
 117126049.442 7  91266965.88345  22288304.852                    22288314.211
 108194530.226 8  84307492.34846  20588725.242                    20588735.152
 106747409.156 8  83179842.527 8  20313353.555                    20313362.918
 118372662.873 7  92238573.694 7  22525580.680                    22525595.000
 121819924.925 7  94924690.539 6  23181563.320                    23181574.797
 118203794.765 7  92106945.75144  22493426.039                    22493438.211
 124106831.236 7  96706709.90343  23616752.945                    23616764.832
 123381531.048 7  96141465.11644  23478728.867                    23478737.898
 123199085.733 6  95999306.16443  23444021.203                    23444034.270
 11  8 23 18 16  0.0000000  0 10G11G28G08G07G01G17G24G26G19G13
 113306233.046 8  88290650.86945  21561453.055                    21561462.484
 117100129.393 7  91246768.45045  22283372.609                    22283382.020
 108144647.135 8  84268622.41246  20579232.727                    20579242.262
 106752585.062 8  83183875.688 8  20314338.133                    20314348.168
 118315421.916 7  92193970.404 7  22514688.242                    22514702.254
 121729267.985 7  94854048.851 6  23164311.266                    23164323.070
 118153330.601 7  92067623.08744  22483822.016                    22483835.148
 124038469.248 7  96653440.86743  23603744.352                    23603756.691
 123482482.825 7  96220128.77244  23497939.750                    23497948.488
 123309276.560 6  96085168.93943  23464990.258                    23465002.688
 11  8 23 18 16 30.0000000  0 10G11G28G08G07G01G17G24G26G19G13
 113293416.876 8  88280664.26845  21559013.773                    21559023.727
 117074273.448 7  91226620.97545  22278452.313                    22278461.551
 108095084.483 8  84230002.16746  20569801.555                    20569811.063
 106758211.560 8  83188259.956 8  20315409.055                    20315418.406
 118258525.460 7  92149635.566 7  22503861.164                    22503875.199
 121638862.744 7  94783603.296 6  23147107.813                    23147119.328
 118103230.238 7  92028583.87844  22474288.633                    22474300.809
 123970598.604 7  96600554.70543  23590828.086                    23590841.035
 123583596.926 7  96298918.92044  23517180.883                    23517190.090
 123419534.024 6  96171083.63343  23485971.383                    23485984.602
 11  8 23 18 17  0.0000000  0 10G11G28G08G07G01G17G24G26G19G13
 113281154.183 8  88271108.94145  21556680.391                    21556690.383
 117048480.664 7  91206522.71345  22273544.273                    22273553.387
 108045844.276 8  84191633.17346  20560431.242                    20560440.816
 106764289.777 8  83192996.210 8  20316565.750                    20316575.238
 118201976.330 7  92105571.373 7  22493100.266                    22493114.453
 121548710.750 7  94713355.062 6  23129952.656                    23129964.504
 118053496.375 7  91989830.28044  22464824.602                    22464837.133
 123903221.534 7  96548053.15344  23578007.297                    23578019.172
 123684870.184 6  96377833.06844  23536452.430                    23536462.039
 123529855.039 7  96257047.86543  23506965.531                    23506978.418
 11  8 23 18 17 30.0000000  0 10G11G28G08G07G01G17G24G26G19G13
 113269446.249 8  88261985.89245  21554452.367                    21554462.000
 117022750.436 7  91186473.19545  22268647.406                    22268656.789
 107996929.600 8  84153517.84546  20551122.750                    20551132.426
 106770821.067 8  83198085.511 8  20317808.750                    20317817.918
 118145777.295 7  92061779.977 7  22482405.570                    22482419.754
 121458813.785 7  94643305.556 6  23112845.688                    23112857.684
 118004131.746 7  91951364.37744  22455430.742                    22455443.371
 123836340.301 7  96495937.93244  23565280.414                    23565292.207
 123786300.226 7  96456869.39244  23555754.469                    23555762.680
 123640236.997 6  96343059.55643  23527970.594                    23527983.379
 11  8 23 18 18  0.0000000  0 10G11G28G08G07G01G17G24G26G19G13
 113258294.039 8  88253295.85845  21552330.164                    21552339.961
 116997081.781 7  91166471.64645  22263763.266                    22263772.219
 107948343.060 8  84115658.20346  20541877.172                    20541886.801
 106777806.560 8  83203528.731 8  20319137.977                    20319147.094
 118089931.233 7  92018263.612 7  22471778.625                    22471792.863
 121369173.458 7  94573456.023 6  23095787.602                    23095799.836
 117955139.224 7  91913188.42444  22446107.688                    22446120.813
 123769956.928 7  96444210.65844  23552647.836                    23552659.832
 123887884.558 7  96536025.92944  23575085.547                    23575093.738
 123750676.645 7  96429116.21543  23548986.617                    23548999.965
 11  8 23 18 18 30.0000000  0 10G11G28G08G07G01G17G24G26G19G13
 113247698.333 8  88245039.48145  21550313.695                    21550323.633
 116971473.968 7  91146517.52445  22258889.969                    22258899.379
 107900086.313 8  84078055.55446  20532694.414                    20532704.469
 106785246.883 8  83209326.370 8  20320553.922                    20320563.016
 118034440.821 7  91975024.379 7  22461218.797                    22461233.172
 121279791.255 7  94503807.629 6  23078778.602                    23078790.285
 117906521.134 7  91875304.24644  22436856.188                    22436868.012
 123704073.561 6  96392873.03244  23540110.125                    23540122.824
 123989619.802 7  96615300.06244  23594444.383                    23594453.688
 123861171.045 7  96515215.52143  23570012.844                    23570026.566
 11  8 23 18 19  0.0000000  0 10G11G28G08G07G01G17G24G26G19G13
 113237660.198 8  88237217.56345  21548403.656                    21548413.852
 116945925.962 7  91126609.99845  22254028.719                    22254037.707
 107852162.197 8  84040712.08446  20523574.797                    20523584.137
 106793143.179 8  83215479.306 8  20322056.258                    20322065.906
 117979308.484 7  91932064.160 7  22450727.102                    22450742.008
 121190668.678 7  94434361.536 6  23061819.008                    23061831.348
 117858280.403 7  91837714.11644  22427676.227                    22427688.555
 123638692.002 6  96341926.42143  23527669.070                    23527680.531
 124091503.803 7  96694690.13644  23613832.305                    23613841.477
 123971717.110 7  96601355.09343  23591049.438                    23591063.020
 11  8 23 18 19 30.0000000  0 10G11G28G08G07G01G17G24G26G19G13
 113228180.910 8  88229831.11245  21546600.094                    21546609.398
 116920437.355 7  91106748.74845  22249178.359                    22249187.660
 107804573.420 8  84003629.92146  20514519.008                    20514528.629
 106801496.848 8  83221988.634 8  20323646.078                    20323655.434
 117924537.442 7  91889385.478 7  22440305.461                    22440319.262
 121101807.799 7  94365119.383 6  23044909.266                    23044921.023
 117810419.893 7  91800420.26944  22418568.820                    22418580.527
 123573814.832 7  96291372.85644  23515322.133                    23515334.953
 124193533.688 6  96774193.88444  23633247.844                    23633257.199
 124082311.963 6  96687532.63043  23612095.117                    23612108.895
 11  8 23 18 20  0.0000000  0 10G11G28G08G07G01G17G24G26G19G13
 113219261.684 8  88222881.09045  21544902.656                    21544912.699
 116895007.512 7  91086933.30045  22244339.109                    22244348.359
 107757322.512 8  83966811.03846  20505527.258                    20505536.977
 106810309.077 8  83228855.282 8  20325322.938                    20325332.109
 117870130.261 7  91846990.336 7  22429951.570                    22429965.641
 121013210.126 7  94296082.320 7  23028049.664                    23028061.188
 117762942.126 7  91763424.67044  22409533.797                    22409546.012
 123509443.936 6  96241213.79643  23503072.859                    23503085.344
 124295707.065 7  96853809.40744  23652691.070                    23652700.066
 124192952.796 7  96773746.02543  23633148.852                    23633163.227
 11  8 23 18 20 30.0000000  0 10G11G28G08G07G01G17G24G26G19G13
 113210903.342 8  88216368.11145  21543312.008                    21543321.621
 116869635.617 7  91067163.00245  22239510.711                    22239520.168
 107710412.045 8  83930257.43346  20496600.688                    20496610.184
 106819580.723 8  83236079.908 8  20327087.750                    20327096.641
 117816090.043 7  91804881.143 7  22419668.039                    22419681.824
 120924877.201 7  94227251.567 6  23011240.742                    23011252.320
 117715849.632 7  91726729.27644  22400572.141                    22400584.418
 123445581.634 6  96191451.04343  23490920.781                    23490932.582
 124398021.313 7  96933534.74544  23672161.656                    23672169.855
 124303636.487 6  96859992.79443  23654212.133                    23654226.133
 11  8 23 18 21  0.0000000  0 10G11G28G08G07G01G17G24G26G19G13
 113203106.777 8  88210292.86945  21541828.516                    21541838.023
 116844321.287 7  91047437.55945  22234693.773                    22234703.008
 107663844.642 8  83893971.14946  20487739.211                    20487748.582
 106829312.909 8  83243663.393 8  20328939.469                    20328948.848
 117762418.993 7  91763059.596 7  22409454.648                    22409468.625
 120836810.703 7  94158628.395 7  22994481.898                    22994493.754
 117669145.433 7  91690336.44844  22391684.594                    22391696.699
 123382230.060 6  96142086.23543  23478864.789                    23478877.164
 124500473.751 6  97013367.74044  23691657.703                    23691666.680
 124414360.169 6  96946270.74143  23675282.633                    23675296.570
 11  8 23 18 21 30.0000000  0 10G11G28G08G07G01G17G24G26G19G13
 113195872.945 8  88204656.13345  21540451.570                    21540461.480
 116819063.140 7  91027755.89545  22229887.305                    22229896.645
 107617622.531 8  83857953.91846  20478943.563                    20478953.055
 106839506.414 8  83251606.352 8  20330879.336                    20330888.434
 117709120.258 7  91721528.169 7  22399312.156                    22399326.262
 120749012.300 7  94090214.134 6  22977774.359                    22977786.875
 117622831.809 7  91654247.96044  22382871.039                    22382883.457
 123319390.870 6  96093120.65143  23466907.258                    23466919.551
 124603061.759 6  97093306.38244  23711178.758                    23711188.184
 124525120.862 7  97032577.54243  23696359.430                    23696373.453
 11  8 23 18 22  0.0000000  0 10G11G28G08G07G01G17G24G26G19G13
 113189203.126 8  88199458.87745  21539182.664                    21539192.242
 116793861.121 7  91008117.97345  22225091.563                    22225100.754
 107571748.307 8  83822207.77746  20470213.773                    20470223.367
 106850163.139 8  83259910.261 8  20332907.031                    20332916.348
 117656196.048 7  91680288.568 7  22389240.875                    22389255.590
 120661483.554 7  94022009.995 7  22961118.336                    22961129.602
 117576911.693 7  91618466.11045  22374132.898                    22374145.391
 123257066.548 6  96044556.30143  23455047.008                    23455059.477
 124705782.839 6  97173348.73144  23730726.406                    23730735.301
 124635915.736 7  97118910.97643  23717442.852                    23717457.012
 11  8 23 18 22 30.0000000  0 10G11G28G08G07G01G17G24G26G19G13
 113183097.960 8  88194701.62445  21538020.648                    21538030.719
 116768713.883 7  90988522.73045  22220305.992                    22220315.867
 107526224.762 8  83786734.88746  20461550.703                    20461560.508
 106861283.473 8  83268575.426 8  20335023.258                    20335032.813
 117603649.676 7  91639343.369 7  22379241.930                    22379256.086
 120574225.760 7  93954016.989 6  22944513.453                    22944524.480
 117531387.504 7  91582992.75644  22365470.219                    22365482.750
 123195258.723 6  95996394.37843  23443285.398                    23443297.801
 124808634.341 6  97253492.68644  23750298.516                    23750307.547
 124746741.931 7  97205268.82143  23738532.305                    23738546.887
 11  8 23 18 23  0.0000000  0 10G11G28G08G07G01G17G24G26G19G13
 113177557.933 8  88190384.73345  21536966.359                    21536976.363
 116743621.032 7  90968969.87445  22215531.000                    22215540.203
 107481053.590 8  83751536.56846  20452955.117                    20452964.715
 106872867.869 8  83277602.193 8  20337227.813                    20337237.137
 117551483.473 7  91598694.426 7  22369314.711                    22369328.738
 120487240.706 7  93886236.480 6  22927960.508                    22927972.551
 117486261.648 7  91547829.80744  22356882.609                    22356895.406
 123133969.264 6  95948636.39843  23431622.742                    23431634.262
 124911613.134 6  97333735.80544  23769894.953                    23769903.973
 124857596.256 7  97291648.53843  23759628.266                    23759642.121
 11  8 23 18 23 30.0000000  0 10G11G28G08G07G01G17G24G26G19G13
 113172583.675 8  88186508.69545  21536019.813                    21536029.781
 116718581.300 7  90949458.40845  22210766.211                    22210775.520
 107436237.223 8  83716614.72746  20444426.414                    20444436.352
 106884917.316 8  83286991.343 8  20339520.828                    20339530.117
 117499699.375 7  91558343.223 7  22359460.609                    22359474.855
 120400529.603 7  93818669.466 7  22911459.328                    22911471.691
 117441536.552 7  91512979.13344  22348371.648                    22348384.344
 123073199.941 6  95901283.74443  23420059.086                    23420071.195
 125014716.848 6  97414076.28644  23789514.859                    23789523.715
 124968475.579 7  97378047.79943  23780727.781                    23780741.652
 11  8 23 18 24  0.0000000  0 10G11G28G08G07G01G17G24G26G19G13
 113168176.599 8  88183074.60945  21535181.156                    21535191.395
 116693594.478 8  90929988.17145  22206011.523                    22206020.750
 107391778.870 8  83681971.85046  20435966.508                    20435976.418
 106897433.295 8  83296744.019 8  20341902.602                    20341912.039
 117448300.931 7  91518292.526 7  22349679.789                    22349694.113
 120314094.378 7  93751317.438 7  22895012.055                    22895023.840
 117397215.027 7  91478442.93944  22339937.852                    22339950.488
 123012953.128 6  95854338.22443  23408593.695                    23408605.758
 125117943.370 6  97494512.46144  23809157.914                    23809167.699
 125079377.228 6  97464464.41243  23801831.773                    23801845.563
 11  8 23 18 24 30.0000000  0 10G11G28G08G07G01G17G24G26G19G13
 113164337.701 7  88180083.25745  21534450.922                    21534460.410
 116668660.373 8  90910559.01545  22201266.555                    22201275.613
 107347681.302 8  83647610.11046  20427575.500                    20427584.902
 106910417.167 8  83306861.270 8  20344373.281                    20344382.520
 117397290.950 7  91478544.545 7  22339973.172                    22339987.207
 120227936.887 7  93684181.812 7  22878616.438                    22878628.211
 117353299.980 7  91444223.46944  22331581.094                    22331593.516
 122953230.937 7  95807801.48544  23397228.734                    23397241.379
 125221290.028 6  97575042.23144  23828823.797                    23828833.602
 125190298.455 6  97550896.25443  23822939.883                    23822953.734
 11  8 23 18 25  0.0000000  0 10G11G28G08G07G01G17G24G26G19G13
 113161067.397 7  88177534.96545  21533828.609                    21533838.223
 116643777.806 8  90891170.02145  22196531.242                    22196540.406
 107303946.609 8  83613531.11546  20419252.938                    20419262.516
 106923869.197 8  83317343.336 8  20346933.305                    20346942.109
 117346671.678 7  91439101.005 7  22330339.734                    22330354.617
 120142058.144 7  93617263.403 7  22862274.445                    22862286.273
 117309793.449 7  91410322.32944  22323301.586                    22323314.055
 122894035.129 6  95761674.92743  23385964.516                    23385976.031
 125324753.991 6  97655663.41044  23848513.359                    23848522.109
 125301236.378 6  97637341.13743  23844050.750                    23844064.930
 11  8 23 18 25 30.0000000  0 10G11G28G08G07G01G17G24G26G19G13
 113158366.134 8  88175430.08845  21533314.320                    21533324.148
 116618945.975 8  90871820.55745  22191806.297                    22191815.547
 107260576.774 8  83579736.44646  20410999.578                    20411009.367
 106937790.238 8  83328190.862 8  20349582.141                    20349591.680
 117296445.585 7  91399963.828 7  22320782.828                    22320796.871
 120056459.593 7  93550563.335 7  22845985.461                    22845996.973
 117266698.054 7  91376741.54444  22315100.977                    22315113.387
 122835367.382 7  95715959.82843  23374800.414                    23374812.086
 125428332.729 6  97736374.03644  23868223.023                    23868233.031
 125412187.639 6  97723796.37343  23865164.531                    23865178.734
 11  8 23 18 26  0.0000000  0 10G11G28G08G07G01G17G24G26G19G13
 113156234.915 7  88173769.40545  21532909.063                    21532918.789
 116594164.262 8  90852510.13645  22187090.352                    22187099.578
 107217574.241 8  83546227.97446  20402816.484                    20402826.488
 106952181.129 8  83339404.508 8  20352320.672                    20352330.359
 117246615.448 7  91361135.187 7  22311300.219                    22311314.520
 119971142.781 7  93484082.758 7  22829750.359                    22829762.195
 117224016.167 7  91343482.98544  22306979.070                    22306991.492
 122777229.520 6  95670657.60844  23363737.375                    23363749.293
 125532023.650 6  97817172.06144  23887955.289                    23887964.738
 125523149.536 6  97810259.89343  23886280.016                    23886293.996
 11  8 23 18 26 30.0000000  0 10G11G28G08G07G01G17G24G26G19G13
 113154674.310 8  88172553.34145  21532611.898                    21532621.801
 116569431.984 8  90833238.24645  22182383.664                    22182393.059
 107174941.869 8  83513007.94246  20394703.938                    20394713.523
 106967042.757 8  83350984.967 8  20355149.281                    20355158.938
 117197183.751 7  91322617.018 7  22301893.648                    22301907.844
 119886109.147 7  93417822.853 6  22813569.047                    22813580.332
 117181750.553 7  91310548.79444  22298935.938                    22298948.289
 122719623.571 6  95625769.88843  23352774.922                    23352786.766
 125635824.223 6  97898055.56543  23907707.633                    23907716.629
 125634119.096 6  97896729.37843  23907397.086                    23907411.008
 11  8 23 18 27  0.0000000  0 10G11G28G08G07G01G17G24G26G19G13
 113153685.134 7  88171782.56045  21532423.688                    21532433.523
 116544748.566 8  90814004.43245  22177687.094                    22177696.336
 107132682.451 8  83480078.51946  20386661.977                    20386671.855
 106982376.169 8  83362933.050 8  20358066.688                    20358075.918
 117148152.950 7  91284411.242 7  22292562.898                    22292577.539
 119801360.230 7  93351784.808 6  22797441.969                    22797453.078
 117139903.736 7  91277940.93244  22290972.414                    22290985.262
 122662551.371 7  95581298.09944  23341914.516                    23341926.457
 125739732.029 6  97979022.58944  23927481.141                    23927490.188
 125745093.697 6  97983202.81543  23928514.055                    23928529.355
